[[{"header":{"parameterUnit":"m.s-1","parameterCategory":1,"la1":31.0,"la2":29.5877,"lo1":-88.7671,"lo2":-86.6584,"dy":0.0162,"dx":0.0185,"nx":115,"ny":88,"refTime":"2024-03-11T06:00:00:Z","depth":0,"parameterNumber":2,"parameterNumberName":"U-component_of_WINDS"},"data":[0.0,0.0,0.0,0.0,0.0,0.0,0.0,0.0,0.0,0.0,0.0,0.0,0.0,0.0,0.0,0.0,0.0,0.0,0.0,0.0,0.0,0.0,0.0,0.0,0.0,0.0,0.0,0.0,0.0,0.0,0.0,0.0,0.0,0.0,0.0,0.0,0.0,0.0,0.0,0.0,0.0,0.0,0.0,0.0,0.0,0.0,0.0,0.0,0.0,0.0,0.0,0.0,0.0,0.0,0.0,0.0,0.0,0.0,0.0,0.0,0.0,0.0,0.0,0.0,0.0,0.0,0.0,0.0,0.0,0.0,0.0,0.0,0.0,0.0,0.0,0.0,0.0,0.0,0.0,0.0,0.0,0.0,0.0,0.0,0.0,0.0,0.0,0.0,0.0,0.0,0.0,0.0,0.0,0.0,0.0,0.0,0.0,0.0,0.0,0.0,0.0,0.0,0.0,0.0,0.0,0.0,0.0,0.0,0.0,0.0,0.0,0.0,0.0,0.0,0.0,0.0,0.0,0.0,0.0,0.0,0.0,0.0,0.0,0.0,0.0,0.0,0.0,0.0,0.0,0.0,0.0,0.0,0.0,0.0,0.0,0.0,0.0,0.0,0.0,0.0,0.0,0.0,0.0,0.0,0.0,0.0,0.0,0.0,0.0,0.0,0.0,0.0,0.0,0.0,0.0,0.0,0.0,0.0,0.0,0.0,0.0,0.0,0.0,0.0,0.0,0.0,0.0,0.0,0.0,0.0,0.0,0.0,0.0,0.0,0.0,0.0,0.0,0.0,0.0,0.0,0.0,0.0,0.0,0.0,0.0,0.0,0.0,0.0,0.0,0.0,0.0,0.0,0.0,0.0,0.0,0.0,0.0,0.0,0.0,0.0,0.0,0.0,0.0,0.0,0.0,0.0,0.0,0.0,0.0,0.0,0.0,0.0,0.0,0.0,0.0,0.0,0.0,0.0,0.0,0.0,0.0,0.0,0.0,0.0,0.0,0.0,0.0,0.0,0.0,0.0,0.0,0.0,0.0,0.0,0.0,0.0,0.0,0.0,0.0,0.0,0.0,0.0,0.0,0.0,0.0,0.0,0.0,0.0,0.0,0.0,0.0,0.0,0.0,0.0,0.0,0.0,0.0,0.0,0.0,0.0,0.0,0.0,0.0,0.0,0.0,0.0,0.0,0.0,0.0,0.0,0.0,0.0,0.0,0.0,0.0,0.0,0.0,0.0,0.0,0.0,0.0,0.0,0.0,0.0,0.0,0.0,0.0,0.0,0.0,0.0,0.0,0.0,0.0,0.0,0.0,0.0,0.0,0.0,0.0,0.0,0.0,0.0,0.0,0.0,0.0,0.0,0.0,0.0,0.0,0.0,0.0,0.0,0.0,0.0,0.0,0.0,0.0,0.0,0.0,0.0,0.0,0.0,0.0,0.0,0.0,0.0,0.0,0.0,0.0,0.0,0.0,0.0,0.0,0.0,0.0,0.0,0.0,0.0,0.0,0.0,0.0,0.0,0.0,0.0,0.0,0.0,0.0,0.0,0.0,0.0,0.0,0.0,0.0,0.0,0.0,0.0,0.0,0.0,0.0,0.0,0.0,0.0,0.0,0.0,0.0,0.0,0.0,0.0,0.0,0.0,0.0,0.0,0.0,0.0,0.0,0.0,0.0,0.0,0.0,0.0,0.0,0.0,0.0,0.0,0.0,0.0,0.0,0.0,0.0,0.0,0.0,0.0,0.0,0.0,0.0,0.0,0.0,0.0,0.0,0.0,0.0,0.0,0.0,0.0,0.0,0.0,0.0,0.0,0.0,0.0,0.0,0.0,0.0,0.0,0.0,0.0,0.0,0.0,0.0,0.0,0.0,0.0,0.0,0.0,0.0,0.0,0.0,0.0,0.0,0.0,0.0,0.0,0.0,0.0,0.0,0.0,0.0,0.0,0.0,0.0,0.0,0.0,0.0,0.0,0.0,0.0,0.0,0.0,0.0,0.0,0.0,0.0,0.0,0.0,0.0,0.0,0.0,0.0,0.0,0.0,0.0,0.0,0.0,0.0,0.0,0.0,0.0,0.0,0.0,0.0,0.0,0.0,0.0,0.0,0.0,0.0,0.0,0.0,0.0,0.0,0.0,0.0,0.0,0.0,0.0,0.0,0.0,0.0,0.0,0.0,0.0,0.0,0.0,0.0,0.0,0.0,0.0,0.0,0.0,0.0,0.0,0.0,0.0,0.0,0.0,0.0,0.0,0.0,0.0,0.0,0.0,0.0,0.0,0.0,0.0,0.0,0.0,0.0,0.0,0.0,0.0,0.0,0.0,0.0,0.0,0.0,0.0,0.0,0.0,0.0,0.0,0.0,0.0,0.0,0.0,0.0,0.0,0.0,0.0,0.0,0.0,0.0,0.0,0.0,0.0,0.0,0.0,0.0,0.0,0.0,0.0,0.0,0.0,0.0,0.0,0.0,0.0,0.0,0.0,0.0,0.0,0.0,0.0,0.0,0.0,0.0,0.0,0.0,0.0,0.0,0.0,0.0,0.0,0.0,0.0,0.0,0.0,0.0,0.0,0.0,0.0,0.0,0.0,0.0,0.0,0.0,0.0,0.0,0.0,0.0,0.0,0.0,0.0,0.0,0.0,0.0,0.0,0.0,0.0,0.0,0.0,0.0,0.0,0.0,0.0,0.0,0.0,0.0,0.0,0.0,0.0,0.0,0.0,0.0,0.0,0.0,0.0,0.0,0.0,0.0,0.0,0.0,0.0,0.0,0.0,0.0,0.0,0.0,0.0,0.0,0.0,0.0,0.0,0.0,0.0,0.0,0.0,0.0,0.0,0.0,0.0,0.0,0.0,0.0,0.0,0.0,0.0,0.0,0.0,0.0,0.0,0.0,0.0,0.0,0.0,0.0,0.0,0.0,0.0,0.0,0.0,0.0,0.0,0.0,0.0,0.0,0.0,0.0,0.0,0.0,0.0,0.0,0.0,0.0,0.0,0.0,0.0,0.0,0.0,0.0,0.0,0.0,0.0,0.0,0.0,0.0,0.0,0.0,0.0,0.0,0.0,0.0,0.0,0.0,0.0,0.0,0.0,0.0,0.0,0.0,0.0,0.0,0.0,0.0,0.0,0.0,0.0,0.0,0.0,0.0,0.0,0.0,0.0,0.0,0.0,0.0,0.0,0.0,0.0,0.0,0.0,0.0,0.0,0.0,0.0,0.0,0.0,0.0,0.0,0.0,0.0,0.0,0.0,0.0,0.0,0.0,0.0,0.0,0.0,0.0,0.0,0.0,0.0,0.0,0.0,0.0,0.0,0.0,0.0,0.0,0.0,0.0,0.0,0.0,0.0,0.0,0.0,0.0,0.0,0.0,0.0,0.0,0.0,0.0,0.0,0.0,0.0,0.0,0.0,0.0,0.0,0.0,0.0,0.0,0.0,0.0,0.0,0.0,0.0,0.0,0.0,0.0,0.0,0.0,0.0,0.0,0.0,0.0,0.0,0.0,0.0,0.0,0.0,0.0,0.0,0.0,0.0,0.0,0.0,0.0,0.0,0.0,0.0,0.0,0.0,0.0,0.0,0.0,0.0,0.0,0.0,0.0,0.0,0.0,0.0,0.0,0.0,0.0,0.0,0.0,0.0,0.0,0.0,0.0,0.0,0.0,0.0,0.0,0.0,0.0,0.0,0.0,0.0,0.0,0.0,0.0,0.0,0.0,0.0,0.0,0.0,0.0,0.0,0.0,0.0,0.0,0.0,0.0,0.0,0.0,0.0,0.0,0.0,0.0,0.0,0.0,0.0,0.0,0.0,0.0,0.0,0.0,0.0,0.0,0.0,0.0,0.0,0.0,0.0,0.0,0.0,0.0,0.0,0.0,0.0,0.0,0.0,0.0,0.0,0.0,0.0,0.0,0.0,0.0,0.0,0.0,0.0,0.0,0.0,0.0,0.0,0.0,0.0,0.0,0.0,0.0,0.0,0.0,0.0,0.0,0.0,0.0,0.0,0.0,0.0,0.0,0.0,0.0,0.0,0.0,0.0,0.0,0.0,0.0,0.0,0.0,0.0,0.0,0.0,0.0,0.0,0.0,0.0,0.0,0.0,0.0,0.0,0.0,0.0,0.0,0.0,0.0,0.0,0.0,0.0,0.0,0.0,0.0,0.0,0.0,0.0,0.0,0.0,0.0,0.0,0.0,0.0,0.0,0.0,0.0,0.0,0.0,0.0,0.0,0.0,0.0,0.0,0.0,0.0,0.0,0.0,0.0,0.0,0.0,0.0,0.0,-2.1528,0.0,0.0,0.0,0.0,0.0,0.0,0.0,0.0,0.0,0.0,0.0,0.0,0.0,0.0,0.0,0.0,0.0,0.0,0.0,0.0,0.0,0.0,0.0,0.0,0.0,0.0,0.0,0.0,0.0,0.0,0.0,0.0,0.0,0.0,0.0,0.0,0.0,0.0,0.0,0.0,0.0,0.0,0.0,0.0,0.0,0.0,0.0,0.0,0.0,0.0,0.0,0.0,0.0,0.0,0.0,0.0,0.0,0.0,0.0,0.0,0.0,0.0,0.0,0.0,0.0,0.0,0.0,0.0,0.0,0.0,0.0,0.0,0.0,0.0,0.0,0.0,0.0,0.0,0.0,0.0,0.0,0.0,0.0,0.0,0.0,0.0,0.0,0.0,0.0,0.0,0.0,0.0,0.0,0.0,0.0,0.0,0.0,0.0,0.0,0.0,0.0,0.0,0.0,0.0,0.0,0.0,0.0,0.0,0.0,0.0,-2.4481,-2.4393,-2.3889,-2.3178,-2.2231,0.0,0.0,0.0,0.0,0.0,0.0,0.0,0.0,0.0,0.0,0.0,0.0,0.0,0.0,0.0,0.0,0.0,0.0,0.0,0.0,0.0,0.0,0.0,0.0,0.0,0.0,0.0,0.0,0.0,0.0,0.0,0.0,0.0,0.0,0.0,0.0,0.0,0.0,0.0,0.0,0.0,0.0,0.0,0.0,0.0,0.0,0.0,0.0,0.0,0.0,0.0,0.0,0.0,0.0,0.0,0.0,0.0,0.0,0.0,0.0,0.0,0.0,0.0,0.0,0.0,0.0,0.0,0.0,0.0,0.0,0.0,0.0,0.0,0.0,0.0,0.0,0.0,0.0,0.0,0.0,0.0,0.0,0.0,0.0,0.0,0.0,0.0,0.0,0.0,0.0,0.0,0.0,0.0,0.0,0.0,0.0,0.0,0.0,0.0,0.0,0.0,0.0,0.0,0.0,0.0,0.0,0.0,0.0,0.0,0.0,0.0,0.0,-2.4882,-2.396,-2.2762,0.0,0.0,0.0,0.0,0.0,0.0,0.0,0.0,0.0,0.0,0.0,0.0,0.0,0.0,0.0,0.0,0.0,0.0,0.0,0.0,0.0,0.0,0.0,0.0,0.0,0.0,0.0,0.0,0.0,0.0,0.0,0.0,0.0,0.0,0.0,0.0,0.0,0.0,0.0,0.0,0.0,0.0,0.0,0.0,0.0,0.0,0.0,0.0,0.0,0.0,0.0,0.0,0.0,0.0,0.0,0.0,0.0,0.0,0.0,0.0,0.0,0.0,0.0,0.0,0.0,0.0,0.0,0.0,0.0,0.0,0.0,0.0,0.0,0.0,0.0,0.0,0.0,0.0,0.0,0.0,0.0,0.0,0.0,0.0,0.0,0.0,0.0,0.0,0.0,0.0,0.0,0.0,0.0,0.0,0.0,0.0,0.0,0.0,0.0,0.0,0.0,0.0,0.0,0.0,0.0,0.0,0.0,0.0,0.0,0.0,-2.5659,-2.5607,-2.5443,0.0,-2.2713,0.0,0.0,0.0,0.0,0.0,0.0,0.0,0.0,0.0,0.0,0.0,0.0,0.0,0.0,0.0,0.0,0.0,0.0,0.0,0.0,0.0,0.0,0.0,0.0,0.0,0.0,0.0,0.0,0.0,0.0,0.0,0.0,0.0,0.0,0.0,0.0,0.0,0.0,0.0,0.0,0.0,0.0,0.0,0.0,0.0,0.0,0.0,0.0,0.0,0.0,0.0,0.0,0.0,0.0,0.0,0.0,0.0,0.0,0.0,0.0,0.0,0.0,0.0,0.0,0.0,0.0,0.0,0.0,0.0,0.0,0.0,0.0,0.0,0.0,0.0,0.0,0.0,0.0,0.0,0.0,0.0,0.0,0.0,0.0,0.0,0.0,0.0,0.0,0.0,0.0,0.0,0.0,0.0,0.0,0.0,0.0,0.0,0.0,0.0,0.0,0.0,0.0,0.0,0.0,0.0,0.0,0.0,0.0,0.0,0.0,-2.6208,-2.5623,-2.4962,-2.3981,0.0,0.0,0.0,0.0,0.0,0.0,0.0,0.0,0.0,0.0,0.0,0.0,0.0,0.0,0.0,0.0,0.0,0.0,0.0,0.0,0.0,0.0,0.0,0.0,0.0,0.0,0.0,0.0,0.0,0.0,0.0,0.0,0.0,0.0,0.0,0.0,0.0,0.0,0.0,0.0,0.0,0.0,0.0,0.0,0.0,0.0,0.0,0.0,0.0,0.0,0.0,0.0,0.0,0.0,0.0,0.0,0.0,0.0,0.0,0.0,0.0,0.0,0.0,0.0,0.0,0.0,0.0,0.0,0.0,0.0,0.0,0.0,0.0,0.0,0.0,0.0,0.0,0.0,0.0,0.0,0.0,0.0,0.0,0.0,0.0,0.0,0.0,0.0,0.0,0.0,0.0,0.0,0.0,0.0,0.0,0.0,0.0,0.0,0.0,0.0,0.0,0.0,0.0,0.0,0.0,0.0,0.0,0.0,0.0,0.0,-2.6679,-2.6658,-2.5938,-2.5112,-2.4133,-2.2979,0.0,0.0,0.0,0.0,0.0,0.0,0.0,0.0,0.0,0.0,0.0,0.0,0.0,0.0,0.0,0.0,0.0,0.0,0.0,0.0,0.0,0.0,0.0,0.0,0.0,0.0,0.0,0.0,0.0,0.0,0.0,0.0,0.0,0.0,0.0,0.0,0.0,0.0,0.0,0.0,0.0,0.0,0.0,0.0,0.0,0.0,0.0,0.0,0.0,0.0,0.0,0.0,0.0,0.0,0.0,0.0,0.0,0.0,0.0,0.0,0.0,0.0,0.0,0.0,0.0,0.0,0.0,0.0,0.0,0.0,0.0,0.0,0.0,0.0,0.0,0.0,0.0,0.0,0.0,0.0,0.0,0.0,0.0,0.0,0.0,0.0,0.0,0.0,0.0,0.0,0.0,0.0,0.0,0.0,0.0,0.0,0.0,0.0,0.0,0.0,0.0,0.0,0.0,0.0,0.0,0.0,0.0,0.0,-2.69,-2.6973,-2.6927,-2.678,-2.6515,-2.5576,0.0,0.0,0.0,0.0,0.0,0.0,0.0,0.0,0.0,0.0,0.0,0.0,0.0,0.0,0.0,0.0,0.0,0.0,0.0,0.0,0.0,0.0,0.0,0.0,0.0,0.0,0.0,0.0,0.0,0.0,0.0,0.0,0.0,0.0,0.0,0.0,0.0,0.0,0.0,0.0,0.0,0.0,0.0,0.0,0.0,0.0,0.0,0.0,0.0,0.0,0.0,0.0,0.0,0.0,0.0,0.0,0.0,0.0,0.0,0.0,0.0,0.0,0.0,0.0,0.0,0.0,0.0,0.0,0.0,0.0,0.0,0.0,0.0,0.0,0.0,0.0,0.0,0.0,0.0,0.0,0.0,0.0,0.0,0.0,0.0,0.0,0.0,0.0,0.0,0.0,0.0,0.0,0.0,0.0,0.0,0.0,0.0,0.0,0.0,0.0,0.0,0.0,0.0,0.0,0.0,0.0,0.0,0.0,0.0,-2.6978,-2.7497,-2.7973,-2.8339,-2.7184,-2.5918,0.0,0.0,0.0,0.0,0.0,0.0,0.0,0.0,0.0,0.0,0.0,0.0,0.0,0.0,0.0,0.0,0.0,0.0,0.0,0.0,0.0,0.0,0.0,0.0,0.0,0.0,0.0,0.0,0.0,0.0,0.0,0.0,0.0,0.0,0.0,0.0,0.0,0.0,0.0,0.0,0.0,0.0,0.0,0.0,0.0,0.0,0.0,0.0,0.0,0.0,0.0,0.0,0.0,0.0,0.0,0.0,0.0,0.0,0.0,0.0,0.0,0.0,0.0,0.0,0.0,0.0,0.0,0.0,0.0,0.0,0.0,0.0,0.0,0.0,0.0,0.0,0.0,0.0,0.0,0.0,0.0,0.0,0.0,0.0,0.0,0.0,0.0,0.0,0.0,0.0,0.0,0.0,0.0,0.0,0.0,0.0,0.0,0.0,0.0,0.0,0.0,0.0,0.0,0.0,0.0,0.0,0.0,0.0,0.0,-2.7769,0.0,-2.9112,-2.9225,-2.7764,-2.645,0.0,0.0,0.0,0.0,0.0,0.0,0.0,0.0,0.0,0.0,0.0,0.0,0.0,0.0,0.0,0.0,0.0,0.0,0.0,0.0,0.0,0.0,0.0,0.0,0.0,0.0,0.0,0.0,0.0,0.0,0.0,0.0,0.0,0.0,0.0,0.0,0.0,0.0,0.0,0.0,0.0,0.0,0.0,0.0,0.0,0.0,0.0,0.0,0.0,0.0,0.0,0.0,0.0,0.0,0.0,0.0,0.0,0.0,0.0,0.0,0.0,0.0,0.0,0.0,0.0,0.0,0.0,0.0,0.0,0.0,0.0,0.0,0.0,0.0,0.0,0.0,0.0,0.0,0.0,0.0,0.0,0.0,0.0,0.0,0.0,0.0,0.0,0.0,0.0,0.0,0.0,0.0,0.0,0.0,0.0,0.0,0.0,0.0,0.0,0.0,0.0,0.0,0.0,0.0,0.0,0.0,0.0,0.0,-2.7803,-2.9432,-3.0273,-3.0275,-2.9361,-2.8396,-2.7316,0.0,0.0,0.0,0.0,0.0,0.0,0.0,0.0,0.0,0.0,0.0,0.0,0.0,0.0,0.0,0.0,0.0,0.0,0.0,0.0,0.0,0.0,0.0,0.0,0.0,0.0,0.0,0.0,0.0,0.0,0.0,0.0,0.0,0.0,0.0,0.0,0.0,0.0,0.0,0.0,0.0,0.0,0.0,0.0,0.0,0.0,0.0,0.0,0.0,0.0,0.0,0.0,0.0,0.0,0.0,0.0,0.0,0.0,0.0,0.0,0.0,0.0,0.0,0.0,0.0,0.0,0.0,0.0,0.0,0.0,0.0,0.0,0.0,0.0,0.0,0.0,0.0,0.0,0.0,0.0,0.0,0.0,0.0,0.0,0.0,0.0,0.0,0.0,0.0,0.0,0.0,0.0,0.0,0.0,0.0,0.0,0.0,0.0,0.0,0.0,0.0,0.0,0.0,0.0,0.0,0.0,0.0,0.0,0.0,-3.0374,-3.112,-3.1365,-3.1012,-3.0017,-2.8676,0.0,0.0,0.0,0.0,0.0,0.0,0.0,0.0,0.0,0.0,0.0,0.0,0.0,0.0,0.0,0.0,0.0,0.0,0.0,0.0,0.0,0.0,0.0,0.0,0.0,0.0,0.0,0.0,0.0,0.0,0.0,0.0,0.0,0.0,0.0,0.0,0.0,0.0,0.0,0.0,0.0,0.0,0.0,0.0,0.0,0.0,0.0,0.0,0.0,0.0,0.0,0.0,0.0,0.0,0.0,0.0,0.0,0.0,0.0,0.0,0.0,0.0,0.0,0.0,0.0,0.0,0.0,0.0,0.0,0.0,0.0,0.0,0.0,0.0,0.0,0.0,0.0,0.0,0.0,0.0,0.0,0.0,0.0,0.0,0.0,0.0,0.0,0.0,0.0,0.0,0.0,0.0,0.0,0.0,0.0,0.0,0.0,0.0,0.0,0.0,0.0,0.0,0.0,0.0,0.0,0.0,0.0,0.0,0.0,-3.2525,-3.2415,-3.2249,-3.2158,-3.0855,-2.9401,-2.7846,0.0,0.0,0.0,0.0,0.0,0.0,0.0,0.0,0.0,0.0,0.0,0.0,0.0,0.0,0.0,0.0,0.0,0.0,0.0,0.0,0.0,0.0,0.0,0.0,0.0,0.0,0.0,0.0,0.0,0.0,0.0,0.0,0.0,0.0,0.0,0.0,0.0,0.0,0.0,0.0,0.0,0.0,0.0,0.0,0.0,0.0,0.0,0.0,0.0,0.0,0.0,0.0,0.0,0.0,0.0,0.0,0.0,0.0,0.0,0.0,0.0,0.0,0.0,0.0,0.0,0.0,0.0,0.0,0.0,0.0,0.0,0.0,0.0,0.0,0.0,0.0,0.0,0.0,0.0,0.0,0.0,0.0,0.0,0.0,0.0,0.0,0.0,0.0,0.0,0.0,0.0,0.0,0.0,0.0,0.0,0.0,0.0,0.0,0.0,0.0,0.0,0.0,0.0,0.0,0.0,0.0,0.0,0.0,-3.555,-3.4061,-3.3166,-3.2927,-3.1187,-2.9663,0.0,0.0,0.0,0.0,0.0,0.0,0.0,0.0,0.0,0.0,0.0,0.0,0.0,0.0,0.0,0.0,0.0,0.0,0.0,0.0,0.0,0.0,0.0,0.0,0.0,0.0,0.0,0.0,0.0,0.0,0.0,0.0,0.0,0.0,0.0,0.0,0.0,0.0,0.0,0.0,0.0,0.0,0.0,0.0,0.0,0.0,0.0,0.0,0.0,0.0,0.0,0.0,0.0,0.0,0.0,0.0,0.0,0.0,0.0,0.0,0.0,0.0,0.0,0.0,0.0,0.0,0.0,0.0,0.0,0.0,0.0,0.0,0.0,0.0,0.0,0.0,0.0,0.0,0.0,0.0,0.0,0.0,0.0,0.0,0.0,0.0,0.0,0.0,0.0,0.0,0.0,0.0,0.0,0.0,0.0,0.0,0.0,0.0,0.0,0.0,0.0,0.0,0.0,0.0,0.0,0.0,0.0,0.0,0.0,-3.5557,-3.6196,-3.5871,-3.4465,-3.3192,-3.1195,0.0,0.0,0.0,0.0,0.0,0.0,0.0,0.0,0.0,0.0,0.0,0.0,0.0,0.0,0.0,0.0,0.0,0.0,0.0,0.0,0.0,0.0,0.0,0.0,0.0,0.0,0.0,0.0,0.0,0.0,0.0,0.0,0.0,0.0,0.0,0.0,0.0,0.0,0.0,0.0,0.0,0.0,0.0,0.0,0.0,0.0,0.0,0.0,0.0,0.0,0.0,0.0,0.0,0.0,0.0,0.0,0.0,0.0,0.0,0.0,0.0,0.0,0.0,0.0,0.0,0.0,0.0,0.0,0.0,0.0,0.0,0.0,0.0,0.0,0.0,0.0,0.0,0.0,0.0,0.0,0.0,0.0,0.0,0.0,0.0,0.0,0.0,0.0,0.0,0.0,0.0,0.0,0.0,0.0,0.0,0.0,0.0,0.0,0.0,0.0,0.0,0.0,0.0,0.0,0.0,0.0,0.0,0.0,-3.5193,-3.6593,-3.7689,-3.7641,-3.6362,-3.4766,-3.261,0.0,0.0,0.0,0.0,0.0,0.0,0.0,0.0,0.0,0.0,0.0,0.0,0.0,0.0,0.0,0.0,0.0,0.0,0.0,0.0,0.0,0.0,0.0,0.0,0.0,0.0,0.0,0.0,0.0,0.0,0.0,0.0,0.0,0.0,0.0,0.0,0.0,0.0,0.0,0.0,0.0,0.0,0.0,0.0,0.0,0.0,0.0,0.0,0.0,0.0,0.0,0.0,0.0,0.0,0.0,0.0,0.0,0.0,0.0,0.0,0.0,0.0,0.0,0.0,0.0,0.0,0.0,0.0,0.0,0.0,0.0,0.0,0.0,0.0,0.0,0.0,0.0,0.0,0.0,0.0,0.0,0.0,0.0,0.0,0.0,0.0,0.0,0.0,0.0,0.0,0.0,0.0,0.0,0.0,0.0,0.0,0.0,0.0,0.0,0.0,0.0,0.0,0.0,0.0,0.0,0.0,0.0,0.0,-3.5804,-3.7956,-3.8687,-3.8819,-3.8308,-3.5983,-3.3777,0.0,0.0,0.0,0.0,0.0,0.0,0.0,0.0,0.0,0.0,0.0,0.0,0.0,0.0,0.0,0.0,0.0,0.0,0.0,0.0,0.0,0.0,0.0,0.0,0.0,0.0,0.0,0.0,0.0,0.0,0.0,0.0,0.0,0.0,0.0,0.0,0.0,0.0,0.0,0.0,0.0,0.0,0.0,0.0,0.0,0.0,0.0,0.0,0.0,0.0,0.0,0.0,0.0,0.0,0.0,0.0,0.0,0.0,0.0,0.0,0.0,0.0,0.0,0.0,0.0,0.0,0.0,0.0,0.0,0.0,0.0,0.0,0.0,0.0,0.0,0.0,0.0,0.0,0.0,0.0,0.0,0.0,0.0,0.0,0.0,0.0,0.0,0.0,0.0,0.0,0.0,0.0,0.0,0.0,0.0,0.0,0.0,0.0,0.0,0.0,0.0,0.0,0.0,0.0,0.0,0.0,0.0,0.0,-3.7014,-3.7976,-3.9251,-3.9744,-3.9312,-3.6701,-3.4116,0.0,0.0,0.0,0.0,0.0,0.0,0.0,0.0,0.0,0.0,0.0,0.0,0.0,0.0,0.0,0.0,0.0,0.0,0.0,0.0,0.0,0.0,0.0,0.0,0.0,0.0,0.0,0.0,0.0,0.0,0.0,0.0,0.0,0.0,0.0,0.0,0.0,0.0,0.0,0.0,0.0,0.0,0.0,0.0,0.0,0.0,0.0,0.0,-2.7999,0.0,0.0,0.0,0.0,0.0,0.0,0.0,0.0,0.0,0.0,0.0,0.0,0.0,0.0,0.0,0.0,0.0,0.0,0.0,0.0,0.0,0.0,0.0,0.0,0.0,0.0,0.0,0.0,0.0,0.0,0.0,0.0,0.0,0.0,0.0,0.0,0.0,0.0,0.0,0.0,0.0,0.0,0.0,0.0,0.0,0.0,0.0,0.0,0.0,0.0,0.0,0.0,0.0,0.0,0.0,0.0,0.0,0.0,0.0,-3.7346,-3.8015,-3.9443,-4.0001,-3.9536,-3.7361,-3.5076,0.0,0.0,0.0,0.0,0.0,0.0,0.0,0.0,0.0,0.0,0.0,0.0,0.0,0.0,0.0,0.0,0.0,0.0,0.0,0.0,0.0,0.0,0.0,0.0,0.0,0.0,0.0,0.0,0.0,0.0,0.0,0.0,0.0,0.0,0.0,0.0,0.0,0.0,0.0,0.0,0.0,0.0,0.0,0.0,0.0,0.0,0.0,0.0,0.0,0.0,0.0,0.0,0.0,0.0,0.0,0.0,0.0,0.0,0.0,0.0,0.0,0.0,0.0,0.0,0.0,0.0,0.0,0.0,0.0,0.0,0.0,0.0,0.0,0.0,0.0,0.0,0.0,0.0,0.0,0.0,0.0,0.0,0.0,0.0,0.0,0.0,0.0,0.0,0.0,0.0,0.0,0.0,0.0,0.0,0.0,0.0,0.0,0.0,0.0,0.0,0.0,0.0,0.0,0.0,0.0,0.0,0.0,-3.5853,-3.7483,-3.8048,-3.9451,-4.0041,-3.9651,-3.7882,-3.6049,-3.4167,0.0,0.0,0.0,0.0,0.0,0.0,0.0,0.0,0.0,0.0,0.0,0.0,0.0,0.0,0.0,0.0,0.0,0.0,0.0,0.0,0.0,0.0,0.0,0.0,0.0,0.0,0.0,0.0,0.0,0.0,0.0,0.0,0.0,0.0,0.0,0.0,0.0,0.0,-2.8524,-3.0653,0.0,0.0,0.0,0.0,0.0,0.0,0.0,0.0,-3.0675,0.0,0.0,0.0,0.0,0.0,0.0,0.0,0.0,0.0,0.0,0.0,0.0,0.0,0.0,0.0,0.0,0.0,0.0,0.0,0.0,0.0,0.0,0.0,0.0,0.0,0.0,0.0,0.0,0.0,0.0,0.0,0.0,0.0,0.0,0.0,0.0,0.0,0.0,0.0,0.0,0.0,0.0,0.0,0.0,0.0,0.0,0.0,0.0,0.0,0.0,0.0,0.0,0.0,0.0,0.0,0.0,-3.3275,-3.6521,-3.8162,-3.8191,-3.9558,-4.0177,-3.9897,-3.8082,-3.6224,-3.4325,0.0,0.0,0.0,0.0,0.0,0.0,0.0,0.0,0.0,0.0,0.0,0.0,0.0,0.0,0.0,0.0,0.0,0.0,0.0,0.0,0.0,0.0,0.0,0.0,0.0,0.0,0.0,0.0,0.0,0.0,0.0,0.0,0.0,0.0,0.0,0.0,0.0,0.0,0.0,-3.1709,-3.2506,0.0,0.0,0.0,0.0,0.0,0.0,0.0,0.0,-3.0632,0.0,0.0,0.0,0.0,0.0,0.0,0.0,0.0,0.0,0.0,0.0,0.0,0.0,0.0,0.0,0.0,0.0,0.0,0.0,0.0,0.0,0.0,0.0,0.0,0.0,0.0,0.0,0.0,0.0,0.0,0.0,0.0,0.0,0.0,0.0,0.0,0.0,0.0,0.0,0.0,0.0,0.0,0.0,0.0,0.0,0.0,0.0,0.0,0.0,0.0,0.0,0.0,0.0,0.0,0.0,-3.3374,-3.6635,-3.8295,-3.8247,-3.9595,-4.0267,-4.0071,-3.8284,-3.6474,0.0,0.0,0.0,0.0,0.0,0.0,0.0,0.0,0.0,0.0,0.0,0.0,0.0,0.0,0.0,0.0,0.0,0.0,0.0,0.0,0.0,0.0,0.0,0.0,0.0,0.0,0.0,0.0,0.0,0.0,0.0,0.0,0.0,0.0,0.0,0.0,0.0,0.0,0.0,0.0,-3.2331,-3.2998,-3.3862,0.0,0.0,0.0,0.0,0.0,0.0,-3.2072,-3.13,0.0,0.0,0.0,0.0,0.0,0.0,0.0,0.0,0.0,0.0,0.0,0.0,0.0,0.0,0.0,0.0,0.0,0.0,0.0,0.0,0.0,0.0,0.0,0.0,0.0,0.0,0.0,0.0,0.0,0.0,0.0,0.0,0.0,0.0,0.0,0.0,0.0,0.0,0.0,0.0,0.0,0.0,0.0,0.0,0.0,0.0,0.0,0.0,0.0,0.0,0.0,0.0,0.0,0.0,0.0,-3.3353,-3.6614,-3.8298,-3.8294,-3.9692,-4.0312,-3.9983,-3.8432,-3.6682,0.0,0.0,0.0,0.0,0.0,0.0,0.0,0.0,0.0,0.0,0.0,0.0,0.0,0.0,0.0,0.0,0.0,0.0,0.0,0.0,0.0,0.0,0.0,0.0,0.0,0.0,0.0,0.0,0.0,0.0,0.0,0.0,0.0,0.0,0.0,0.0,0.0,0.0,0.0,0.0,0.0,-3.3423,-3.3764,-3.4465,0.0,0.0,0.0,0.0,-3.3689,-3.2672,0.0,0.0,0.0,0.0,0.0,0.0,0.0,0.0,0.0,0.0,0.0,0.0,0.0,0.0,0.0,0.0,0.0,0.0,0.0,0.0,0.0,0.0,0.0,0.0,0.0,0.0,0.0,0.0,0.0,0.0,0.0,0.0,0.0,0.0,0.0,0.0,0.0,0.0,0.0,0.0,0.0,0.0,0.0,0.0,0.0,0.0,0.0,0.0,0.0,0.0,0.0,0.0,0.0,0.0,0.0,0.0,-3.3349,-3.6646,-3.8357,-3.8355,-3.9843,-4.0236,-3.9353,-3.8364,-3.6654,0.0,0.0,0.0,0.0,0.0,0.0,0.0,0.0,0.0,0.0,0.0,0.0,0.0,0.0,0.0,0.0,0.0,0.0,0.0,0.0,0.0,0.0,0.0,0.0,0.0,0.0,0.0,0.0,0.0,0.0,0.0,0.0,0.0,0.0,0.0,0.0,0.0,0.0,0.0,0.0,0.0,-3.3857,-3.538,-3.5737,-3.5818,0.0,0.0,-3.4697,-3.538,-3.3483,0.0,0.0,0.0,0.0,0.0,0.0,0.0,0.0,0.0,0.0,0.0,0.0,0.0,0.0,0.0,0.0,0.0,0.0,0.0,0.0,0.0,0.0,0.0,0.0,0.0,0.0,0.0,0.0,0.0,0.0,0.0,0.0,0.0,0.0,0.0,0.0,0.0,0.0,0.0,0.0,0.0,0.0,0.0,0.0,0.0,0.0,0.0,0.0,0.0,0.0,0.0,0.0,0.0,0.0,0.0,-3.1559,-3.3321,-3.6186,-3.7654,-3.765,-3.8757,-3.9115,-3.8653,-3.7757,-3.6297,0.0,0.0,0.0,0.0,0.0,0.0,0.0,0.0,0.0,0.0,0.0,0.0,0.0,0.0,0.0,0.0,0.0,0.0,0.0,0.0,0.0,0.0,0.0,0.0,0.0,0.0,0.0,0.0,0.0,0.0,0.0,0.0,0.0,0.0,0.0,0.0,0.0,0.0,0.0,0.0,0.0,0.0,-3.5722,-3.5975,0.0,0.0,0.0,-3.5279,-3.515,0.0,0.0,0.0,0.0,0.0,0.0,0.0,0.0,0.0,0.0,0.0,0.0,0.0,0.0,0.0,0.0,0.0,0.0,0.0,0.0,0.0,0.0,0.0,0.0,0.0,0.0,0.0,0.0,0.0,0.0,0.0,0.0,0.0,0.0,0.0,0.0,0.0,0.0,0.0,0.0,0.0,0.0,0.0,0.0,0.0,0.0,0.0,0.0,0.0,0.0,0.0,0.0,0.0,0.0,0.0,0.0,0.0,-3.3264,-3.5801,-3.7142,-3.7133,-3.7902,-3.82,-3.7889,-3.7237,0.0,0.0,0.0,0.0,0.0,0.0,0.0,0.0,0.0,0.0,0.0,0.0,0.0,0.0,0.0,0.0,0.0,0.0,0.0,0.0,0.0,0.0,0.0,0.0,0.0,0.0,0.0,-2.4713,0.0,0.0,0.0,0.0,0.0,0.0,0.0,0.0,0.0,0.0,0.0,0.0,0.0,0.0,-3.3964,-3.575,-3.6015,-3.6011,0.0,0.0,-3.568,-3.5042,-3.3976,-3.3002,0.0,0.0,0.0,0.0,0.0,0.0,0.0,0.0,0.0,0.0,0.0,0.0,0.0,0.0,0.0,0.0,0.0,0.0,0.0,0.0,0.0,0.0,0.0,0.0,0.0,0.0,0.0,0.0,0.0,0.0,0.0,0.0,0.0,0.0,0.0,0.0,0.0,0.0,0.0,0.0,0.0,0.0,0.0,0.0,0.0,0.0,0.0,0.0,0.0,0.0,0.0,0.0,0.0,0.0,0.0,-3.322,-3.5829,-3.7184,-3.7225,-3.7963,-3.7991,-3.7121,-3.702,-3.5818,0.0,0.0,0.0,0.0,0.0,0.0,0.0,0.0,0.0,0.0,0.0,0.0,0.0,0.0,0.0,0.0,0.0,0.0,0.0,0.0,0.0,0.0,0.0,0.0,0.0,0.0,0.0,0.0,0.0,0.0,0.0,0.0,0.0,0.0,0.0,0.0,0.0,0.0,0.0,0.0,0.0,-3.3957,-3.5758,-3.6016,-3.6011,0.0,0.0,-3.588,-3.5813,-3.439,-3.3252,-3.3206,0.0,0.0,0.0,0.0,0.0,0.0,0.0,0.0,0.0,0.0,0.0,0.0,0.0,0.0,0.0,0.0,0.0,0.0,0.0,0.0,0.0,0.0,0.0,0.0,0.0,0.0,0.0,0.0,0.0,0.0,0.0,0.0,0.0,0.0,0.0,0.0,0.0,0.0,0.0,0.0,0.0,0.0,0.0,0.0,0.0,0.0,0.0,0.0,0.0,0.0,0.0,0.0,0.0,-3.1437,-3.3183,-3.5314,-3.6421,-3.6482,-3.6717,-3.6678,-3.6315,-3.6326,-3.5359,0.0,0.0,0.0,0.0,0.0,0.0,0.0,0.0,0.0,0.0,0.0,0.0,0.0,0.0,0.0,0.0,0.0,0.0,0.0,0.0,0.0,0.0,0.0,0.0,0.0,0.0,0.0,0.0,-2.7777,-2.8466,-2.8684,0.0,0.0,0.0,0.0,0.0,0.0,0.0,0.0,0.0,0.0,-3.3957,-3.5756,-3.6015,0.0,0.0,-3.5984,-3.5742,-3.5183,-3.4121,-3.3183,-3.2638,-3.1578,0.0,0.0,0.0,0.0,0.0,0.0,0.0,0.0,0.0,0.0,0.0,0.0,0.0,0.0,0.0,0.0,0.0,0.0,0.0,0.0,0.0,0.0,0.0,0.0,0.0,0.0,0.0,0.0,0.0,0.0,0.0,0.0,0.0,0.0,0.0,0.0,0.0,0.0,0.0,0.0,0.0,0.0,0.0,0.0,0.0,0.0,0.0,0.0,0.0,0.0,0.0,0.0,-3.1333,-3.3161,-3.4948,-3.59,-3.5987,-3.5957,-3.5935,-3.5915,-3.5932,-3.5128,0.0,0.0,0.0,0.0,0.0,0.0,0.0,0.0,0.0,0.0,0.0,0.0,0.0,0.0,0.0,0.0,0.0,0.0,0.0,0.0,0.0,0.0,0.0,0.0,0.0,0.0,0.0,0.0,-2.8586,-2.9202,-2.9085,0.0,0.0,0.0,0.0,0.0,0.0,0.0,0.0,0.0,0.0,-3.3973,-3.5749,-3.601,-3.6014,-3.6016,-3.5976,-3.5742,-3.5095,-3.4078,-3.3199,-3.2595,0.0,0.0,0.0,0.0,0.0,0.0,0.0,0.0,0.0,0.0,0.0,0.0,0.0,0.0,0.0,0.0,0.0,0.0,0.0,0.0,0.0,0.0,0.0,0.0,0.0,0.0,0.0,0.0,0.0,0.0,0.0,0.0,0.0,0.0,0.0,0.0,0.0,0.0,0.0,0.0,0.0,0.0,0.0,0.0,0.0,0.0,0.0,0.0,0.0,0.0,0.0,0.0,0.0,-3.1229,-3.3098,-3.4878,-3.5839,-3.5908,-3.5956,-3.5987,-3.5972,-3.5992,-3.5171,-3.3432,0.0,0.0,0.0,0.0,0.0,0.0,0.0,0.0,0.0,0.0,0.0,0.0,0.0,0.0,0.0,0.0,0.0,0.0,0.0,0.0,0.0,0.0,0.0,0.0,0.0,0.0,-2.9012,-2.9158,-2.9072,0.0,0.0,0.0,0.0,0.0,0.0,0.0,0.0,0.0,0.0,-3.3298,-3.3967,-3.5754,-3.6,-3.6005,-3.6009,-3.5954,-3.5877,-3.5858,-3.4471,-3.3377,0.0,0.0,0.0,0.0,0.0,0.0,0.0,0.0,0.0,0.0,0.0,0.0,0.0,0.0,0.0,0.0,0.0,0.0,0.0,0.0,0.0,0.0,0.0,0.0,0.0,0.0,0.0,-2.9402,-2.9346,0.0,0.0,0.0,0.0,0.0,0.0,0.0,0.0,0.0,0.0,0.0,-2.9115,-2.92,0.0,0.0,0.0,0.0,0.0,0.0,0.0,0.0,0.0,0.0,0.0,0.0,-3.168,-3.2965,-3.4754,-3.5713,-3.5836,-3.5889,-3.5909,-3.5866,-3.5914,-3.5093,-3.3312,0.0,0.0,0.0,0.0,0.0,0.0,0.0,0.0,0.0,0.0,0.0,0.0,0.0,0.0,0.0,0.0,0.0,0.0,0.0,0.0,0.0,0.0,0.0,0.0,0.0,-2.7943,0.0,0.0,0.0,0.0,0.0,0.0,0.0,0.0,0.0,0.0,0.0,-3.1187,-3.3009,-3.3234,-3.3881,-3.5613,-3.5875,-3.586,0.0,0.0,0.0,0.0,0.0,0.0,0.0,0.0,0.0,0.0,0.0,0.0,0.0,0.0,-3.0754,-3.0803,-3.0339,-2.9853,-2.9583,0.0,0.0,0.0,0.0,0.0,0.0,0.0,0.0,0.0,0.0,0.0,0.0,0.0,0.0,0.0,0.0,-2.9738,0.0,0.0,0.0,0.0,0.0,0.0,0.0,0.0,-2.8753,-2.8979,-2.96,-2.9649,-2.9905,0.0,-3.0028,-2.9337,0.0,0.0,0.0,0.0,0.0,0.0,0.0,0.0,-3.1809,-3.2827,-3.4576,-3.5538,-3.565,-3.5767,-3.5776,-3.5733,-3.517,-3.4346,-3.3165,-3.0898,-2.9562,0.0,0.0,0.0,0.0,0.0,0.0,0.0,0.0,0.0,0.0,0.0,0.0,0.0,0.0,0.0,0.0,0.0,0.0,0.0,0.0,0.0,0.0,0.0,-2.8461,0.0,0.0,0.0,0.0,0.0,0.0,0.0,0.0,0.0,-3.0266,-3.0394,-3.1028,-3.2502,-3.2721,-3.3379,-3.508,0.0,0.0,0.0,0.0,0.0,0.0,0.0,-3.318,-3.29,-3.1685,-3.0682,-3.0384,-3.01,-2.9885,-2.9844,0.0,0.0,-3.0594,-3.0308,-2.9825,-2.956,-2.8622,-2.7963,-2.8244,-2.8295,-2.8558,0.0,0.0,0.0,0.0,0.0,0.0,0.0,0.0,-3.0792,-3.0763,0.0,-3.0035,0.0,0.0,0.0,0.0,0.0,0.0,0.0,0.0,-2.8629,-2.9128,-3.0611,-3.0718,-3.0487,-3.0031,-3.0774,-3.0784,-3.0112,-2.8918,0.0,0.0,0.0,0.0,0.0,0.0,-3.1686,-3.2664,-3.4392,-3.5325,-3.54,-3.5518,-3.5593,-3.5556,-3.3928,-3.3007,-3.2905,-3.1295,-2.9992,-2.9153,-2.8361,0.0,0.0,0.0,0.0,0.0,0.0,0.0,0.0,0.0,0.0,0.0,0.0,0.0,0.0,0.0,0.0,0.0,0.0,0.0,0.0,-2.7872,0.0,0.0,0.0,0.0,0.0,0.0,0.0,0.0,0.0,0.0,-3.0087,-3.029,-3.0739,-3.1657,0.0,0.0,0.0,0.0,-3.4637,-3.5466,-3.5587,-3.5271,-3.4518,-3.3623,-3.2772,-3.202,0.0,0.0,-2.9585,-2.8752,-2.824,-2.8209,-2.762,-2.7726,-3.013,-3.0428,-3.0167,-2.9489,-2.9182,-2.9035,-2.8395,-2.8093,-2.8452,-3.4114,0.0,0.0,0.0,0.0,-3.2061,-3.1841,-3.1337,-3.151,-3.1477,-3.1247,-3.0524,0.0,0.0,0.0,0.0,0.0,0.0,-2.8893,-2.9777,-2.9627,-2.9842,-3.0358,-3.0419,-3.0716,-3.1232,-3.0923,-3.1055,-3.1456,-3.0563,-2.9892,-2.9439,0.0,0.0,0.0,0.0,-3.225,-3.3186,-3.4383,-3.5054,-3.52,-3.5314,-3.5397,-3.5385,-3.369,-3.2752,-3.2629,-3.1006,-2.9966,-2.9687,-2.8899,0.0,0.0,0.0,0.0,0.0,0.0,0.0,0.0,0.0,0.0,0.0,0.0,0.0,0.0,0.0,0.0,0.0,0.0,0.0,-2.696,-2.7964,-2.8339,0.0,0.0,0.0,0.0,0.0,0.0,0.0,0.0,0.0,-2.8229,-2.9474,-3.0438,0.0,0.0,-3.2127,-3.318,-3.3334,-3.3417,-3.3662,0.0,0.0,0.0,-3.1333,-3.0329,-3.0114,-2.9384,-2.8754,-2.8465,-2.8225,-2.8066,-2.8051,-2.785,-2.795,-2.852,-2.8288,-2.7915,-2.764,-2.7157,-2.668,-2.6474,-2.6841,-2.7573,-3.5119,-3.3759,-3.3827,-3.3397,-3.2791,-3.3074,-3.2787,-3.2076,-3.2282,-3.207,-3.145,-3.0813,-3.0571,-3.0568,-3.0033,0.0,0.0,0.0,-2.9612,-3.0361,-3.0394,-3.0634,-3.0979,-3.1045,-3.123,-3.1551,-3.1422,-3.1497,-3.1777,-3.1685,-3.139,-3.0886,0.0,0.0,-3.0909,-3.1835,-3.2597,-3.3178,-3.4139,-3.4724,-3.486,-3.5016,-3.5094,-3.5056,-3.3418,-3.2448,-3.2323,-3.0673,-2.9753,-2.9696,-2.8885,-2.8207,0.0,0.0,0.0,0.0,0.0,0.0,0.0,0.0,0.0,0.0,0.0,-2.4235,0.0,0.0,0.0,0.0,-2.4949,-2.5937,-2.751,-2.7503,0.0,0.0,0.0,0.0,0.0,0.0,0.0,-2.6897,-2.7055,-2.7037,-2.6871,-2.8135,-2.9265,-2.9736,-3.0561,-3.129,-3.1757,0.0,-3.1815,-3.1821,-3.1443,-3.1031,-3.0691,-2.9844,-2.9139,-2.88,-2.8356,-2.8028,-2.7961,-2.7681,-2.746,-2.7424,-2.7168,-2.6932,-2.6923,-2.6536,-2.6373,-2.6751,-2.645,-2.6012,-2.5692,-2.6009,-2.6652,-3.574,-3.5142,-3.4055,-3.314,-3.2512,-3.3158,-3.3071,-3.2494,-3.3016,-3.2475,-3.115,-3.0977,-3.0925,-3.0838,-3.0733,0.0,0.0,-2.9661,-3.0127,-3.0942,-3.0942,-3.1377,-3.2144,-3.2144,-3.1847,-3.1285,-3.2071,-3.2069,-3.1452,-3.2298,-3.2375,-3.1665,-3.1418,-3.1316,-3.1388,-3.2274,-3.2773,-3.2841,-3.3764,-3.4316,-3.4461,-3.4641,-3.4724,-3.4724,-3.3051,-3.2125,-3.2016,-3.0311,-2.9361,-2.9314,-2.8509,-2.8024,-2.7913,0.0,0.0,0.0,0.0,0.0,0.0,0.0,0.0,0.0,0.0,0.0,0.0,0.0,0.0,0.0,-2.4302,0.0,-2.7735,-2.6581,0.0,0.0,0.0,-2.5535,-2.5493,-2.5478,-2.5785,-2.6574,0.0,0.0,0.0,0.0,-2.7452,-2.8515,-2.9417,-2.998,-2.9975,-2.9975,-2.9982,-2.997,-2.9953,-2.9679,-2.8887,-2.8641,-2.8316,-2.7699,-2.7658,-2.7581,-2.7518,-2.7012,-2.6535,-2.6463,-2.5827,-2.5332,-2.5317,-2.538,-2.5592,-2.6455,-2.6621,-2.6407,-2.5764,-2.5638,-2.5928,-3.5637,-3.5472,-3.5202,-3.449,-3.3619,-3.3775,-3.3777,-3.355,-3.3059,-3.2624,-3.2262,-3.1635,-3.1048,-3.0465,-2.9865,-2.9813,-3.0206,-3.0206,-3.0618,-3.1322,-3.1375,-3.1498,-3.1728,-3.1747,-3.1733,-3.1668,-3.1932,-3.2004,-3.1917,-3.2196,-3.2281,-3.2139,-3.216,-3.2036,-3.1773,-3.2049,-3.2504,-3.3099,-3.3492,-3.3831,-3.4111,-3.4165,-3.4206,-3.4244,-3.2623,-3.1677,-3.1542,-2.9816,-2.8867,-2.8857,-2.8614,-2.8158,-2.7499,-2.7128,0.0,0.0,0.0,0.0,0.0,0.0,0.0,0.0,0.0,-2.3844,-2.3702,0.0,-2.4652,0.0,-2.4077,-2.4592,-2.5805,-2.5556,0.0,0.0,-2.575,-2.6111,-2.6092,-2.5561,-2.5254,-2.5476,-2.5079,-2.4717,-2.4561,-2.5384,-2.6096,-2.6432,-2.7355,-2.7983,-2.7991,-2.7991,-2.7991,-2.7949,-2.7557,-2.7117,-2.6903,-2.6397,-2.602,-2.5722,-2.5732,-2.575,-2.5769,-2.5629,-2.5444,-2.5447,-2.5319,-2.5154,-2.513,-2.5154,-2.5239,-2.5529,-2.5663,-2.5708,-2.5549,-2.5527,-2.5754,-3.5234,-3.5281,-3.5281,-3.4953,-3.443,-3.4623,-3.4503,-3.4178,-3.3652,-3.3237,-3.2859,-3.2063,-3.1312,-3.0603,-3.0163,-3.0232,-3.0658,-3.0675,-3.0917,-3.1363,-3.1383,-3.1385,-3.1426,-3.1426,-3.1481,-3.1538,-3.1578,-3.1634,-3.1709,-3.1748,-3.1803,-3.1859,-3.2002,-3.1935,-3.177,-3.2076,-3.2498,-3.2925,-3.3139,-3.3372,-3.3634,-3.3666,-3.3702,-3.3688,-3.2088,-3.1151,-3.1073,-2.9347,-2.8381,-2.8378,-2.8295,-2.8027,-2.7544,-2.6851,-2.605,0.0,0.0,0.0,0.0,0.0,0.0,0.0,0.0,0.0,0.0,0.0,-2.4323,0.0,-2.4009,0.0,-2.4998,-2.4722,-2.4462,-2.4414,-2.4753,-2.5007,-2.4967,-2.4588,-2.4363,-2.4385,-2.4067,-2.387,-2.3929,-2.4395,-2.4777,-2.4854,-2.5384,-2.5982,-2.6518,-2.6626,-2.6513,-2.6137,-2.5755,-2.5484,-2.548,-2.5175,-2.4902,-2.4888,-2.4941,-2.4961,-2.4986,-2.4961,-2.4955,-2.4974,-2.4994,-2.5006,-2.5025,-2.5013,-2.5037,-2.5086,-2.5168,-2.5259,-2.5387,-2.5417,-2.5596,-3.4691,-3.4787,-3.4804,-3.4804,-3.4851,-3.5218,-3.5071,-3.4543,-3.432,-3.3827,-3.31,-3.2395,-3.1704,-3.0985,-3.0985,-3.0975,-3.0935,-3.0935,-3.0995,-3.1112,-3.1112,-3.1112,-3.1112,-3.1112,-3.1112,-3.1095,-3.1131,-3.1131,-3.1151,-3.1215,-3.1237,-3.1201,-3.1332,-3.1389,-3.1391,-3.202,-3.2369,-3.2488,-3.265,-3.284,-3.3065,-3.3108,-3.3169,-3.3115,-3.1577,-3.0679,-3.0521,-2.893,-2.7986,-2.7901,-2.7757,-2.7686,-2.7651,-2.6277,-2.5397,0.0,-2.3805,0.0,0.0,0.0,0.0,0.0,0.0,0.0,0.0,-2.3199,-2.3566,-2.4397,-2.3891,-2.3812,-2.458,-2.3949,-2.3481,-2.3435,-2.3365,-2.3313,-2.3247,-2.3277,-2.3348,-2.3424,-2.3434,-2.3477,-2.3584,-2.3617,-2.3667,-2.3797,-2.3914,-2.4346,-2.5236,-2.5529,-2.5332,-2.4596,-2.4549,-2.4657,-2.4615,-2.4556,-2.4471,-2.4497,-2.4347,-2.4496,-2.4534,-2.456,-2.4636,-2.4756,-2.4816,-2.4856,-2.4856,-2.4865,-2.4881,-2.4934,-2.4992,-2.5051,-2.5206,-2.5254,-2.5265,-3.4209,-3.4234,-3.425,-3.425,-3.4275,-3.4349,-3.456,-3.4792,-3.4163,-3.3477,-3.2796,-3.2625,-3.216,-3.148,-3.1485,-3.117,-3.0609,-3.0593,-3.0593,-3.0613,-3.0613,-3.063,-3.0651,-3.0634,-3.0613,-3.0651,-3.0753,-3.0794,-3.0794,-3.0861,-3.0828,-3.0727,-3.0784,-3.0764,-3.0686,0.0,0.0,0.0,-3.1914,-3.2092,-3.2369,-3.2403,-3.2437,-3.2451,-3.1488,0.0,-2.9884,-2.8818,-2.7928,-2.731,-2.71,0.0,0.0,0.0,0.0,0.0,0.0,0.0,0.0,0.0,0.0,0.0,-2.3429,-2.313,-2.2825,-2.2863,-2.2997,-2.3212,-2.3115,-2.3092,-2.3245,-2.3128,-2.3028,-2.3015,-2.3003,-2.2995,-2.2965,-2.2977,-2.3003,-2.3015,-2.3047,-2.3096,-2.3133,-2.3176,-2.3259,-2.3353,-2.3417,-2.3515,-2.3822,-2.4235,-2.4365,-2.42,-2.4247,-2.4293,-2.4357,-2.3862,-2.3541,-2.3411,-2.2912,-2.2876,-2.343,-2.3624,-2.3894,-2.4423,-2.4645,-2.4634,-2.4626,-2.4676,-2.4584,-2.4734,-2.4764,-2.4889,-2.5019,-2.5043,-2.5086,-3.3848,0.0,-3.3822,-3.3813,0.0,-3.372,-3.3864,-3.4109,-3.3999,-3.3492,-3.2742,-3.2406,-3.1805,-3.1036,-3.0717,-3.038,-3.0006,-3.0,-3.0,-3.0,-3.0006,-3.0006,-3.0065,-3.0022,-3.0027,-3.0065,-3.0108,-3.0108,-3.0108,-3.0156,-3.0102,-3.0054,-3.0054,-3.0032,-2.9989,-2.9989,-3.0216,-3.0679,-3.07,-3.0663,-3.0539,-3.0593,-3.0628,-3.0664,0.0,0.0,0.0,0.0,0.0,0.0,0.0,0.0,0.0,0.0,0.0,-2.4905,-2.4097,-2.3603,-2.3502,-2.3142,-2.298,-2.3013,-2.2377,-2.2114,-2.2323,-2.2419,-2.2473,-2.2554,-2.2581,-2.2638,-2.2699,-2.2716,-2.2685,-2.2659,-2.2663,-2.2602,-2.2531,-2.2561,-2.2592,-2.2584,-2.2642,-2.2712,-2.2751,-2.2773,-2.282,-2.2902,-2.2935,-2.295,-2.3044,-2.3455,-2.3816,-2.3878,-2.3929,-2.3852,-2.3527,-2.3253,-2.2785,-2.2462,-2.2073,-2.2052,-2.2459,-2.2868,-2.3266,-2.3717,-2.3798,-2.3797,-2.3778,-2.3523,-2.3396,-2.3777,-2.3942,-2.4158,-2.4531,-2.4797,-2.4922,-3.3408,-3.3497,-3.3382,-3.333,-3.3277,-3.3171,-3.3134,-3.3187,0.0,0.0,0.0,-3.2151,-3.1358,-3.0529,-2.9851,-2.9469,-2.9357,-2.9364,-2.9341,-2.9341,-2.9341,-2.9387,-2.9438,-2.9387,-2.9387,-2.9438,-2.9387,-2.9357,-2.9341,-2.9341,-2.9341,-2.9319,-2.9335,-2.9335,-2.9312,-2.9312,-2.9257,-2.9202,-2.939,-2.9268,-2.8818,-2.8777,-2.8763,-2.878,-2.8686,-2.8488,-2.8225,-2.7531,-2.7057,-2.6846,-2.6176,-2.5756,-2.5633,-2.4982,-2.4512,-2.4329,-2.3765,-2.341,-2.3319,-2.3224,-2.2859,-2.218,-2.1593,-2.1408,-2.1857,-2.194,-2.1996,-2.2082,-2.2136,-2.2209,-2.2346,-2.2346,-2.2332,-2.2307,-2.2279,-2.2189,-2.207,-2.2104,-2.2147,-2.2141,-2.2217,-2.2307,-2.236,-2.2374,-2.2374,-2.2402,-2.2436,-2.2473,-2.2581,-2.3019,-2.3432,-2.3573,-2.3444,-2.317,-2.2757,-2.2284,-2.1996,-2.1398,-2.1198,-2.1224,-2.1523,-2.2008,-2.2429,-2.2648,-2.2685,-2.2685,-2.2657,-2.2297,-2.2036,-2.2673,-2.281,-2.3013,-2.3639,-2.4116,-2.4433,-3.2738,-3.2749,-3.2738,-3.2656,-3.2563,-3.2535,-3.2508,-3.2563,-3.3145,-3.324,-3.2924,-3.2341,-3.1571,-3.0704,-3.004,-2.9422,-2.8834,-2.8818,-2.8818,0.0,-2.8803,-2.8803,-2.8826,-2.8818,-2.8818,-2.8826,-2.8803,-2.8818,-2.8803,-2.8803,-2.8748,-2.8654,-2.863,-2.8598,-2.8549,-2.8565,-2.8256,-2.7657,-2.8382,-2.876,-2.8808,-2.8245,-2.7974,-2.7974,-2.7954,-2.7581,-2.6841,-2.6672,-2.6254,-2.5522,-2.5201,-2.504,-2.5005,-2.4745,-2.457,-2.4485,-2.4371,-2.4249,-2.4116,-2.3606,-2.301,-2.2428,-2.226,-2.2002,-2.1454,-2.1418,-2.1463,-2.1584,-2.163,-2.166,-2.1799,-2.1797,-2.1827,-2.1871,-2.1827,-2.1799,-2.1738,-2.1676,-2.1676,-2.1736,-2.1799,-2.1812,-2.1886,-2.1901,-2.193,-2.1972,-2.1984,-2.2041,-2.2192,-2.2625,-2.303,-2.3129,-2.2675,-2.2307,-2.2003,-2.1141,-2.0528,-2.0261,-1.9723,-1.9642,-2.0255,-2.0535,-2.0887,-2.1412,-2.1539,-2.1539,-2.1539,-2.1532,-2.1434,-2.1606,-2.1661,-2.1807,-2.2026,-2.2575,-2.3308,-3.216,-3.2201,-3.2132,-3.2092,-3.1992,-3.1936,-3.1908,-3.189,-3.1751,-3.1774,-3.179,-3.0788,-3.0053,-2.9577,-2.8895,-2.8421,-2.81,-2.81,-2.81,-2.8116,-2.8116,-2.8125,-2.8204,-2.814,-2.814,-2.8204,-2.814,-2.81,-2.8076,-2.8057,-2.7993,-2.7993,-2.8018,-2.7984,-2.7965,-2.7949,-2.7813,-2.7479,-2.747,-2.7304,-2.6957,-2.6375,-2.6066,-2.6081,-2.6432,-2.6454,-2.5977,-2.5961,-2.5716,-2.5233,-2.4704,-2.4415,-2.4313,-2.4224,-2.412,-2.403,-2.3994,-2.3973,-2.3931,-2.3288,-2.2808,-2.2525,-2.2176,-2.1839,-2.1541,-2.1468,-2.1516,-2.1632,-2.1376,-2.1214,-2.1291,-2.1323,-2.1339,-2.1354,-2.1323,-2.1308,-2.1261,-2.1261,-2.1229,-2.1261,-2.1292,-2.1339,-2.137,-2.137,-2.1401,-2.1494,-2.1541,-2.1616,-2.1688,-2.1907,-2.2095,-2.2116,-2.1836,-2.1347,-2.0815,-2.0167,-1.9568,-1.9202,-1.8833,-1.8773,-1.9211,-1.9505,-1.9949,-2.0281,-2.037,-2.0388,-2.038,-2.0061,-2.0036,-2.0384,-2.0458,-2.0594,-2.1064,-2.1546,-2.2222,-3.1552,-3.1652,-3.1537,-3.1466,-3.1452,-3.1335,-3.1203,-3.0995,-3.0242,-2.9999,-3.0045,-2.9072,-2.8532,-2.8342,-2.7705,-2.7382,-2.7382,-2.7382,-2.7397,-2.7382,-2.7408,-2.7433,-2.7524,-2.7448,-2.7433,-2.7499,-2.7408,-2.7331,-2.7306,-2.7218,-2.7203,-2.7331,-2.7357,-2.7357,-2.7382,-2.7408,-2.7408,-2.7348,-2.671,-2.6107,-2.5661,-2.497,-2.4596,-2.4626,-2.5014,-2.5157,-2.5078,-2.5035,-2.4943,-2.477,-2.4219,-2.3803,-2.3653,-2.361,-2.3566,-2.3443,-2.3443,-2.3443,-2.3413,-2.2982,-2.2664,-2.2664,-2.2203,-2.1921,-2.1943,-2.1805,-2.1737,-2.1798,-2.148,-2.125,-2.1351,-2.1352,-2.1274,-2.1131,-2.1116,-2.1019,-2.0827,-2.0828,-2.0845,-2.0795,-2.0829,-2.0878,-2.0878,-2.0878,-2.0926,-2.1038,-2.1087,-2.1151,-2.1182,-2.1101,-2.0937,-2.0791,-2.0795,-2.0458,-1.9419,-1.9068,-1.8784,-1.8295,-1.8232,-1.8263,-1.8454,-1.8857,-1.9136,-1.9192,-1.9202,-1.9192,-1.915,-1.8819,-1.8724,-1.9129,-1.9245,-1.9521,-2.029,-2.0541,-2.1093,-3.0881,-3.0896,-3.0866,-3.0822,-3.0717,-3.0687,-3.0352,-2.9726,-2.8986,-2.8321,-2.7924,-2.8008,-2.7949,-2.77,-2.7091,-2.6788,-2.6774,-2.6788,-2.6788,-2.6774,-2.6774,-2.6774,-2.6814,-2.6788,-2.6721,-2.6642,-2.6616,-2.6549,-2.6457,-2.6416,-2.6469,-2.659,-2.659,-2.6669,-2.6747,-2.6774,-2.6774,-2.6759,-2.6185,-2.608,-2.642,-2.525,-2.459,-2.4605,-2.4071,-2.3793,-2.3816,-2.3663,-2.3583,-2.3539,-2.3334,-2.3194,-2.315,-2.3046,-2.2979,-2.2957,-2.2957,-2.2957,-2.2979,-2.2921,-2.284,-2.2869,-2.2767,-2.2709,-2.2717,-2.2336,-2.2066,-2.2039,-2.2011,-2.1956,-2.2232,-2.2208,-2.1916,-2.1459,-2.1346,-2.1124,-2.0598,-2.0409,-2.0375,-2.0429,-2.0429,-2.0495,-2.0495,-2.0512,-2.0545,-2.0561,-2.0595,-2.0613,-2.0582,-2.0192,-1.9672,-1.9279,-1.9337,-1.9346,-1.8721,-1.8128,-1.7872,-1.7755,-1.7816,-1.7845,-1.7901,-1.7929,-1.798,-1.8172,-1.8059,-1.8087,-1.807,-1.7939,-1.7983,-1.8131,-1.8266,-1.8424,-1.9131,-1.9394,-1.9917,-3.0113,-3.0099,-3.0113,-3.0083,-2.9991,-3.0005,-2.9665,-2.9009,-2.8251,-2.7541,-2.6947,-2.6649,-2.6603,-2.6751,-2.6358,-2.6204,-2.6245,-2.6245,-2.6231,-2.6231,-2.6231,-2.6245,-2.6218,-2.615,-2.6096,-2.6015,-2.5906,-2.5824,-2.5797,-2.5865,-2.592,-2.5878,-2.6055,-2.6177,-2.6204,-2.6231,-2.6245,-2.6204,-2.5989,-2.5981,-2.6044,-2.5233,-2.4491,-2.4101,-2.38,-2.3403,-2.3008,-2.2897,-2.2852,-2.2799,-2.2723,-2.2655,-2.2563,-2.2518,-2.2495,-2.2495,-2.2495,-2.2495,-2.2495,-2.2495,-2.2495,-2.2472,-2.2495,-2.2495,-2.2495,-2.2275,-2.2197,-2.2228,-2.193,-2.1714,-2.1822,-2.1886,-2.1823,-2.1538,-2.1186,-2.0818,-2.0579,-2.0185,-1.9957,-1.9977,-1.9909,-1.9874,-1.9925,-1.9977,-2.0048,-2.0085,-2.0135,-2.0168,-2.0154,-1.9669,-1.9009,-1.8424,-1.8214,-1.7974,-1.7662,-1.7404,-1.7256,-1.7276,-1.7313,-1.7325,-1.7337,-1.7372,-1.7396,-1.7396,-1.742,-1.7432,-1.7477,-1.7472,-1.7491,-1.7502,-1.7572,-1.7787,-1.8132,-1.8228,-1.8613,-2.9446,-2.9477,-2.9446,-2.9477,-2.9446,-2.9446,-2.903,-2.8274,-2.765,-2.6951,-2.6174,-2.559,-2.5467,-2.5729,-2.5729,-2.5702,-2.5647,-2.5647,-2.5674,-2.5674,-2.5647,-2.5647,-2.5591,-2.5508,-2.5397,-2.5314,-2.5161,-2.5105,-2.5119,-2.5231,-2.5286,-2.5273,-2.5467,-2.5619,-2.5647,-2.5647,-2.5674,-2.5647,-2.5647,-2.5674,-2.5576,-2.514,-2.4579,-2.402,-2.3792,-2.3345,-2.2593,-2.2527,-2.2395,-2.2184,-2.2161,-2.2091,-2.1996,-2.1996,-2.1996,-2.1983,-2.1996,-2.1983,-2.1996,-2.1983,-2.1996,-2.1983,-2.1959,-2.1983,-2.1983,-2.1983,-2.202,-2.2063,-2.1705,-2.1504,-2.1748,-2.1831,-2.1854,-2.1697,-2.1203,-2.0922,-2.0734,-2.0161,-1.979,-1.9757,-1.9535,-1.9314,-1.9314,-1.9384,-1.9475,-1.95,-1.9603,-1.9705,-1.9573,-1.9041,-1.8325,-1.7858,-1.7197,-1.6733,-1.6673,-1.6738,-1.6747,-1.6786,-1.6812,-1.6853,-1.6857,-1.6904,-1.6914,-1.6901,-1.698,-1.7018,-1.7002,-1.703,-1.708,-1.7105,-1.7191,-1.7276,-1.7415,-1.7413,-1.7512,-2.9131,-2.9099,-2.9099,-2.9099,-2.9131,-2.9071,-2.8422,-2.7373,-2.7113,-2.6352,-2.5324,-2.4975,-2.4835,-2.4892,-2.509,-2.5132,-2.5061,-2.5048,-2.5033,-2.5033,-2.502,-2.4977,-2.4863,-2.4835,-2.4679,-2.4436,-2.4379,-2.4379,-2.4366,-2.4379,-2.4507,-2.4806,-2.4863,-2.492,-2.5033,-2.5033,-2.502,-2.5033,-2.5033,-2.502,-2.5061,-2.498,-2.4833,-2.4537,-2.4034,-2.3361,-2.2749,-2.2578,-2.2243,-2.1667,-2.1574,-2.1474,-2.1461,-2.1461,-2.1447,-2.1447,-2.1434,-2.1447,-2.1434,-2.1447,-2.1434,-2.1447,-2.1434,-2.1434,-2.1447,-2.1434,-2.1434,-2.1434,-2.1503,-2.1746,-2.232,-2.2377,-2.2322,-2.1953,-2.1844,-2.1504,-2.1025,-2.0353,-2.0014,-1.9782,-1.9277,-1.8908,-1.8822,-1.8841,-1.886,-1.8879,-1.8917,-1.8974,-1.8834,-1.8077,-1.7466,-1.7133,-1.6464,-1.5712,-1.6053,-1.6246,-1.6299,-1.6326,-1.6367,-1.6423,-1.6439,-1.6439,-1.6436,-1.645,-1.6528,-1.6552,-1.6565,-1.6617,-1.6709,-1.676,-1.6825,-1.6885,-1.6926,-1.6977,-1.7068,-2.8471,-2.8471,-2.8471,-2.8471,-2.8417,-2.8039,-2.7404,-2.6661,-2.6166,-2.5531,-2.4872,-2.4565,-2.4421,-2.4374,-2.4361,-2.4447,-2.4565,-2.4565,-2.4507,-2.445,-2.4434,-2.4321,-2.4176,-2.4073,-2.391,-2.3747,-2.3734,-2.3763,-2.3852,-2.3982,-2.4099,-2.4229,-2.4319,-2.4405,-2.4421,-2.4421,-2.4421,-2.4408,-2.4421,-2.4421,-2.4421,-2.4421,-2.4343,-2.4186,-2.3836,-2.3272,-2.2472,-2.2392,-2.226,-2.2048,-2.1691,-2.1466,-2.1439,-2.1108,-2.0883,-2.0896,-2.0883,-2.0883,-2.0883,-2.0883,-2.0883,-2.0896,-2.0883,-2.0883,-2.0896,-2.0896,-2.0883,-2.0883,-2.0932,-2.1202,-2.1565,-2.1969,-2.2225,-2.2076,-2.1721,-2.1387,-2.1067,-2.0493,-1.9915,-1.9457,-1.8815,-1.8319,-1.8305,-1.8285,-1.8319,-1.8406,-1.8431,-1.8431,-1.8268,-1.7495,-1.6823,-1.6627,-1.5884,-1.5163,-1.5284,-1.5668,-1.5854,-1.5883,-1.5941,-1.5983,-1.6011,-1.6039,-1.6038,-1.6038,-1.6093,-1.6148,-1.6147,-1.6174,-1.627,-1.6326,-1.6392,-1.6472,-1.6514,-1.6662,-1.6723,-2.8,-2.8,-2.7947,-2.7782,-2.7616,-2.7232,-2.6608,-2.5875,-2.5378,-2.4873,-2.4398,-2.4173,-2.4028,-2.3923,-2.3802,-2.3776,-2.3914,-2.3956,-2.3969,-2.3868,-2.378,-2.3619,-2.3429,-2.3288,-2.3168,-2.312,-2.318,-2.333,-2.345,-2.3641,-2.3772,-2.3832,-2.3852,-2.3881,-2.3868,-2.3809,-2.378,-2.378,-2.378,-2.3767,-2.378,-2.378,-2.3704,-2.3577,-2.3447,-2.3069,-2.2386,-2.236,-2.2242,-2.2021,-2.166,-2.1467,-2.1416,-2.0901,-2.0604,-2.0591,-2.0437,-2.0334,-2.0359,-2.0359,-2.0334,-2.0359,-2.0321,-2.0307,-2.0126,-2.0075,-2.001,-1.9881,-1.9879,-2.0001,-2.0257,-2.0661,-2.1225,-2.1712,-2.1551,-2.1232,-2.1167,-2.0423,-1.9567,-1.8714,-1.8106,-1.7774,-1.7727,-1.776,-1.7781,-1.7889,-1.7909,-1.7949,-1.7799,-1.7189,-1.6441,-1.6239,-1.5489,-1.4893,-1.4754,-1.4921,-1.5285,-1.5359,-1.5448,-1.5522,-1.558,-1.561,-1.5639,-1.5624,-1.5653,-1.5725,-1.5739,-1.5754,-1.5782,-1.584,-1.5925,-1.5995,-1.6158,-1.6381,-1.6526,-2.7789,-2.7723,-2.759,-2.7177,-2.6746,-2.6589,-2.5994,-2.5075,-2.4728,-2.4318,-2.3874,-2.3688,-2.3599,-2.3569,-2.3433,-2.33,-2.3198,-2.33,-2.336,-2.333,-2.306,-2.2836,-2.2641,-2.2531,-2.2482,-2.2482,-2.2757,-2.2969,-2.3108,-2.3271,-2.3433,-2.3539,-2.342,-2.339,-2.3403,-2.3228,-2.3125,-2.3125,-2.3155,-2.3138,-2.3108,-2.3138,-2.3078,-2.2939,-2.2919,-2.2747,-2.2479,-2.2483,-2.221,-2.1641,-2.1487,-2.1409,-2.1312,-2.0901,-2.06,-2.0537,-2.0136,-1.9899,-1.986,-1.9898,-1.9961,-1.9899,-1.9823,-1.9673,-1.9296,-1.9183,-1.8969,-1.8616,-1.8537,-1.8567,-1.8744,-1.8918,-1.9598,-2.1018,-2.1087,-2.1026,-2.0836,-2.0113,-1.8958,-1.7818,-1.7334,-1.722,-1.7199,-1.722,-1.724,-1.724,-1.7323,-1.7372,-1.7319,-1.6831,-1.6372,-1.5872,-1.523,-1.4637,-1.4349,-1.4192,-1.4547,-1.4844,-1.4953,-1.5044,-1.5074,-1.5104,-1.5119,-1.512,-1.5149,-1.521,-1.5255,-1.5255,-1.527,-1.5329,-1.5404,-1.5492,-1.5654,-1.5891,-1.6413,-2.7167,-2.7053,-2.6985,-2.6552,-2.5937,-2.5568,-2.4957,-2.4269,-2.3809,-2.347,-2.3343,-2.318,-2.312,-2.309,-2.2969,-2.2818,-2.2635,-2.2574,-2.2647,-2.2665,-2.2525,-2.2297,-2.2142,-2.2068,-2.2123,-2.2266,-2.2451,-2.2665,-2.2787,-2.2891,-2.2921,-2.2951,-2.2951,-2.2921,-2.2891,-2.286,-2.283,-2.2818,-2.283,-2.283,-2.283,-2.2696,-2.2592,-2.2543,-2.2451,-2.2304,-2.2116,-2.2437,-2.2513,-2.2256,-2.1893,-2.1465,-2.1076,-2.0827,-2.0673,-2.0536,-2.0374,-2.0292,-2.0292,-2.024,-2.0086,-1.9845,-1.9736,-1.948,-1.908,-1.8984,-1.8714,-1.8288,-1.8302,-1.8338,-1.8172,-1.8155,-1.8601,-1.9511,-1.9598,-1.9604,-1.942,-1.8728,-1.8044,-1.7491,-1.7007,-1.6748,-1.6723,-1.6735,-1.6735,-1.6701,-1.6765,-1.6786,-1.671,-1.6414,-1.6057,-1.5749,-1.5054,-1.4433,-1.4158,-1.3925,-1.3987,-1.4252,-1.439,-1.4594,-1.4625,-1.4625,-1.4627,-1.4627,-1.4672,-1.4688,-1.4735,-1.4751,-1.4737,-1.4768,-1.483,-1.4934,-1.5052,-1.5462,-1.6008,-2.6692,-2.6508,-2.6336,-2.5797,-2.5,-2.455,-2.3981,-2.3337,-2.2936,-2.2757,-2.2744,-2.2726,-2.2739,-2.2696,-2.2586,-2.2432,-2.2297,-2.1987,-2.1894,-2.1944,-2.1862,-2.1706,-2.158,-2.1663,-2.1757,-2.1956,-2.2266,-2.2389,-2.2402,-2.2525,-2.2555,-2.2525,-2.2432,-2.2402,-2.2402,-2.234,-2.234,-2.2321,-2.2309,-2.2309,-2.2309,-2.2216,-2.2123,-2.2006,-2.1913,-2.1819,-2.1675,-2.1987,-2.2185,-2.2242,-2.194,-2.1542,-2.1152,-2.0889,-2.067,-2.0546,-2.0305,-2.0158,-2.017,-2.0111,-2.0052,-1.971,-1.9502,-1.9199,-1.8762,-1.8549,-1.8135,-1.7686,-1.7656,-1.7602,-1.7267,-1.7254,-1.7358,-1.7449,-1.8128,-1.8238,-1.8017,-1.7564,-1.7125,-1.6777,-1.6448,-1.6278,-1.6241,-1.6241,-1.6241,-1.6241,-1.6241,-1.6241,-1.6179,-1.6012,-1.5798,-1.5546,-1.5082,-1.4505,-1.4,-1.3729,-1.3506,-1.3646,-1.3802,-1.4046,-1.4206,-1.4206,-1.4208,-1.4208,-1.4225,-1.4176,-1.4208,-1.4163,-1.4149,-1.4198,-1.423,-1.4305,-1.4468,-1.5108,-1.5677,-2.6289,-2.6117,-2.5709,-2.4927,-2.3987,-2.3676,-2.3067,-2.2274,-2.2154,-2.2154,-2.2173,-2.2297,-2.2371,-2.2328,-2.2228,-2.2154,-2.2061,-2.158,-2.1253,-2.1221,-2.119,-2.1094,-2.1063,-2.1305,-2.1463,-2.1557,-2.2037,-2.2173,-2.1968,-2.2216,-2.2309,-2.2166,-2.203,-2.1894,-2.1925,-2.1781,-2.1718,-2.1761,-2.1698,-2.1686,-2.1686,-2.1667,-2.158,-2.1388,-2.1356,-2.1305,-2.1221,-2.1233,-2.136,-2.1635,-2.1683,-2.1592,-2.1495,-2.0966,-2.0637,-2.0534,-1.9987,-1.9783,-1.9703,-1.9775,-1.9696,-1.9559,-1.9234,-1.8668,-1.824,-1.7863,-1.7368,-1.6797,-1.6795,-1.6629,-1.6286,-1.6149,-1.5963,-1.5602,-1.6677,-1.7188,-1.6863,-1.6673,-1.6352,-1.597,-1.577,-1.577,-1.577,-1.5748,-1.5758,-1.5758,-1.5758,-1.5758,-1.5758,-1.5614,-1.5473,-1.5219,-1.4917,-1.4553,-1.4033,-1.3703,-1.3518,-1.357,-1.3626,-1.3696,-1.3825,-1.3814,-1.3935,-1.3905,-1.3866,-1.376,-1.3726,-1.3752,-1.3654,-1.3602,-1.3635,-1.3652,-1.3999,-1.4583,-1.5103,-2.5699,-2.5487,-2.4868,-2.4089,-2.3258,-2.2803,-2.2166,-2.1521,-2.1569,-2.1632,-2.1651,-2.1812,-2.1917,-2.1874,-2.1855,-2.1737,-2.1569,-2.1316,-2.1042,-2.083,-2.0658,-2.0754,-2.0903,-2.1146,-2.1305,-2.1431,-2.1737,-2.1843,-2.1749,-2.1843,-2.1855,-2.1824,-2.173,-2.1718,-2.1718,-2.1537,-2.1494,-2.1474,-2.136,-2.1328,-2.1296,-2.1169,-2.1094,-2.1051,-2.0935,-2.085,-2.0818,-2.069,-2.085,-2.1296,-2.1328,-2.1276,-2.1126,-2.0903,-2.0653,-2.0409,-2.0258,-2.0085,-1.9957,-1.9946,-1.9813,-1.9494,-1.9251,-1.8887,-1.803,-1.7831,-1.7335,-1.6766,-1.6617,-1.648,-1.6012,-1.5646,-1.5233,-1.4854,-1.5475,-1.5834,-1.5671,-1.5555,-1.5439,-1.53,-1.5289,-1.5266,-1.5266,-1.5289,-1.5289,-1.5266,-1.5266,-1.5277,-1.5289,-1.5255,-1.5127,-1.5011,-1.4756,-1.4444,-1.4097,-1.3749,-1.3569,-1.3614,-1.3587,-1.3517,-1.3525,-1.3462,-1.3664,-1.3846,-1.3745,-1.3659,-1.3607,-1.3602,-1.3376,-1.3144,-1.3104,-1.319,-1.3462,-1.3925,-1.4353,-2.5135,-2.4886,-2.4155,-2.3421,-2.2707,-2.2111,-2.152,-2.1067,-2.1063,-2.1158,-2.1221,-2.1423,-2.1517,-2.158,-2.158,-2.1474,-2.1316,-2.1106,-2.083,-2.0604,-2.0378,-2.0496,-2.0775,-2.101,-2.1158,-2.1336,-2.1549,-2.1572,-2.1391,-2.1423,-2.1403,-2.1276,-2.1288,-2.1288,-2.1244,-2.1169,-2.1063,-2.0999,-2.0903,-2.085,-2.0732,-2.0635,-2.0539,-2.0485,-2.0399,-2.0302,-2.014,-1.9976,-2.0205,-2.0603,-2.072,-2.07,-2.0603,-2.0506,-2.0356,-2.0074,-2.0009,-1.9857,-1.9726,-1.9682,-1.9565,-1.9276,-1.9126,-1.8731,-1.8178,-1.7796,-1.7198,-1.6835,-1.6642,-1.6277,-1.5796,-1.5232,-1.4749,-1.4446,-1.4446,-1.4558,-1.4766,-1.4834,-1.4811,-1.4811,-1.4811,-1.4811,-1.4823,-1.4823,-1.4823,-1.4811,-1.4811,-1.4811,-1.4811,-1.4811,-1.4766,-1.4654,-1.4564,-1.4283,-1.4015,-1.3679,-1.3433,-1.3483,-1.3542,-1.344,-1.3505,-1.3435,-1.3705,-1.3907,-1.3711,-1.3558,-1.3503,-1.3374,-1.3101,-1.2902,-1.2782,-1.2745,-1.2995,-1.3163,-1.3608,-2.4563,-2.4324,-2.345,-2.2774,-2.2195,-2.1531,-2.0951,-2.0649,-2.0625,-2.0679,-2.0839,-2.1031,-2.119,-2.1336,-2.1273,-2.1253,-2.1138,-2.083,-2.0572,-2.0378,-2.0248,-2.0313,-2.0625,-2.0754,-2.0935,-2.1126,-2.1466,-2.1308,-2.1074,-2.1106,-2.0978,-2.085,-2.0765,-2.0701,-2.0722,-2.069,-2.0529,-2.0399,-2.0335,-2.0259,-2.015,-2.0074,-1.9987,-1.99,-1.9835,-1.9638,-1.9407,-1.9274,-1.9429,-1.9879,-1.9966,-1.9998,-1.9977,-1.9857,-1.9736,-1.9539,-1.9384,-1.9241,-1.9075,-1.9031,-1.8998,-1.8895,-1.8561,-1.8325,-1.8099,-1.7544,-1.7061,-1.6743,-1.6497,-1.6046,-1.5471,-1.48,-1.445,-1.4276,-1.3951,-1.3951,-1.4168,-1.4312,-1.4292,-1.4303,-1.4303,-1.4326,-1.4326,-1.4326,-1.4303,-1.4303,-1.4303,-1.4303,-1.4303,-1.4303,-1.4303,-1.4271,-1.4194,-1.4095,-1.3856,-1.3617,-1.34,-1.3292,-1.339,-1.3452,-1.3733,-1.3778,-1.3965,-1.4018,-1.3792,-1.3583,-1.3426,-1.3195,-1.2899,-1.2527,-1.234,-1.2312,-1.2377,-1.2538,-1.2848,-2.4116,-2.3708,-2.2628,-2.1948,-2.1417,-2.062,-2.0063,-1.9878,-2.0107,-2.0237,-2.0334,-2.0646,-2.0818,-2.085,-2.0839,-2.0818,-2.0754,-2.054,-2.0378,-2.0172,-2.0151,-2.0248,-2.0432,-2.0496,-2.0614,-2.0764,-2.0882,-2.0839,-2.072,-2.0675,-2.0754,-2.0646,-2.055,-2.0604,-2.0432,-2.0291,-2.015,-1.9998,-1.9878,-1.978,-1.9671,-1.9528,-1.9429,-1.9407,-1.9308,-1.9131,-1.8931,-1.8754,-1.8687,-1.8764,-1.9031,-1.922,-1.9287,-1.9297,-1.9164,-1.8998,-1.8908,-1.8774,-1.8539,-1.8472,-1.8414,-1.825,-1.8127,-1.7925,-1.7579,-1.7359,-1.6876,-1.6443,-1.6117,-1.5684,-1.5025,-1.4767,-1.4442,-1.4166,-1.3988,-1.3842,-1.3741,-1.3741,-1.3815,-1.3787,-1.3787,-1.3763,-1.3752,-1.3787,-1.3787,-1.3787,-1.3787,-1.3787,-1.3787,-1.3797,-1.3787,-1.381,-1.3755,-1.3669,-1.3606,-1.3426,-1.3311,-1.3175,-1.3233,-1.3313,-1.3585,-1.3739,-1.3777,-1.3832,-1.3818,-1.3627,-1.3451,-1.3045,-1.2743,-1.2313,-1.194,-1.1961,-1.2004,-1.2036,-1.212,-2.3446,-2.3051,-2.195,-2.1371,-2.1035,-2.0198,-1.9704,-1.9638,-1.9791,-1.9922,-2.0053,-2.0313,-2.0421,-2.0421,-2.0496,-2.0496,-2.0335,-2.0237,-2.0151,-2.0074,-2.0042,-2.0074,-2.0107,-2.0096,-2.0117,-2.0271,-2.0247,-2.0095,-1.9887,-1.9936,-1.9907,-1.9909,-2.0073,-2.0096,-2.0042,-1.9922,-1.9802,-1.9605,-1.944,-1.9308,-1.9208,-1.9019,-1.8875,-1.8841,-1.8741,-1.8607,-1.8293,-1.809,-1.791,-1.7852,-1.7988,-1.8259,-1.8529,-1.8573,-1.8506,-1.8327,-1.8293,-1.8202,-1.7998,-1.7906,-1.7862,-1.7769,-1.7691,-1.7508,-1.7211,-1.7035,-1.6642,-1.6179,-1.5773,-1.5223,-1.4686,-1.4346,-1.4166,-1.4005,-1.3779,-1.358,-1.3423,-1.3459,-1.3439,-1.3353,-1.3272,-1.3272,-1.3272,-1.3262,-1.3262,-1.3272,-1.3272,-1.3272,-1.3282,-1.3306,-1.3282,-1.3272,-1.3272,-1.3262,-1.3262,-1.3212,-1.3168,-1.3111,-1.3104,-1.3145,-1.3281,-1.3357,-1.3404,-1.3564,-1.3773,-1.3706,-1.3486,-1.3063,-1.2574,-1.2152,-1.1861,-1.1733,-1.1641,-1.1686,-1.173,-2.2734,-2.2371,-2.1309,-2.0811,-2.06,-1.9786,-1.9374,-1.9407,-1.9473,-1.9539,-1.9736,-1.9879,-1.9987,-2.002,-2.0172,-2.0107,-1.9944,-1.9878,-1.9911,-1.9944,-1.9878,-1.9868,-1.9846,-1.977,-1.9641,-1.9723,-1.9651,-1.9328,-1.9182,-1.9035,-1.9318,-1.9158,-1.937,-1.9594,-1.9539,-1.9473,-1.9374,-1.9142,-1.9042,-1.8942,-1.8818,-1.8583,-1.8448,-1.8269,-1.8134,-1.7998,-1.7716,-1.7476,-1.7235,-1.7097,-1.6934,-1.7176,-1.7564,-1.7803,-1.7759,-1.7579,-1.7613,-1.751,-1.7417,-1.7358,-1.7314,-1.7332,-1.7141,-1.7028,-1.6867,-1.6547,-1.6217,-1.583,-1.5396,-1.4722,-1.442,-1.4064,-1.3827,-1.3701,-1.3439,-1.323,-1.3195,-1.3306,-1.3188,-1.2981,-1.2908,-1.2908,-1.2817,-1.2764,-1.2774,-1.2774,-1.2774,-1.2783,-1.2783,-1.2783,-1.2774,-1.2774,-1.274,-1.2764,-1.2764,-1.2764,-1.2764,-1.2764,-1.2798,-1.2803,-1.2856,-1.2849,-1.297,-1.3541,-1.3719,-1.3582,-1.3298,-1.2808,-1.236,-1.2007,-1.1662,-1.1381,-1.1306,-1.1327,-1.1362,-2.2078,-2.1392,-2.0643,-2.0032,-1.9458,-1.8931,-1.8717,-1.8717,-1.8908,-1.8942,-1.9042,-1.9308,-1.944,-1.9506,-1.9638,-1.9681,-1.9605,-1.9605,-1.9648,-1.9681,-1.9638,-1.9638,-1.9583,-1.9495,-1.9295,-1.8977,-1.8945,-1.9073,-1.9126,-1.9169,-1.9009,-1.9327,-1.9354,-1.9274,-1.9142,-1.9042,-1.8885,-1.8707,-1.8607,-1.8539,-1.8482,-1.8347,-1.81,-1.7818,-1.7579,-1.7407,-1.7235,-1.695,-1.6716,-1.6673,-1.6508,-1.6482,-1.6656,-1.6908,-1.7012,-1.7081,-1.7072,-1.7003,-1.6821,-1.6751,-1.6682,-1.6517,-1.6412,-1.6307,-1.621,-1.6035,-1.5731,-1.5289,-1.4778,-1.4162,-1.4084,-1.3791,-1.3601,-1.354,-1.3445,-1.3289,-1.3064,-1.2996,-1.2957,-1.2722,-1.2661,-1.2538,-1.2431,-1.2299,-1.2249,-1.2274,-1.2274,-1.2298,-1.2323,-1.2298,-1.2274,-1.2249,-1.2234,-1.2234,-1.2224,-1.2224,-1.2249,-1.2224,-1.2249,-1.2224,-1.2255,-1.224,-1.251,-1.2905,-1.3168,-1.3125,-1.2815,-1.2464,-1.2075,-1.1634,-1.1314,-1.0985,-1.0937,-1.0909,-1.0956,-2.1136,-2.0596,-1.9976,-1.9495,-1.9163,-1.8706,-1.8482,-1.8516,-1.8617,-1.864,-1.8707,-1.8908,-1.8985,-1.8985,-1.9119,-1.9185,-1.9208,-1.9308,-1.9341,-1.9341,-1.9341,-1.9274,-1.9185,-1.9108,-1.8895,-1.8602,-1.8493,-1.8403,-1.8478,-1.8413,-1.8569,-1.8658,-1.8808,-1.8841,-1.8774,-1.864,-1.8482,-1.8371,-1.8202,-1.809,-1.8056,-1.7964,-1.7691,-1.7348,-1.7141,-1.6968,-1.6682,-1.6377,-1.6211,-1.6132,-1.5912,-1.5771,-1.5806,-1.5956,-1.6202,-1.6482,-1.6586,-1.6517,-1.6368,-1.6333,-1.6263,-1.6053,-1.5877,-1.5744,-1.563,-1.5455,-1.5146,-1.4787,-1.4579,-1.4156,-1.4078,-1.3725,-1.3534,-1.3374,-1.328,-1.3111,-1.2955,-1.2935,-1.2758,-1.2526,-1.2315,-1.2149,-1.1999,-1.1891,-1.1772,-1.1744,-1.1778,-1.1819,-1.1843,-1.1843,-1.1828,-1.1778,-1.1778,-1.1728,-1.1753,-1.1753,-1.1703,-1.1703,-1.1703,-1.1694,-1.1669,-1.1703,-1.1769,-1.2008,-1.2239,-1.2474,-1.239,-1.2054,-1.1648,-1.1232,-1.0813,-1.0488,-1.0497,-1.0505,-1.0515,-2.0257,-1.9931,-1.9399,-1.9059,-1.8928,-1.8574,-1.8391,-1.8381,-1.8347,-1.8303,-1.8371,-1.8496,-1.8472,-1.8438,-1.8583,-1.8717,-1.8697,-1.8908,-1.8975,-1.8975,-1.8975,-1.8875,-1.8751,-1.8583,-1.8486,-1.8348,-1.8181,-1.7813,-1.7936,-1.7934,-1.7968,-1.8177,-1.8372,-1.8371,-1.8293,-1.8168,-1.8168,-1.8032,-1.7862,-1.7672,-1.7579,-1.7451,-1.722,-1.6864,-1.676,-1.656,-1.6237,-1.5929,-1.5761,-1.5611,-1.539,-1.5177,-1.5141,-1.5098,-1.5346,-1.5842,-1.6026,-1.6026,-1.5956,-1.585,-1.5702,-1.5442,-1.5257,-1.5056,-1.4808,-1.4536,-1.4372,-1.4188,-1.4068,-1.3935,-1.3647,-1.3502,-1.3251,-1.3043,-1.2873,-1.2758,-1.2681,-1.2625,-1.2597,-1.2327,-1.1991,-1.1871,-1.1826,-1.1635,-1.1567,-1.1473,-1.1515,-1.1402,-1.1418,-1.1452,-1.1427,-1.1377,-1.1326,-1.1251,-1.1251,-1.1276,-1.1226,-1.115,-1.1175,-1.1192,-1.1175,-1.115,-1.1251,-1.1318,-1.1469,-1.1664,-1.1643,-1.1593,-1.1134,-1.0674,-1.0223,-0.9985,-0.995,-0.9952,-0.9952,-1.9814,-1.9284,-1.9049,-1.8636,-1.8218,-1.8129,-1.8076,-1.8042,-1.792,-1.7774,-1.7852,-1.7842,-1.7842,-1.791,-1.8202,-1.8337,-1.8371,-1.8472,-1.8539,-1.8539,-1.8573,-1.8539,-1.8506,-1.8506,-1.8269,-1.81,-1.8007,-1.8166,-1.8072,-1.7938,-1.7995,-1.8121,-1.8031,-1.7964,-1.7818,-1.7691,-1.7608,-1.7573,-1.7539,-1.7426,-1.7235,-1.7081,-1.6864,-1.6612,-1.6368,-1.6105,-1.5894,-1.562,-1.5426,-1.5248,-1.5043,-1.4935,-1.49,-1.4756,-1.4713,-1.4883,-1.5098,-1.5303,-1.5275,-1.5213,-1.498,-1.4687,-1.4356,-1.396,-1.3747,-1.3533,-1.3407,-1.3299,-1.3292,-1.3266,-1.3084,-1.2777,-1.2512,-1.2429,-1.2391,-1.229,-1.2251,-1.2398,-1.235,-1.2241,-1.1932,-1.1881,-1.1861,-1.16,-1.1384,-1.1287,-1.1188,-1.1064,-1.0998,-1.1023,-1.1049,-1.0972,-1.0871,-1.0794,-1.0761,-1.0794,-1.0769,-1.065,-1.0667,-1.0718,-1.0641,-1.0616,-1.059,-1.0693,-1.082,-1.093,-1.098,-1.0836,-1.0501,-1.0145,-0.9717,-0.9523,-0.9417,-0.9399,-0.9408,-1.9312,-1.8968,-1.8763,-1.8482,-1.8187,-1.8168,-1.811,-1.7974,-1.7784,-1.7716,-1.7681,-1.7613,-1.7588,-1.7623,-1.7803,-1.7896,-1.7954,-1.8012,-1.8022,-1.8061,-1.8094,-1.8148,-1.8056,-1.8046,-1.792,-1.7896,-1.7769,-1.774,-1.7828,-1.7803,-1.776,-1.7823,-1.7779,-1.7632,-1.7407,-1.7245,-1.7107,-1.7003,-1.6874,-1.6795,-1.6691,-1.6586,-1.6482,-1.6333,-1.6035,-1.5823,-1.5611,-1.53,-1.507,-1.4892,-1.4685,-1.4513,-1.4333,-1.4181,-1.4101,-1.3992,-1.4137,-1.4382,-1.4677,-1.4641,-1.4395,-1.4084,-1.3758,-1.3416,-1.3014,-1.2766,-1.274,-1.2946,-1.2938,-1.2866,-1.2806,-1.2676,-1.2459,-1.2284,-1.2072,-1.2018,-1.1996,-1.2065,-1.2128,-1.2012,-1.1951,-1.1901,-1.1723,-1.1299,-1.1094,-1.1062,-1.0896,-1.0738,-1.064,-1.0624,-1.0598,-1.0573,-1.0437,-1.0334,-1.0308,-1.0334,-1.0334,-1.0257,-1.0257,-1.0257,-1.0136,-1.0084,-1.0076,-1.0017,-1.0061,-1.0185,-1.0307,-1.0164,-0.9874,-0.9578,-0.9243,-0.909,-0.8952,-0.8896,-0.8908,-1.8875,-1.8717,-1.8539,-1.8414,-1.8236,-1.8236,-1.8144,-1.8008,-1.7784,-1.7681,-1.7579,-1.7451,-1.7323,-1.7358,-1.7407,-1.7453,-1.7407,-1.7484,-1.7398,-1.7403,-1.7461,-1.7538,-1.7533,-1.7523,-1.7566,-1.7647,-1.7426,-1.7358,-1.7254,-1.7201,-1.7182,-1.7332,-1.7279,-1.7151,-1.7003,-1.683,-1.6656,-1.6508,-1.6377,-1.6237,-1.6132,-1.6096,-1.5991,-1.585,-1.5718,-1.5576,-1.5328,-1.5043,-1.4748,-1.4497,-1.4245,-1.4,-1.3746,-1.3637,-1.3528,-1.3419,-1.3448,-1.3593,-1.3884,-1.3985,-1.3882,-1.3558,-1.3085,-1.2596,-1.2356,-1.2131,-1.2071,-1.2303,-1.2476,-1.2561,-1.2641,-1.247,-1.2315,-1.2118,-1.1992,-1.1893,-1.1809,-1.1872,-1.191,-1.1849,-1.1788,-1.1803,-1.1533,-1.1001,-1.0778,-1.0794,-1.0635,-1.0381,-1.0296,-1.0239,-1.0213,-1.0187,-1.0069,-0.994,-0.9888,-0.9862,-0.9862,-0.9844,-0.9844,-0.9766,-0.9662,-0.9584,-0.9524,-0.9465,-0.9432,-0.9451,-0.9599,-0.9439,-0.9283,-0.9136,-0.8943,-0.8657,-0.8514,-0.8469,-0.8532,-1.8539,-1.8516,-1.8516,-1.8313,-1.8052,-1.8042,-1.8008,-1.7964,-1.7784,-1.7613,-1.7426,-1.7151,-1.7012,-1.6994,-1.7058,-1.7002,-1.6745,-1.6869,-1.6736,-1.6489,-1.6338,-1.672,-1.6892,-1.703,-1.7106,-1.7332,-1.7101,-1.6826,-1.6682,-1.6621,-1.6691,-1.6874,-1.6795,-1.6586,-1.6412,-1.6307,-1.6202,-1.6088,-1.6017,-1.585,-1.5674,-1.5568,-1.5497,-1.5346,-1.524,-1.5141,-1.4971,-1.4721,-1.4425,-1.4137,-1.3811,-1.3528,-1.3273,-1.3156,-1.3046,-1.2973,-1.2929,-1.3039,-1.3149,-1.331,-1.3143,-1.2699,-1.2245,-1.1873,-1.1772,-1.1414,-1.1305,-1.1599,-1.1905,-1.1916,-1.1946,-1.188,-1.1934,-1.187,-1.1783,-1.176,-1.1685,-1.1685,-1.1685,-1.1654,-1.1622,-1.1622,-1.1524,-1.1047,-1.0667,-1.0653,-1.0267,-1.0016,-0.9933,-0.987,-0.9844,-0.9818,-0.9706,-0.9595,-0.9484,-0.9465,-0.9472,-0.9453,-0.9427,-0.9297,-0.9166,-0.9087,-0.9106,-0.8975,-0.8949,-0.8903,-0.8856,-0.8834,-0.8824,-0.8833,-0.8671,-0.8305,-0.8213,-0.8214,-0.8347,-1.811,-1.8022,-1.8144,-1.8178,-1.8202,-1.8178,-1.8032,-1.7818,-1.7657,-1.7382,-1.7151,-1.6978,-1.6908,-1.6844,-1.6683,-1.6671,-1.6542,-1.6248,-1.6127,-1.6117,-1.613,-1.6219,-1.6392,-1.6426,-1.6543,-1.6796,-1.6541,-1.6491,-1.6594,-1.6254,-1.6132,-1.6246,-1.6342,-1.6246,-1.6079,-1.578,-1.563,-1.5559,-1.5551,-1.5409,-1.5346,-1.5185,-1.5114,-1.5034,-1.4748,-1.4677,-1.4541,-1.4289,-1.4,-1.3746,-1.3455,-1.3163,-1.29,-1.2783,-1.2673,-1.2569,-1.2562,-1.2562,-1.2636,-1.2806,-1.2825,-1.2423,-1.1992,-1.1696,-1.16,-1.1395,-1.1386,-1.1524,-1.1614,-1.1646,-1.1655,-1.1701,-1.1709,-1.1621,-1.1591,-1.1591,-1.156,-1.156,-1.1529,-1.1498,-1.1435,-1.1397,-1.1298,-1.1126,-1.0795,-1.0473,-1.0047,-0.9684,-0.959,-0.9498,-0.9446,-0.9401,-0.9316,-0.923,-0.9126,-0.908,-0.9054,-0.9008,-0.8982,-0.885,-0.8712,-0.8765,-0.8732,-0.8586,-0.846,-0.8427,-0.8396,-0.8377,-0.8358,-0.8366,-0.8165,-0.7879,-0.7859,-0.7969,-0.8075,-1.7769,-1.7647,-1.7769,-1.7964,-1.809,-1.8168,-1.8022,-1.7706,-1.7623,-1.7289,-1.6908,-1.6874,-1.676,-1.6617,-1.6335,-1.6154,-1.6061,-1.5716,-1.5541,-1.5466,-1.5473,-1.5644,-1.5718,-1.5779,-1.5864,-1.6127,-1.5948,-1.5833,-1.618,-1.5904,-1.5782,-1.5781,-1.5859,-1.5788,-1.5603,-1.5284,-1.5062,-1.4991,-1.4955,-1.4848,-1.4784,-1.4649,-1.4549,-1.4505,-1.4325,-1.4253,-1.4152,-1.3935,-1.3601,-1.3382,-1.309,-1.2856,-1.2636,-1.2489,-1.2452,-1.2342,-1.2305,-1.2305,-1.2378,-1.2462,-1.2576,-1.2375,-1.2168,-1.1971,-1.1899,-1.1739,-1.1639,-1.1804,-1.1725,-1.163,-1.163,-1.1659,-1.1643,-1.1591,-1.1498,-1.1466,-1.1435,-1.1404,-1.1404,-1.1373,-1.1303,-1.1209,-1.0937,-1.0812,-1.0523,-1.0156,-0.9707,-0.9397,-0.9253,-0.9159,-0.9047,-0.8975,-0.8896,-0.8817,-0.8745,-0.8692,-0.8613,-0.8461,-0.8441,-0.8388,-0.8335,-0.8362,-0.8282,-0.8076,-0.7975,-0.7955,-0.7877,-0.7809,-0.7836,-0.792,-0.7696,-0.748,-0.7572,-0.7671,-0.7728,-1.7461,-1.7495,-1.7505,-1.7588,-1.7706,-1.793,-1.7862,-1.7638,-1.7604,-1.7339,-1.6864,-1.6726,-1.6542,-1.6314,-1.6036,-1.5833,-1.5593,-1.521,-1.4956,-1.4894,-1.4958,-1.5056,-1.5145,-1.5254,-1.5323,-1.5505,-1.5313,-1.5195,-1.5546,-1.5274,-1.522,-1.5273,-1.5305,-1.524,-1.5196,-1.4999,-1.4721,-1.4469,-1.4433,-1.4217,-1.4036,-1.3935,-1.3899,-1.3899,-1.3819,-1.3746,-1.3681,-1.3528,-1.3236,-1.2936,-1.2753,-1.2562,-1.2335,-1.2342,-1.2342,-1.2335,-1.2335,-1.2335,-1.2335,-1.2335,-1.2455,-1.2583,-1.2454,-1.2389,-1.2486,-1.2301,-1.2011,-1.2245,-1.1929,-1.1759,-1.1714,-1.1692,-1.163,-1.1529,-1.1404,-1.1341,-1.131,-1.1216,-1.1185,-1.1153,-1.109,-1.1007,-1.0666,-1.0376,-1.0167,-0.9797,-0.9357,-0.9125,-0.9011,-0.8824,-0.8685,-0.86,-0.8527,-0.8342,-0.8268,-0.8221,-0.8135,-0.799,-0.7904,-0.7877,-0.783,-0.7803,-0.7702,-0.7542,-0.7521,-0.7499,-0.7365,-0.7192,-0.7207,-0.7204,-0.7302,-0.7225,-0.7313,-0.7317,-0.7312,-1.67,-1.67,-1.683,-1.6925,-1.7019,-1.7461,-1.7564,-1.7339,-1.7201,-1.6994,-1.6716,-1.6603,-1.6508,-1.6218,-1.5918,-1.5659,-1.5524,-1.5195,-1.493,-1.4908,-1.4885,-1.5002,-1.5079,-1.4953,-1.4935,-1.5067,-1.4778,-1.4567,-1.4979,-1.4757,-1.471,-1.4761,-1.4732,-1.4732,-1.4669,-1.4461,-1.4072,-1.4008,-1.3899,-1.3746,-1.3601,-1.3455,-1.3382,-1.3382,-1.3266,-1.3193,-1.32,-1.301,-1.2783,-1.2562,-1.2415,-1.2342,-1.2224,-1.2231,-1.2378,-1.2452,-1.2489,-1.2562,-1.2636,-1.2753,-1.282,-1.2887,-1.2911,-1.2842,-1.2896,-1.2897,-1.2776,-1.2617,-1.2325,-1.2176,-1.2114,-1.1788,-1.1621,-1.1404,-1.1303,-1.124,-1.1178,-1.0996,-1.0902,-1.0839,-1.0776,-1.0523,-1.0242,-1.0019,-0.9788,-0.9532,-0.9137,-0.8956,-0.8851,-0.8563,-0.8361,-0.8235,-0.8129,-0.7916,-0.7794,-0.7811,-0.7676,-0.7491,-0.7403,-0.7375,-0.7327,-0.7268,-0.7241,-0.716,-0.709,-0.702,-0.6847,-0.6652,-0.649,-0.6458,-0.6566,-0.6669,-0.6681,-0.6703,-0.672,-1.6132,-1.6158,-1.6254,-1.6359,-1.6508,-1.7047,-1.7176,-1.6994,-1.6786,-1.6586,-1.6438,-1.6438,-1.6307,-1.6053,-1.5755,-1.5613,-1.5569,-1.5217,-1.5098,-1.5098,-1.5089,-1.5118,-1.498,-1.4675,-1.4556,-1.458,-1.4193,-1.3935,-1.4299,-1.4371,-1.4429,-1.4382,-1.4201,-1.415,-1.4072,-1.3891,-1.3608,-1.3455,-1.3229,-1.3076,-1.2929,-1.282,-1.2746,-1.2746,-1.2673,-1.2599,-1.2562,-1.2452,-1.2342,-1.2224,-1.2187,-1.2231,-1.2231,-1.2342,-1.2489,-1.2636,-1.2709,-1.282,-1.2936,-1.2973,-1.3119,-1.3375,-1.3309,-1.3281,-1.3319,-1.3319,-1.3343,-1.3168,-1.2854,-1.2623,-1.2447,-1.2056,-1.177,-1.159,-1.13,-1.1237,-1.1059,-1.0902,-1.0618,-1.0555,-1.0364,-1.0079,-0.9811,-0.9629,-0.9438,-0.9175,-0.8908,-0.8791,-0.8634,-0.8388,-0.8127,-0.805,-0.7964,-0.7834,-0.765,-0.7494,-0.7306,-0.7016,-0.6935,-0.6937,-0.6783,-0.6729,-0.6756,-0.6756,-0.6625,-0.6468,-0.63,-0.6109,-0.5973,-0.5837,-0.5809,-0.5918,-0.6028,-0.6082,-0.6136,-1.5771,-1.5762,-1.5762,-1.5912,-1.6132,-1.6551,-1.6691,-1.6568,-1.6403,-1.6246,-1.6105,-1.6096,-1.6,-1.5728,-1.5377,-1.5326,-1.5436,-1.509,-1.5078,-1.5092,-1.5113,-1.5118,-1.4887,-1.4498,-1.4316,-1.3933,-1.3543,-1.3314,-1.3563,-1.3744,-1.3989,-1.4139,-1.3854,-1.3674,-1.3528,-1.3382,-1.3127,-1.2863,-1.2599,-1.2445,-1.2261,-1.2157,-1.2157,-1.2157,-1.212,-1.2077,-1.2077,-1.2077,-1.204,-1.2003,-1.204,-1.2268,-1.2452,-1.2599,-1.2746,-1.2863,-1.29,-1.3039,-1.3055,-1.3078,-1.3172,-1.3346,-1.3288,-1.3535,-1.3721,-1.3691,-1.3676,-1.3627,-1.3423,-1.3148,-1.2885,-1.252,-1.2134,-1.1784,-1.1403,-1.1203,-1.101,-1.0744,-1.0428,-1.0206,-0.9951,-0.9728,-0.9498,-0.9279,-0.9073,-0.8883,-0.8666,-0.8491,-0.8359,-0.8194,-0.7999,-0.797,-0.7888,-0.7832,-0.7602,-0.7273,-0.7027,-0.6735,-0.6604,-0.6533,-0.6363,-0.6219,-0.6224,-0.6201,-0.6064,-0.5918,-0.5782,-0.5618,-0.5481,-0.5371,-0.5325,-0.5399,-0.5563,-0.5563,-0.5618,-1.558,-1.5382,-1.5382,-1.5417,-1.5453,-1.563,-1.5912,-1.6342,-1.6307,-1.6175,-1.5867,-1.5903,-1.5682,-1.5374,-1.5273,-1.5258,-1.5243,-1.5201,-1.5159,-1.517,-1.5146,-1.5161,-1.4899,-1.448,-1.4188,-1.3775,-1.3297,-1.281,-1.2932,-1.3136,-1.3443,-1.3642,-1.3521,-1.3273,-1.301,-1.2856,-1.2636,-1.2415,-1.2157,-1.1966,-1.1811,-1.1744,-1.1781,-1.1744,-1.1744,-1.1744,-1.1781,-1.1892,-1.1892,-1.1855,-1.2224,-1.2489,-1.2335,-1.2636,-1.29,-1.3083,-1.3171,-1.3266,-1.3028,-1.3071,-1.3107,-1.3021,-1.2948,-1.3368,-1.3673,-1.3829,-1.3854,-1.3795,-1.3754,-1.3469,-1.3194,-1.2881,-1.2504,-1.2093,-1.1704,-1.1396,-1.1162,-1.0779,-1.0451,-1.0065,-0.9834,-0.954,-0.9303,-0.8947,-0.8752,-0.8603,-0.8404,-0.8207,-0.8101,-0.7971,-0.788,-0.785,-0.7738,-0.7618,-0.729,-0.6968,-0.6741,-0.6502,-0.6343,-0.6171,-0.5975,-0.5862,-0.577,-0.5665,-0.557,-0.5433,-0.5289,-0.5179,-0.5093,-0.5017,-0.4978,-0.5022,-0.5073,-0.5085,-0.5124,-1.5134,-1.4792,-1.4776,-1.4848,-1.4955,-1.5034,-1.5426,-1.5806,-1.5842,-1.5753,-1.5576,-1.5541,-1.5426,-1.524,-1.5223,-1.5215,-1.5207,-1.5209,-1.5201,-1.5192,-1.5161,-1.5128,-1.4895,-1.4437,-1.402,-1.3565,-1.3084,-1.2547,-1.2538,-1.2719,-1.3021,-1.3361,-1.3273,-1.29,-1.2599,-1.2335,-1.2114,-1.1929,-1.1781,-1.1632,-1.1558,-1.1484,-1.1446,-1.1484,-1.149,-1.1521,-1.1595,-1.1744,-1.1781,-1.1892,-1.2378,-1.2569,-1.2599,-1.2973,-1.2969,-1.3129,-1.3057,-1.2849,-1.2571,-1.2607,-1.2593,-1.2579,-1.2613,-1.2934,-1.3302,-1.3564,-1.3702,-1.3772,-1.3787,-1.3706,-1.3484,-1.3206,-1.2818,-1.241,-1.2046,-1.1685,-1.1312,-1.0909,-1.0503,-1.0094,-0.9746,-0.9477,-0.915,-0.8771,-0.8447,-0.8339,-0.8134,-0.7872,-0.7839,-0.788,-0.7818,-0.7745,-0.758,-0.7404,-0.7033,-0.6726,-0.6485,-0.6258,-0.6032,-0.5842,-0.5649,-0.5467,-0.537,-0.5219,-0.5078,-0.4987,-0.4912,-0.4851,-0.4803,-0.4708,-0.4574,-0.4564,-0.4591,-0.4608,-0.465,-1.4647,-1.4237,-1.417,-1.4418,-1.4609,-1.482,-1.4968,-1.5133,-1.5133,-1.5133,-1.5177,-1.5204,-1.5177,-1.5062,-1.5062,-1.5098,-1.5062,-1.5062,-1.5026,-1.5125,-1.5026,-1.4919,-1.4644,-1.4275,-1.3776,-1.3261,-1.2808,-1.2425,-1.2292,-1.245,-1.2761,-1.3098,-1.2826,-1.2489,-1.2231,-1.1966,-1.1781,-1.1595,-1.1595,-1.1521,-1.126,-1.1155,-1.1117,-1.1155,-1.1186,-1.1223,-1.1372,-1.1521,-1.1706,-1.2083,-1.2415,-1.268,-1.301,-1.3266,-1.3143,-1.2942,-1.2849,-1.2486,-1.2171,-1.2074,-1.2207,-1.227,-1.2438,-1.2612,-1.2868,-1.3251,-1.3419,-1.3572,-1.3555,-1.3552,-1.3347,-1.3238,-1.2969,-1.2672,-1.2378,-1.2034,-1.1686,-1.1256,-1.0808,-1.043,-1.0092,-0.9771,-0.939,-0.9047,-0.8553,-0.8249,-0.7884,-0.7619,-0.7512,-0.7636,-0.7584,-0.751,-0.7338,-0.7104,-0.6916,-0.6604,-0.6303,-0.6053,-0.5806,-0.5525,-0.5312,-0.5134,-0.4961,-0.4843,-0.4723,-0.4657,-0.4576,-0.4501,-0.4425,-0.4336,-0.4219,-0.4118,-0.4097,-0.41,-0.4186,-1.5172,-1.479,-1.4782,-1.4721,-1.461,-1.4632,-1.466,-1.4577,-1.4418,-1.4597,-1.4927,-1.4963,-1.4856,-1.4784,-1.4776,-1.4784,-1.4776,-1.4812,-1.4669,-1.4641,-1.4641,-1.4561,-1.4299,-1.3909,-1.3485,-1.3149,-1.2747,-1.2364,-1.2303,-1.2339,-1.2402,-1.2515,-1.2342,-1.2187,-1.1892,-1.1669,-1.1595,-1.1372,-1.1403,-1.1372,-1.1155,-1.1117,-1.1117,-1.1117,-1.1111,-1.1223,-1.1409,-1.1595,-1.1855,-1.2231,-1.2599,-1.2893,-1.32,-1.3236,-1.3035,-1.2657,-1.2516,-1.213,-1.177,-1.1606,-1.1717,-1.1784,-1.1919,-1.2155,-1.2447,-1.2814,-1.3083,-1.3193,-1.3288,-1.3302,-1.3295,-1.3208,-1.3143,-1.2883,-1.2675,-1.2359,-1.2053,-1.1607,-1.1162,-1.0801,-1.0489,-1.0107,-0.9712,-0.9243,-0.874,-0.8258,-0.7803,-0.7461,-0.7246,-0.7228,-0.7111,-0.7005,-0.6944,-0.6767,-0.6588,-0.6375,-0.6047,-0.5813,-0.5599,-0.5283,-0.5003,-0.4741,-0.4544,-0.4476,-0.4409,-0.4319,-0.4213,-0.4061,-0.3994,-0.3946,-0.3841,-0.3713,-0.3571,-0.3552,-0.3681,-1.518,-1.4777,-1.4754,-1.4734,-1.4638,-1.4532,-1.4462,-1.4425,-1.4242,-1.4245,-1.4497,-1.4533,-1.4461,-1.4425,-1.4461,-1.4497,-1.4533,-1.4497,-1.4497,-1.4425,-1.4253,-1.4173,-1.3894,-1.3609,-1.3271,-1.2949,-1.2463,-1.2191,-1.2156,-1.2133,-1.2092,-1.2031,-1.2003,-1.1892,-1.1595,-1.1558,-1.1484,-1.126,-1.1254,-1.1223,-1.1117,-1.1117,-1.1117,-1.1117,-1.1186,-1.1298,-1.1521,-1.1744,-1.2046,-1.2378,-1.2709,-1.2856,-1.3046,-1.3046,-1.2818,-1.2458,-1.2165,-1.1854,-1.1403,-1.1228,-1.1343,-1.1424,-1.1647,-1.196,-1.2444,-1.2783,-1.2783,-1.29,-1.3046,-1.3077,-1.3077,-1.3041,-1.302,-1.2863,-1.2784,-1.2607,-1.2301,-1.196,-1.152,-1.1083,-1.0787,-1.044,-1.0031,-0.9536,-0.907,-0.8764,-0.8231,-0.7622,-0.7342,-0.6894,-0.6716,-0.6576,-0.6539,-0.6309,-0.6075,-0.591,-0.5668,-0.5477,-0.5319,-0.5006,-0.464,-0.4335,-0.4128,-0.4106,-0.4043,-0.3956,-0.3855,-0.3714,-0.3607,-0.3563,-0.3432,-0.3299,-0.3149,-0.3009,-0.3107,-1.5045,-1.4643,-1.4643,-1.4646,-1.4667,-1.4416,-1.4434,-1.4462,-1.4173,-1.4021,-1.4065,-1.4065,-1.4065,-1.4173,-1.4245,-1.4325,-1.4361,-1.4353,-1.4353,-1.4209,-1.4101,-1.3884,-1.3674,-1.3491,-1.3071,-1.2636,-1.2165,-1.1968,-1.185,-1.1847,-1.1794,-1.1668,-1.1632,-1.1564,-1.1416,-1.1341,-1.1304,-1.1186,-1.1149,-1.1111,-1.1117,-1.1117,-1.1117,-1.1186,-1.126,-1.144,-1.1669,-1.1892,-1.2157,-1.2415,-1.268,-1.2746,-1.282,-1.282,-1.2523,-1.2196,-1.186,-1.1513,-1.1102,-1.0853,-1.1035,-1.1236,-1.1513,-1.1894,-1.2387,-1.2572,-1.2572,-1.2636,-1.279,-1.2826,-1.2826,-1.2783,-1.2769,-1.2762,-1.2718,-1.2675,-1.2412,-1.2141,-1.1721,-1.1295,-1.1024,-1.0706,-1.0308,-0.9838,-0.9443,-0.9125,-0.8656,-0.8088,-0.7518,-0.6934,-0.6519,-0.6346,-0.621,-0.5947,-0.5653,-0.5455,-0.5292,-0.5093,-0.4924,-0.4597,-0.4317,-0.4096,-0.3916,-0.3784,-0.3725,-0.361,-0.3484,-0.3366,-0.3263,-0.3147,-0.3021,-0.2871,-0.269,-0.2556,-0.2555,-1.5306,-1.5248,-1.524,-1.5094,-1.4823,-1.4548,-1.4423,-1.4291,-1.3822,-1.371,-1.3746,-1.371,-1.3775,-1.4101,-1.4137,-1.4173,-1.4145,-1.4137,-1.4036,-1.3899,-1.3746,-1.3528,-1.3309,-1.3119,-1.2785,-1.2365,-1.2016,-1.1834,-1.1691,-1.1689,-1.1636,-1.1484,-1.1446,-1.1378,-1.1229,-1.1155,-1.1149,-1.108,-1.1074,-1.1074,-1.1074,-1.1074,-1.1117,-1.1117,-1.1155,-1.126,-1.1446,-1.1626,-1.1855,-1.2157,-1.2415,-1.2482,-1.2489,-1.2475,-1.224,-1.1884,-1.152,-1.1262,-1.0943,-1.0657,-1.081,-1.1009,-1.133,-1.1709,-1.2124,-1.2447,-1.2437,-1.2409,-1.2489,-1.2452,-1.2452,-1.2305,-1.2254,-1.2291,-1.2291,-1.2248,-1.2063,-1.1872,-1.1624,-1.1353,-1.115,-1.09,-1.0625,-1.0126,-0.9625,-0.9225,-0.8613,-0.8078,-0.7691,-0.7049,-0.6387,-0.6185,-0.6013,-0.5686,-0.5458,-0.516,-0.496,-0.4761,-0.4531,-0.4264,-0.4064,-0.3928,-0.3761,-0.356,-0.3395,-0.3249,-0.3127,-0.3018,-0.2817,-0.2683,-0.2594,-0.2453,-0.2278,-0.2159,-0.2177]},{"header":{"parameterUnit":"m.s-1","parameterCategory":1,"la1":31.0,"la2":29.5877,"lo1":-88.7671,"lo2":-86.6584,"dy":0.0162,"dx":0.0185,"nx":115,"ny":88,"refTime":"2024-03-11T06:00:00:Z","depth":0,"parameterNumber":3,"parameterNumberName":"V-component_of_WINDS"},"data":[0.0,0.0,0.0,0.0,0.0,0.0,0.0,0.0,0.0,0.0,0.0,0.0,0.0,0.0,0.0,0.0,0.0,0.0,0.0,0.0,0.0,0.0,0.0,0.0,0.0,0.0,0.0,0.0,0.0,0.0,0.0,0.0,0.0,0.0,0.0,0.0,0.0,0.0,0.0,0.0,0.0,0.0,0.0,0.0,0.0,0.0,0.0,0.0,0.0,0.0,0.0,0.0,0.0,0.0,0.0,0.0,0.0,0.0,0.0,0.0,0.0,0.0,0.0,0.0,0.0,0.0,0.0,0.0,0.0,0.0,0.0,0.0,0.0,0.0,0.0,0.0,0.0,0.0,0.0,0.0,0.0,0.0,0.0,0.0,0.0,0.0,0.0,0.0,0.0,0.0,0.0,0.0,0.0,0.0,0.0,0.0,0.0,0.0,0.0,0.0,0.0,0.0,0.0,0.0,0.0,0.0,0.0,0.0,0.0,0.0,0.0,0.0,0.0,0.0,0.0,0.0,0.0,0.0,0.0,0.0,0.0,0.0,0.0,0.0,0.0,0.0,0.0,0.0,0.0,0.0,0.0,0.0,0.0,0.0,0.0,0.0,0.0,0.0,0.0,0.0,0.0,0.0,0.0,0.0,0.0,0.0,0.0,0.0,0.0,0.0,0.0,0.0,0.0,0.0,0.0,0.0,0.0,0.0,0.0,0.0,0.0,0.0,0.0,0.0,0.0,0.0,0.0,0.0,0.0,0.0,0.0,0.0,0.0,0.0,0.0,0.0,0.0,0.0,0.0,0.0,0.0,0.0,0.0,0.0,0.0,0.0,0.0,0.0,0.0,0.0,0.0,0.0,0.0,0.0,0.0,0.0,0.0,0.0,0.0,0.0,0.0,0.0,0.0,0.0,0.0,0.0,0.0,0.0,0.0,0.0,0.0,0.0,0.0,0.0,0.0,0.0,0.0,0.0,0.0,0.0,0.0,0.0,0.0,0.0,0.0,0.0,0.0,0.0,0.0,0.0,0.0,0.0,0.0,0.0,0.0,0.0,0.0,0.0,0.0,0.0,0.0,0.0,0.0,0.0,0.0,0.0,0.0,0.0,0.0,0.0,0.0,0.0,0.0,0.0,0.0,0.0,0.0,0.0,0.0,0.0,0.0,0.0,0.0,0.0,0.0,0.0,0.0,0.0,0.0,0.0,0.0,0.0,0.0,0.0,0.0,0.0,0.0,0.0,0.0,0.0,0.0,0.0,0.0,0.0,0.0,0.0,0.0,0.0,0.0,0.0,0.0,0.0,0.0,0.0,0.0,0.0,0.0,0.0,0.0,0.0,0.0,0.0,0.0,0.0,0.0,0.0,0.0,0.0,0.0,0.0,0.0,0.0,0.0,0.0,0.0,0.0,0.0,0.0,0.0,0.0,0.0,0.0,0.0,0.0,0.0,0.0,0.0,0.0,0.0,0.0,0.0,0.0,0.0,0.0,0.0,0.0,0.0,0.0,0.0,0.0,0.0,0.0,0.0,0.0,0.0,0.0,0.0,0.0,0.0,0.0,0.0,0.0,0.0,0.0,0.0,0.0,0.0,0.0,0.0,0.0,0.0,0.0,0.0,0.0,0.0,0.0,0.0,0.0,0.0,0.0,0.0,0.0,0.0,0.0,0.0,0.0,0.0,0.0,0.0,0.0,0.0,0.0,0.0,0.0,0.0,0.0,0.0,0.0,0.0,0.0,0.0,0.0,0.0,0.0,0.0,0.0,0.0,0.0,0.0,0.0,0.0,0.0,0.0,0.0,0.0,0.0,0.0,0.0,0.0,0.0,0.0,0.0,0.0,0.0,0.0,0.0,0.0,0.0,0.0,0.0,0.0,0.0,0.0,0.0,0.0,0.0,0.0,0.0,0.0,0.0,0.0,0.0,0.0,0.0,0.0,0.0,0.0,0.0,0.0,0.0,0.0,0.0,0.0,0.0,0.0,0.0,0.0,0.0,0.0,0.0,0.0,0.0,0.0,0.0,0.0,0.0,0.0,0.0,0.0,0.0,0.0,0.0,0.0,0.0,0.0,0.0,0.0,0.0,0.0,0.0,0.0,0.0,0.0,0.0,0.0,0.0,0.0,0.0,0.0,0.0,0.0,0.0,0.0,0.0,0.0,0.0,0.0,0.0,0.0,0.0,0.0,0.0,0.0,0.0,0.0,0.0,0.0,0.0,0.0,0.0,0.0,0.0,0.0,0.0,0.0,0.0,0.0,0.0,0.0,0.0,0.0,0.0,0.0,0.0,0.0,0.0,0.0,0.0,0.0,0.0,0.0,0.0,0.0,0.0,0.0,0.0,0.0,0.0,0.0,0.0,0.0,0.0,0.0,0.0,0.0,0.0,0.0,0.0,0.0,0.0,0.0,0.0,0.0,0.0,0.0,0.0,0.0,0.0,0.0,0.0,0.0,0.0,0.0,0.0,0.0,0.0,0.0,0.0,0.0,0.0,0.0,0.0,0.0,0.0,0.0,0.0,0.0,0.0,0.0,0.0,0.0,0.0,0.0,0.0,0.0,0.0,0.0,0.0,0.0,0.0,0.0,0.0,0.0,0.0,0.0,0.0,0.0,0.0,0.0,0.0,0.0,0.0,0.0,0.0,0.0,0.0,0.0,0.0,0.0,0.0,0.0,0.0,0.0,0.0,0.0,0.0,0.0,0.0,0.0,0.0,0.0,0.0,0.0,0.0,0.0,0.0,0.0,0.0,0.0,0.0,0.0,0.0,0.0,0.0,0.0,0.0,0.0,0.0,0.0,0.0,0.0,0.0,0.0,0.0,0.0,0.0,0.0,0.0,0.0,0.0,0.0,0.0,0.0,0.0,0.0,0.0,0.0,0.0,0.0,0.0,0.0,0.0,0.0,0.0,0.0,0.0,0.0,0.0,0.0,0.0,0.0,0.0,0.0,0.0,0.0,0.0,0.0,0.0,0.0,0.0,0.0,0.0,0.0,0.0,0.0,0.0,0.0,0.0,0.0,0.0,0.0,0.0,0.0,0.0,0.0,0.0,0.0,0.0,0.0,0.0,0.0,0.0,0.0,0.0,0.0,0.0,0.0,0.0,0.0,0.0,0.0,0.0,0.0,0.0,0.0,0.0,0.0,0.0,0.0,0.0,0.0,0.0,0.0,0.0,0.0,0.0,0.0,0.0,0.0,0.0,0.0,0.0,0.0,0.0,0.0,0.0,0.0,0.0,0.0,0.0,0.0,0.0,0.0,0.0,0.0,0.0,0.0,0.0,0.0,0.0,0.0,0.0,0.0,0.0,0.0,0.0,0.0,0.0,0.0,0.0,0.0,0.0,0.0,0.0,0.0,0.0,0.0,0.0,0.0,0.0,0.0,0.0,0.0,0.0,0.0,0.0,0.0,0.0,0.0,0.0,0.0,0.0,0.0,0.0,0.0,0.0,0.0,0.0,0.0,0.0,0.0,0.0,0.0,0.0,0.0,0.0,0.0,0.0,0.0,0.0,0.0,0.0,0.0,0.0,0.0,0.0,0.0,0.0,0.0,0.0,0.0,0.0,0.0,0.0,0.0,0.0,0.0,0.0,0.0,0.0,0.0,0.0,0.0,0.0,0.0,0.0,0.0,0.0,0.0,0.0,0.0,0.0,0.0,0.0,0.0,0.0,0.0,0.0,0.0,0.0,0.0,0.0,0.0,0.0,0.0,0.0,0.0,0.0,0.0,0.0,0.0,0.0,0.0,0.0,0.0,0.0,0.0,0.0,0.0,0.0,0.0,0.0,0.0,0.0,0.0,0.0,0.0,0.0,0.0,0.0,0.0,0.0,0.0,0.0,0.0,0.0,0.0,0.0,0.0,0.0,0.0,0.0,0.0,0.0,0.0,0.0,0.0,0.0,0.0,0.0,0.0,0.0,0.0,0.0,0.0,0.0,0.0,0.0,0.0,0.0,0.0,0.0,0.0,0.0,0.0,0.0,0.0,0.0,0.0,0.0,0.0,0.0,0.0,0.0,0.0,0.0,0.0,0.0,0.0,0.0,0.0,0.0,0.0,0.0,0.0,0.0,0.0,0.0,0.0,0.0,0.0,0.0,0.0,0.0,0.0,0.0,0.0,0.0,0.0,0.0,0.0,0.0,0.0,0.0,0.0,0.0,0.0,0.0,0.0,0.0,0.0,0.0,0.0,0.0,0.0,0.0,0.0,0.0,0.0,0.0,0.0,0.0,0.0,0.0,0.0,0.0,0.0,0.0,0.0,0.0,0.0,0.0,0.0,0.0,0.0,0.0,-0.3772,0.0,0.0,0.0,0.0,0.0,0.0,0.0,0.0,0.0,0.0,0.0,0.0,0.0,0.0,0.0,0.0,0.0,0.0,0.0,0.0,0.0,0.0,0.0,0.0,0.0,0.0,0.0,0.0,0.0,0.0,0.0,0.0,0.0,0.0,0.0,0.0,0.0,0.0,0.0,0.0,0.0,0.0,0.0,0.0,0.0,0.0,0.0,0.0,0.0,0.0,0.0,0.0,0.0,0.0,0.0,0.0,0.0,0.0,0.0,0.0,0.0,0.0,0.0,0.0,0.0,0.0,0.0,0.0,0.0,0.0,0.0,0.0,0.0,0.0,0.0,0.0,0.0,0.0,0.0,0.0,0.0,0.0,0.0,0.0,0.0,0.0,0.0,0.0,0.0,0.0,0.0,0.0,0.0,0.0,0.0,0.0,0.0,0.0,0.0,0.0,0.0,0.0,0.0,0.0,0.0,0.0,0.0,0.0,0.0,0.0,-0.1229,-0.1973,-0.2537,-0.3206,-0.3945,0.0,0.0,0.0,0.0,0.0,0.0,0.0,0.0,0.0,0.0,0.0,0.0,0.0,0.0,0.0,0.0,0.0,0.0,0.0,0.0,0.0,0.0,0.0,0.0,0.0,0.0,0.0,0.0,0.0,0.0,0.0,0.0,0.0,0.0,0.0,0.0,0.0,0.0,0.0,0.0,0.0,0.0,0.0,0.0,0.0,0.0,0.0,0.0,0.0,0.0,0.0,0.0,0.0,0.0,0.0,0.0,0.0,0.0,0.0,0.0,0.0,0.0,0.0,0.0,0.0,0.0,0.0,0.0,0.0,0.0,0.0,0.0,0.0,0.0,0.0,0.0,0.0,0.0,0.0,0.0,0.0,0.0,0.0,0.0,0.0,0.0,0.0,0.0,0.0,0.0,0.0,0.0,0.0,0.0,0.0,0.0,0.0,0.0,0.0,0.0,0.0,0.0,0.0,0.0,0.0,0.0,0.0,0.0,0.0,0.0,0.0,0.0,-0.2615,-0.3394,-0.4296,0.0,0.0,0.0,0.0,0.0,0.0,0.0,0.0,0.0,0.0,0.0,0.0,0.0,0.0,0.0,0.0,0.0,0.0,0.0,0.0,0.0,0.0,0.0,0.0,0.0,0.0,0.0,0.0,0.0,0.0,0.0,0.0,0.0,0.0,0.0,0.0,0.0,0.0,0.0,0.0,0.0,0.0,0.0,0.0,0.0,0.0,0.0,0.0,0.0,0.0,0.0,0.0,0.0,0.0,0.0,0.0,0.0,0.0,0.0,0.0,0.0,0.0,0.0,0.0,0.0,0.0,0.0,0.0,0.0,0.0,0.0,0.0,0.0,0.0,0.0,0.0,0.0,0.0,0.0,0.0,0.0,0.0,0.0,0.0,0.0,0.0,0.0,0.0,0.0,0.0,0.0,0.0,0.0,0.0,0.0,0.0,0.0,0.0,0.0,0.0,0.0,0.0,0.0,0.0,0.0,0.0,0.0,0.0,0.0,0.0,-0.112,-0.1987,-0.2702,0.0,-0.4931,0.0,0.0,0.0,0.0,0.0,0.0,0.0,0.0,0.0,0.0,0.0,0.0,0.0,0.0,0.0,0.0,0.0,0.0,0.0,0.0,0.0,0.0,0.0,0.0,0.0,0.0,0.0,0.0,0.0,0.0,0.0,0.0,0.0,0.0,0.0,0.0,0.0,0.0,0.0,0.0,0.0,0.0,0.0,0.0,0.0,0.0,0.0,0.0,0.0,0.0,0.0,0.0,0.0,0.0,0.0,0.0,0.0,0.0,0.0,0.0,0.0,0.0,0.0,0.0,0.0,0.0,0.0,0.0,0.0,0.0,0.0,0.0,0.0,0.0,0.0,0.0,0.0,0.0,0.0,0.0,0.0,0.0,0.0,0.0,0.0,0.0,0.0,0.0,0.0,0.0,0.0,0.0,0.0,0.0,0.0,0.0,0.0,0.0,0.0,0.0,0.0,0.0,0.0,0.0,0.0,0.0,0.0,0.0,0.0,0.0,-0.1087,-0.1764,-0.312,-0.4255,0.0,0.0,0.0,0.0,0.0,0.0,0.0,0.0,0.0,0.0,0.0,0.0,0.0,0.0,0.0,0.0,0.0,0.0,0.0,0.0,0.0,0.0,0.0,0.0,0.0,0.0,0.0,0.0,0.0,0.0,0.0,0.0,0.0,0.0,0.0,0.0,0.0,0.0,0.0,0.0,0.0,0.0,0.0,0.0,0.0,0.0,0.0,0.0,0.0,0.0,0.0,0.0,0.0,0.0,0.0,0.0,0.0,0.0,0.0,0.0,0.0,0.0,0.0,0.0,0.0,0.0,0.0,0.0,0.0,0.0,0.0,0.0,0.0,0.0,0.0,0.0,0.0,0.0,0.0,0.0,0.0,0.0,0.0,0.0,0.0,0.0,0.0,0.0,0.0,0.0,0.0,0.0,0.0,0.0,0.0,0.0,0.0,0.0,0.0,0.0,0.0,0.0,0.0,0.0,0.0,0.0,0.0,0.0,0.0,0.0,-0.0175,-0.1077,-0.2013,-0.3613,-0.4718,-0.5173,0.0,0.0,0.0,0.0,0.0,0.0,0.0,0.0,0.0,0.0,0.0,0.0,0.0,0.0,0.0,0.0,0.0,0.0,0.0,0.0,0.0,0.0,0.0,0.0,0.0,0.0,0.0,0.0,0.0,0.0,0.0,0.0,0.0,0.0,0.0,0.0,0.0,0.0,0.0,0.0,0.0,0.0,0.0,0.0,0.0,0.0,0.0,0.0,0.0,0.0,0.0,0.0,0.0,0.0,0.0,0.0,0.0,0.0,0.0,0.0,0.0,0.0,0.0,0.0,0.0,0.0,0.0,0.0,0.0,0.0,0.0,0.0,0.0,0.0,0.0,0.0,0.0,0.0,0.0,0.0,0.0,0.0,0.0,0.0,0.0,0.0,0.0,0.0,0.0,0.0,0.0,0.0,0.0,0.0,0.0,0.0,0.0,0.0,0.0,0.0,0.0,0.0,0.0,0.0,0.0,0.0,0.0,0.0,0.0881,0.0059,-0.1176,-0.2874,-0.414,-0.4971,0.0,0.0,0.0,0.0,0.0,0.0,0.0,0.0,0.0,0.0,0.0,0.0,0.0,0.0,0.0,0.0,0.0,0.0,0.0,0.0,0.0,0.0,0.0,0.0,0.0,0.0,0.0,0.0,0.0,0.0,0.0,0.0,0.0,0.0,0.0,0.0,0.0,0.0,0.0,0.0,0.0,0.0,0.0,0.0,0.0,0.0,0.0,0.0,0.0,0.0,0.0,0.0,0.0,0.0,0.0,0.0,0.0,0.0,0.0,0.0,0.0,0.0,0.0,0.0,0.0,0.0,0.0,0.0,0.0,0.0,0.0,0.0,0.0,0.0,0.0,0.0,0.0,0.0,0.0,0.0,0.0,0.0,0.0,0.0,0.0,0.0,0.0,0.0,0.0,0.0,0.0,0.0,0.0,0.0,0.0,0.0,0.0,0.0,0.0,0.0,0.0,0.0,0.0,0.0,0.0,0.0,0.0,0.0,0.0,0.0883,-0.039,-0.1742,-0.3166,-0.4154,-0.495,0.0,0.0,0.0,0.0,0.0,0.0,0.0,0.0,0.0,0.0,0.0,0.0,0.0,0.0,0.0,0.0,0.0,0.0,0.0,0.0,0.0,0.0,0.0,0.0,0.0,0.0,0.0,0.0,0.0,0.0,0.0,0.0,0.0,0.0,0.0,0.0,0.0,0.0,0.0,0.0,0.0,0.0,0.0,0.0,0.0,0.0,0.0,0.0,0.0,0.0,0.0,0.0,0.0,0.0,0.0,0.0,0.0,0.0,0.0,0.0,0.0,0.0,0.0,0.0,0.0,0.0,0.0,0.0,0.0,0.0,0.0,0.0,0.0,0.0,0.0,0.0,0.0,0.0,0.0,0.0,0.0,0.0,0.0,0.0,0.0,0.0,0.0,0.0,0.0,0.0,0.0,0.0,0.0,0.0,0.0,0.0,0.0,0.0,0.0,0.0,0.0,0.0,0.0,0.0,0.0,0.0,0.0,0.0,0.0,0.0515,0.0,-0.2259,-0.333,-0.4242,-0.5081,0.0,0.0,0.0,0.0,0.0,0.0,0.0,0.0,0.0,0.0,0.0,0.0,0.0,0.0,0.0,0.0,0.0,0.0,0.0,0.0,0.0,0.0,0.0,0.0,0.0,0.0,0.0,0.0,0.0,0.0,0.0,0.0,0.0,0.0,0.0,0.0,0.0,0.0,0.0,0.0,0.0,0.0,0.0,0.0,0.0,0.0,0.0,0.0,0.0,0.0,0.0,0.0,0.0,0.0,0.0,0.0,0.0,0.0,0.0,0.0,0.0,0.0,0.0,0.0,0.0,0.0,0.0,0.0,0.0,0.0,0.0,0.0,0.0,0.0,0.0,0.0,0.0,0.0,0.0,0.0,0.0,0.0,0.0,0.0,0.0,0.0,0.0,0.0,0.0,0.0,0.0,0.0,0.0,0.0,0.0,0.0,0.0,0.0,0.0,0.0,0.0,0.0,0.0,0.0,0.0,0.0,0.0,0.0,0.1275,-0.0257,-0.1553,-0.2649,-0.3508,-0.4497,-0.5434,0.0,0.0,0.0,0.0,0.0,0.0,0.0,0.0,0.0,0.0,0.0,0.0,0.0,0.0,0.0,0.0,0.0,0.0,0.0,0.0,0.0,0.0,0.0,0.0,0.0,0.0,0.0,0.0,0.0,0.0,0.0,0.0,0.0,0.0,0.0,0.0,0.0,0.0,0.0,0.0,0.0,0.0,0.0,0.0,0.0,0.0,0.0,0.0,0.0,0.0,0.0,0.0,0.0,0.0,0.0,0.0,0.0,0.0,0.0,0.0,0.0,0.0,0.0,0.0,0.0,0.0,0.0,0.0,0.0,0.0,0.0,0.0,0.0,0.0,0.0,0.0,0.0,0.0,0.0,0.0,0.0,0.0,0.0,0.0,0.0,0.0,0.0,0.0,0.0,0.0,0.0,0.0,0.0,0.0,0.0,0.0,0.0,0.0,0.0,0.0,0.0,0.0,0.0,0.0,0.0,0.0,0.0,0.0,0.0,-0.0994,-0.2108,-0.3158,-0.4152,-0.5225,-0.5997,0.0,0.0,0.0,0.0,0.0,0.0,0.0,0.0,0.0,0.0,0.0,0.0,0.0,0.0,0.0,0.0,0.0,0.0,0.0,0.0,0.0,0.0,0.0,0.0,0.0,0.0,0.0,0.0,0.0,0.0,0.0,0.0,0.0,0.0,0.0,0.0,0.0,0.0,0.0,0.0,0.0,0.0,0.0,0.0,0.0,0.0,0.0,0.0,0.0,0.0,0.0,0.0,0.0,0.0,0.0,0.0,0.0,0.0,0.0,0.0,0.0,0.0,0.0,0.0,0.0,0.0,0.0,0.0,0.0,0.0,0.0,0.0,0.0,0.0,0.0,0.0,0.0,0.0,0.0,0.0,0.0,0.0,0.0,0.0,0.0,0.0,0.0,0.0,0.0,0.0,0.0,0.0,0.0,0.0,0.0,0.0,0.0,0.0,0.0,0.0,0.0,0.0,0.0,0.0,0.0,0.0,0.0,0.0,0.0,-0.2167,-0.305,-0.4031,-0.5093,-0.5963,-0.6619,-0.7072,0.0,0.0,0.0,0.0,0.0,0.0,0.0,0.0,0.0,0.0,0.0,0.0,0.0,0.0,0.0,0.0,0.0,0.0,0.0,0.0,0.0,0.0,0.0,0.0,0.0,0.0,0.0,0.0,0.0,0.0,0.0,0.0,0.0,0.0,0.0,0.0,0.0,0.0,0.0,0.0,0.0,0.0,0.0,0.0,0.0,0.0,0.0,0.0,0.0,0.0,0.0,0.0,0.0,0.0,0.0,0.0,0.0,0.0,0.0,0.0,0.0,0.0,0.0,0.0,0.0,0.0,0.0,0.0,0.0,0.0,0.0,0.0,0.0,0.0,0.0,0.0,0.0,0.0,0.0,0.0,0.0,0.0,0.0,0.0,0.0,0.0,0.0,0.0,0.0,0.0,0.0,0.0,0.0,0.0,0.0,0.0,0.0,0.0,0.0,0.0,0.0,0.0,0.0,0.0,0.0,0.0,0.0,0.0,-0.3697,-0.4333,-0.5216,-0.6251,-0.6771,-0.7293,0.0,0.0,0.0,0.0,0.0,0.0,0.0,0.0,0.0,0.0,0.0,0.0,0.0,0.0,0.0,0.0,0.0,0.0,0.0,0.0,0.0,0.0,0.0,0.0,0.0,0.0,0.0,0.0,0.0,0.0,0.0,0.0,0.0,0.0,0.0,0.0,0.0,0.0,0.0,0.0,0.0,0.0,0.0,0.0,0.0,0.0,0.0,0.0,0.0,0.0,0.0,0.0,0.0,0.0,0.0,0.0,0.0,0.0,0.0,0.0,0.0,0.0,0.0,0.0,0.0,0.0,0.0,0.0,0.0,0.0,0.0,0.0,0.0,0.0,0.0,0.0,0.0,0.0,0.0,0.0,0.0,0.0,0.0,0.0,0.0,0.0,0.0,0.0,0.0,0.0,0.0,0.0,0.0,0.0,0.0,0.0,0.0,0.0,0.0,0.0,0.0,0.0,0.0,0.0,0.0,0.0,0.0,0.0,0.0,-0.4169,-0.5814,-0.6973,-0.7601,-0.8237,-0.8541,0.0,0.0,0.0,0.0,0.0,0.0,0.0,0.0,0.0,0.0,0.0,0.0,0.0,0.0,0.0,0.0,0.0,0.0,0.0,0.0,0.0,0.0,0.0,0.0,0.0,0.0,0.0,0.0,0.0,0.0,0.0,0.0,0.0,0.0,0.0,0.0,0.0,0.0,0.0,0.0,0.0,0.0,0.0,0.0,0.0,0.0,0.0,0.0,0.0,0.0,0.0,0.0,0.0,0.0,0.0,0.0,0.0,0.0,0.0,0.0,0.0,0.0,0.0,0.0,0.0,0.0,0.0,0.0,0.0,0.0,0.0,0.0,0.0,0.0,0.0,0.0,0.0,0.0,0.0,0.0,0.0,0.0,0.0,0.0,0.0,0.0,0.0,0.0,0.0,0.0,0.0,0.0,0.0,0.0,0.0,0.0,0.0,0.0,0.0,0.0,0.0,0.0,0.0,0.0,0.0,0.0,0.0,0.0,-0.2654,-0.4858,-0.6815,-0.8345,-0.9404,-0.9478,-0.9428,0.0,0.0,0.0,0.0,0.0,0.0,0.0,0.0,0.0,0.0,0.0,0.0,0.0,0.0,0.0,0.0,0.0,0.0,0.0,0.0,0.0,0.0,0.0,0.0,0.0,0.0,0.0,0.0,0.0,0.0,0.0,0.0,0.0,0.0,0.0,0.0,0.0,0.0,0.0,0.0,0.0,0.0,0.0,0.0,0.0,0.0,0.0,0.0,0.0,0.0,0.0,0.0,0.0,0.0,0.0,0.0,0.0,0.0,0.0,0.0,0.0,0.0,0.0,0.0,0.0,0.0,0.0,0.0,0.0,0.0,0.0,0.0,0.0,0.0,0.0,0.0,0.0,0.0,0.0,0.0,0.0,0.0,0.0,0.0,0.0,0.0,0.0,0.0,0.0,0.0,0.0,0.0,0.0,0.0,0.0,0.0,0.0,0.0,0.0,0.0,0.0,0.0,0.0,0.0,0.0,0.0,0.0,0.0,-0.3093,-0.5546,-0.7432,-0.932,-1.1166,-1.0488,-1.0166,0.0,0.0,0.0,0.0,0.0,0.0,0.0,0.0,0.0,0.0,0.0,0.0,0.0,0.0,0.0,0.0,0.0,0.0,0.0,0.0,0.0,0.0,0.0,0.0,0.0,0.0,0.0,0.0,0.0,0.0,0.0,0.0,0.0,0.0,0.0,0.0,0.0,0.0,0.0,0.0,0.0,0.0,0.0,0.0,0.0,0.0,0.0,0.0,0.0,0.0,0.0,0.0,0.0,0.0,0.0,0.0,0.0,0.0,0.0,0.0,0.0,0.0,0.0,0.0,0.0,0.0,0.0,0.0,0.0,0.0,0.0,0.0,0.0,0.0,0.0,0.0,0.0,0.0,0.0,0.0,0.0,0.0,0.0,0.0,0.0,0.0,0.0,0.0,0.0,0.0,0.0,0.0,0.0,0.0,0.0,0.0,0.0,0.0,0.0,0.0,0.0,0.0,0.0,0.0,0.0,0.0,0.0,0.0,-0.3157,-0.5549,-0.7496,-0.9313,-1.0995,-1.1089,-1.1044,0.0,0.0,0.0,0.0,0.0,0.0,0.0,0.0,0.0,0.0,0.0,0.0,0.0,0.0,0.0,0.0,0.0,0.0,0.0,0.0,0.0,0.0,0.0,0.0,0.0,0.0,0.0,0.0,0.0,0.0,0.0,0.0,0.0,0.0,0.0,0.0,0.0,0.0,0.0,0.0,0.0,0.0,0.0,0.0,0.0,0.0,0.0,0.0,-0.3842,0.0,0.0,0.0,0.0,0.0,0.0,0.0,0.0,0.0,0.0,0.0,0.0,0.0,0.0,0.0,0.0,0.0,0.0,0.0,0.0,0.0,0.0,0.0,0.0,0.0,0.0,0.0,0.0,0.0,0.0,0.0,0.0,0.0,0.0,0.0,0.0,0.0,0.0,0.0,0.0,0.0,0.0,0.0,0.0,0.0,0.0,0.0,0.0,0.0,0.0,0.0,0.0,0.0,0.0,0.0,0.0,0.0,0.0,0.0,-0.3391,-0.5681,-0.7533,-0.9327,-1.0918,-1.12,-1.1312,0.0,0.0,0.0,0.0,0.0,0.0,0.0,0.0,0.0,0.0,0.0,0.0,0.0,0.0,0.0,0.0,0.0,0.0,0.0,0.0,0.0,0.0,0.0,0.0,0.0,0.0,0.0,0.0,0.0,0.0,0.0,0.0,0.0,0.0,0.0,0.0,0.0,0.0,0.0,0.0,0.0,0.0,0.0,0.0,0.0,0.0,0.0,0.0,0.0,0.0,0.0,0.0,0.0,0.0,0.0,0.0,0.0,0.0,0.0,0.0,0.0,0.0,0.0,0.0,0.0,0.0,0.0,0.0,0.0,0.0,0.0,0.0,0.0,0.0,0.0,0.0,0.0,0.0,0.0,0.0,0.0,0.0,0.0,0.0,0.0,0.0,0.0,0.0,0.0,0.0,0.0,0.0,0.0,0.0,0.0,0.0,0.0,0.0,0.0,0.0,0.0,0.0,0.0,0.0,0.0,0.0,0.0,-0.1369,-0.3609,-0.5729,-0.749,-0.9152,-1.0717,-1.0952,-1.115,-1.1391,0.0,0.0,0.0,0.0,0.0,0.0,0.0,0.0,0.0,0.0,0.0,0.0,0.0,0.0,0.0,0.0,0.0,0.0,0.0,0.0,0.0,0.0,0.0,0.0,0.0,0.0,0.0,0.0,0.0,0.0,0.0,0.0,0.0,0.0,0.0,0.0,0.0,0.0,0.3439,0.2581,0.0,0.0,0.0,0.0,0.0,0.0,0.0,0.0,-0.4584,0.0,0.0,0.0,0.0,0.0,0.0,0.0,0.0,0.0,0.0,0.0,0.0,0.0,0.0,0.0,0.0,0.0,0.0,0.0,0.0,0.0,0.0,0.0,0.0,0.0,0.0,0.0,0.0,0.0,0.0,0.0,0.0,0.0,0.0,0.0,0.0,0.0,0.0,0.0,0.0,0.0,0.0,0.0,0.0,0.0,0.0,0.0,0.0,0.0,0.0,0.0,0.0,0.0,0.0,0.0,0.0,0.0653,-0.1275,-0.3255,-0.5282,-0.702,-0.854,-0.9763,-1.016,-1.043,-1.0576,0.0,0.0,0.0,0.0,0.0,0.0,0.0,0.0,0.0,0.0,0.0,0.0,0.0,0.0,0.0,0.0,0.0,0.0,0.0,0.0,0.0,0.0,0.0,0.0,0.0,0.0,0.0,0.0,0.0,0.0,0.0,0.0,0.0,0.0,0.0,0.0,0.0,0.0,0.0,0.2844,0.2166,0.0,0.0,0.0,0.0,0.0,0.0,0.0,0.0,-0.4989,0.0,0.0,0.0,0.0,0.0,0.0,0.0,0.0,0.0,0.0,0.0,0.0,0.0,0.0,0.0,0.0,0.0,0.0,0.0,0.0,0.0,0.0,0.0,0.0,0.0,0.0,0.0,0.0,0.0,0.0,0.0,0.0,0.0,0.0,0.0,0.0,0.0,0.0,0.0,0.0,0.0,0.0,0.0,0.0,0.0,0.0,0.0,0.0,0.0,0.0,0.0,0.0,0.0,0.0,0.0,0.0546,-0.1359,-0.3308,-0.5163,-0.6804,-0.8101,-0.9021,-0.9368,-0.9518,0.0,0.0,0.0,0.0,0.0,0.0,0.0,0.0,0.0,0.0,0.0,0.0,0.0,0.0,0.0,0.0,0.0,0.0,0.0,0.0,0.0,0.0,0.0,0.0,0.0,0.0,0.0,0.0,0.0,0.0,0.0,0.0,0.0,0.0,0.0,0.0,0.0,0.0,0.0,0.0,0.3113,0.2416,0.1738,0.0,0.0,0.0,0.0,0.0,0.0,-0.4329,-0.4888,0.0,0.0,0.0,0.0,0.0,0.0,0.0,0.0,0.0,0.0,0.0,0.0,0.0,0.0,0.0,0.0,0.0,0.0,0.0,0.0,0.0,0.0,0.0,0.0,0.0,0.0,0.0,0.0,0.0,0.0,0.0,0.0,0.0,0.0,0.0,0.0,0.0,0.0,0.0,0.0,0.0,0.0,0.0,0.0,0.0,0.0,0.0,0.0,0.0,0.0,0.0,0.0,0.0,0.0,0.0,0.0655,-0.1399,-0.3266,-0.4957,-0.6464,-0.7562,-0.8225,-0.8476,-0.8511,0.0,0.0,0.0,0.0,0.0,0.0,0.0,0.0,0.0,0.0,0.0,0.0,0.0,0.0,0.0,0.0,0.0,0.0,0.0,0.0,0.0,0.0,0.0,0.0,0.0,0.0,0.0,0.0,0.0,0.0,0.0,0.0,0.0,0.0,0.0,0.0,0.0,0.0,0.0,0.0,0.0,0.2484,0.1733,0.0714,0.0,0.0,0.0,0.0,-0.3652,-0.4265,0.0,0.0,0.0,0.0,0.0,0.0,0.0,0.0,0.0,0.0,0.0,0.0,0.0,0.0,0.0,0.0,0.0,0.0,0.0,0.0,0.0,0.0,0.0,0.0,0.0,0.0,0.0,0.0,0.0,0.0,0.0,0.0,0.0,0.0,0.0,0.0,0.0,0.0,0.0,0.0,0.0,0.0,0.0,0.0,0.0,0.0,0.0,0.0,0.0,0.0,0.0,0.0,0.0,0.0,0.0,0.0,0.0837,-0.1,-0.2766,-0.4285,-0.56,-0.6643,-0.7382,-0.7457,-0.7541,0.0,0.0,0.0,0.0,0.0,0.0,0.0,0.0,0.0,0.0,0.0,0.0,0.0,0.0,0.0,0.0,0.0,0.0,0.0,0.0,0.0,0.0,0.0,0.0,0.0,0.0,0.0,0.0,0.0,0.0,0.0,0.0,0.0,0.0,0.0,0.0,0.0,0.0,0.0,0.0,0.0,0.2442,0.1467,0.0585,-0.0391,0.0,0.0,-0.2731,-0.3641,-0.4074,0.0,0.0,0.0,0.0,0.0,0.0,0.0,0.0,0.0,0.0,0.0,0.0,0.0,0.0,0.0,0.0,0.0,0.0,0.0,0.0,0.0,0.0,0.0,0.0,0.0,0.0,0.0,0.0,0.0,0.0,0.0,0.0,0.0,0.0,0.0,0.0,0.0,0.0,0.0,0.0,0.0,0.0,0.0,0.0,0.0,0.0,0.0,0.0,0.0,0.0,0.0,0.0,0.0,0.0,0.0,0.2276,0.1127,-0.0592,-0.2138,-0.3501,-0.4716,-0.5584,-0.6036,-0.6191,-0.6278,0.0,0.0,0.0,0.0,0.0,0.0,0.0,0.0,0.0,0.0,0.0,0.0,0.0,0.0,0.0,0.0,0.0,0.0,0.0,0.0,0.0,0.0,0.0,0.0,0.0,0.0,0.0,0.0,0.0,0.0,0.0,0.0,0.0,0.0,0.0,0.0,0.0,0.0,0.0,0.0,0.0,0.0,0.1208,0.0353,0.0,0.0,0.0,-0.2544,-0.3385,0.0,0.0,0.0,0.0,0.0,0.0,0.0,0.0,0.0,0.0,0.0,0.0,0.0,0.0,0.0,0.0,0.0,0.0,0.0,0.0,0.0,0.0,0.0,0.0,0.0,0.0,0.0,0.0,0.0,0.0,0.0,0.0,0.0,0.0,0.0,0.0,0.0,0.0,0.0,0.0,0.0,0.0,0.0,0.0,0.0,0.0,0.0,0.0,0.0,0.0,0.0,0.0,0.0,0.0,0.0,0.0,0.0,0.1561,0.0039,-0.1378,-0.2637,-0.3733,-0.4437,-0.4736,-0.4902,0.0,0.0,0.0,0.0,0.0,0.0,0.0,0.0,0.0,0.0,0.0,0.0,0.0,0.0,0.0,0.0,0.0,0.0,0.0,0.0,0.0,0.0,0.0,0.0,0.0,0.0,0.0,0.2135,0.0,0.0,0.0,0.0,0.0,0.0,0.0,0.0,0.0,0.0,0.0,0.0,0.0,0.0,0.2003,0.0897,0.0157,-0.0589,0.0,0.0,-0.2417,-0.3066,-0.3346,-0.3469,0.0,0.0,0.0,0.0,0.0,0.0,0.0,0.0,0.0,0.0,0.0,0.0,0.0,0.0,0.0,0.0,0.0,0.0,0.0,0.0,0.0,0.0,0.0,0.0,0.0,0.0,0.0,0.0,0.0,0.0,0.0,0.0,0.0,0.0,0.0,0.0,0.0,0.0,0.0,0.0,0.0,0.0,0.0,0.0,0.0,0.0,0.0,0.0,0.0,0.0,0.0,0.0,0.0,0.0,0.0,0.2323,0.086,-0.0487,-0.1747,-0.253,-0.3198,-0.3697,-0.3728,-0.3765,0.0,0.0,0.0,0.0,0.0,0.0,0.0,0.0,0.0,0.0,0.0,0.0,0.0,0.0,0.0,0.0,0.0,0.0,0.0,0.0,0.0,0.0,0.0,0.0,0.0,0.0,0.0,0.0,0.0,0.0,0.0,0.0,0.0,0.0,0.0,0.0,0.0,0.0,0.0,0.0,0.0,0.178,0.0507,-0.0039,-0.0589,0.0,0.0,-0.2352,-0.274,-0.2895,-0.2909,-0.2759,0.0,0.0,0.0,0.0,0.0,0.0,0.0,0.0,0.0,0.0,0.0,0.0,0.0,0.0,0.0,0.0,0.0,0.0,0.0,0.0,0.0,0.0,0.0,0.0,0.0,0.0,0.0,0.0,0.0,0.0,0.0,0.0,0.0,0.0,0.0,0.0,0.0,0.0,0.0,0.0,0.0,0.0,0.0,0.0,0.0,0.0,0.0,0.0,0.0,0.0,0.0,0.0,0.0,0.3756,0.2794,0.1619,0.0556,-0.0438,-0.1242,-0.1722,-0.1943,-0.2102,-0.224,0.0,0.0,0.0,0.0,0.0,0.0,0.0,0.0,0.0,0.0,0.0,0.0,0.0,0.0,0.0,0.0,0.0,0.0,0.0,0.0,0.0,0.0,0.0,0.0,0.0,0.0,0.0,0.0,0.2919,0.3432,0.4159,0.0,0.0,0.0,0.0,0.0,0.0,0.0,0.0,0.0,0.0,0.178,0.0624,0.0236,0.0,0.0,-0.0942,-0.117,-0.1498,-0.1639,-0.163,-0.1568,-0.1206,0.0,0.0,0.0,0.0,0.0,0.0,0.0,0.0,0.0,0.0,0.0,0.0,0.0,0.0,0.0,0.0,0.0,0.0,0.0,0.0,0.0,0.0,0.0,0.0,0.0,0.0,0.0,0.0,0.0,0.0,0.0,0.0,0.0,0.0,0.0,0.0,0.0,0.0,0.0,0.0,0.0,0.0,0.0,0.0,0.0,0.0,0.0,0.0,0.0,0.0,0.0,0.0,0.4404,0.3449,0.252,0.1646,0.0785,0.0039,-0.0392,-0.047,-0.0627,-0.0767,0.0,0.0,0.0,0.0,0.0,0.0,0.0,0.0,0.0,0.0,0.0,0.0,0.0,0.0,0.0,0.0,0.0,0.0,0.0,0.0,0.0,0.0,0.0,0.0,0.0,0.0,0.0,0.0,0.3573,0.4267,0.4998,0.0,0.0,0.0,0.0,0.0,0.0,0.0,0.0,0.0,0.0,0.1855,0.0936,0.0629,0.0354,0.0,-0.0078,-0.0195,-0.0421,-0.052,-0.0507,-0.0427,0.0,0.0,0.0,0.0,0.0,0.0,0.0,0.0,0.0,0.0,0.0,0.0,0.0,0.0,0.0,0.0,0.0,0.0,0.0,0.0,0.0,0.0,0.0,0.0,0.0,0.0,0.0,0.0,0.0,0.0,0.0,0.0,0.0,0.0,0.0,0.0,0.0,0.0,0.0,0.0,0.0,0.0,0.0,0.0,0.0,0.0,0.0,0.0,0.0,0.0,0.0,0.0,0.0,0.5086,0.4468,0.355,0.2663,0.1882,0.1216,0.0785,0.0589,0.055,0.0576,0.0584,0.0,0.0,0.0,0.0,0.0,0.0,0.0,0.0,0.0,0.0,0.0,0.0,0.0,0.0,0.0,0.0,0.0,0.0,0.0,0.0,0.0,0.0,0.0,0.0,0.0,0.0,0.3627,0.4293,0.4963,0.0,0.0,0.0,0.0,0.0,0.0,0.0,0.0,0.0,0.0,0.2584,0.1966,0.1405,0.1061,0.0864,0.0668,0.0471,0.0313,0.0313,0.0301,0.0328,0.0,0.0,0.0,0.0,0.0,0.0,0.0,0.0,0.0,0.0,0.0,0.0,0.0,0.0,0.0,0.0,0.0,0.0,0.0,0.0,0.0,0.0,0.0,0.0,0.0,0.0,0.0,0.9306,0.9288,0.0,0.0,0.0,0.0,0.0,0.0,0.0,0.0,0.0,0.0,0.0,1.0168,0.9983,0.0,0.0,0.0,0.0,0.0,0.0,0.0,0.0,0.0,0.0,0.0,0.0,0.5907,0.5111,0.446,0.3832,0.3175,0.251,0.2196,0.2272,0.2118,0.2108,0.211,0.0,0.0,0.0,0.0,0.0,0.0,0.0,0.0,0.0,0.0,0.0,0.0,0.0,0.0,0.0,0.0,0.0,0.0,0.0,0.0,0.0,0.0,0.0,0.0,0.0,0.4363,0.0,0.0,0.0,0.0,0.0,0.0,0.0,0.0,0.0,0.0,0.0,0.4314,0.3761,0.331,0.289,0.2529,0.243,0.235,0.0,0.0,0.0,0.0,0.0,0.0,0.0,0.0,0.0,0.0,0.0,0.0,0.0,0.0,0.2016,0.1513,0.1391,0.1336,0.1259,0.0,0.0,0.0,0.0,0.0,0.0,0.0,0.0,0.0,0.0,0.0,0.0,0.0,0.0,0.0,0.0,1.0458,0.0,0.0,0.0,0.0,0.0,0.0,0.0,0.0,1.1471,1.1379,1.1399,1.127,1.1032,0.0,1.0634,1.0066,0.0,0.0,0.0,0.0,0.0,0.0,0.0,0.0,0.6761,0.6047,0.5554,0.5074,0.4535,0.3878,0.3602,0.3638,0.358,0.3572,0.3596,0.3486,0.3303,0.0,0.0,0.0,0.0,0.0,0.0,0.0,0.0,0.0,0.0,0.0,0.0,0.0,0.0,0.0,0.0,0.0,0.0,0.0,0.0,0.0,0.0,0.0,0.5275,0.0,0.0,0.0,0.0,0.0,0.0,0.0,0.0,0.0,0.602,0.5223,0.4603,0.4207,0.3873,0.3619,0.3494,0.0,0.0,0.0,0.0,0.0,0.0,0.0,0.283,0.2662,0.2424,0.2213,0.1991,0.2138,0.2385,0.2644,0.0,0.0,0.2072,0.1953,0.1857,0.1711,0.1688,0.1588,0.1449,0.1204,0.0966,0.0,0.0,0.0,0.0,0.0,0.0,0.0,0.0,1.2052,1.1963,0.0,1.168,0.0,0.0,0.0,0.0,0.0,0.0,0.0,0.0,1.2672,1.2703,1.3112,1.296,1.255,1.1905,1.2045,1.1856,1.1259,0.9781,0.0,0.0,0.0,0.0,0.0,0.0,0.7571,0.7241,0.6802,0.6388,0.5964,0.5348,0.4963,0.48,0.4882,0.497,0.4991,0.4922,0.4784,0.4585,0.4207,0.0,0.0,0.0,0.0,0.0,0.0,0.0,0.0,0.0,0.0,0.0,0.0,0.0,0.0,0.0,0.0,0.0,0.0,0.0,0.0,0.6115,0.0,0.0,0.0,0.0,0.0,0.0,0.0,0.0,0.0,0.0,0.6121,0.5477,0.4937,0.4484,0.0,0.0,0.0,0.0,0.4291,0.4433,0.4251,0.4097,0.3971,0.3719,0.3408,0.3083,0.0,0.0,0.2686,0.2579,0.2595,0.2716,0.272,0.2639,0.2735,0.2696,0.254,0.2191,0.2105,0.1967,0.155,0.1349,0.118,1.5144,0.0,0.0,0.0,0.0,1.3444,1.3311,1.31,1.3294,1.3321,1.3263,1.3312,0.0,0.0,0.0,0.0,0.0,0.0,1.3781,1.4243,1.4012,1.3876,1.3875,1.3743,1.3555,1.3298,1.3126,1.2863,1.255,1.1885,1.0954,0.9886,0.0,0.0,0.0,0.0,0.883,0.866,0.8136,0.7651,0.7242,0.6665,0.6321,0.6279,0.632,0.644,0.675,0.6591,0.6506,0.6412,0.6077,0.0,0.0,0.0,0.0,0.0,0.0,0.0,0.0,0.0,0.0,0.0,0.0,0.0,0.0,0.0,0.0,0.0,0.0,0.0,0.6753,0.7005,0.7197,0.0,0.0,0.0,0.0,0.0,0.0,0.0,0.0,0.0,0.6745,0.6097,0.5538,0.0,0.0,0.516,0.5255,0.528,0.5255,0.5332,0.0,0.0,0.0,0.4404,0.3959,0.3631,0.3315,0.3149,0.3275,0.3309,0.3322,0.3444,0.3481,0.3463,0.347,0.3098,0.2719,0.2509,0.2436,0.2276,0.1909,0.17,0.1566,1.7414,1.6238,1.5729,1.5308,1.4944,1.5029,1.4856,1.4533,1.4882,1.4827,1.454,1.4656,1.4664,1.458,1.4567,0.0,0.0,0.0,1.4845,1.5138,1.5071,1.4983,1.4943,1.4849,1.4688,1.4462,1.432,1.4106,1.3858,1.3531,1.2922,1.1972,0.0,0.0,1.0417,1.0229,1.0083,0.9986,0.9548,0.9183,0.8732,0.8084,0.774,0.7732,0.7715,0.7828,0.8171,0.8076,0.8042,0.8027,0.7807,0.7624,0.0,0.0,0.0,0.0,0.0,0.0,0.0,0.0,0.0,0.0,0.0,0.808,0.0,0.0,0.0,0.0,0.7777,0.7683,0.7726,0.7822,0.0,0.0,0.0,0.0,0.0,0.0,0.0,0.8739,0.8304,0.7817,0.7326,0.6885,0.6421,0.5881,0.5837,0.587,0.5922,0.0,0.5932,0.5898,0.5686,0.5437,0.5343,0.4961,0.455,0.4176,0.3828,0.3628,0.3836,0.386,0.389,0.4007,0.4,0.3995,0.4054,0.3729,0.3326,0.2959,0.2838,0.2705,0.2361,0.2104,0.1893,1.9355,1.8735,1.7399,1.6568,1.6121,1.6487,1.6399,1.6112,1.6597,1.6369,1.5701,1.5869,1.5927,1.5882,1.5999,0.0,0.0,1.5605,1.5725,1.5936,1.5936,1.603,1.6158,1.6202,1.5922,1.5428,1.5556,1.5425,1.5086,1.4847,1.4584,1.4305,1.2853,1.1943,1.1696,1.1548,1.1365,1.1228,1.1052,1.0738,1.0331,0.9566,0.9183,0.9183,0.9088,0.9136,0.937,0.9412,0.9434,0.9454,0.9401,0.9377,0.9339,0.0,0.0,0.0,0.0,0.0,0.0,0.0,0.0,0.0,0.0,0.0,0.0,0.0,0.0,0.0,0.8249,0.0,0.8812,0.8573,0.0,0.0,0.0,0.9105,0.9279,0.9147,0.9099,0.915,0.0,0.0,0.0,0.0,0.742,0.655,0.6454,0.6441,0.6371,0.6371,0.6339,0.6302,0.6094,0.587,0.5648,0.5373,0.5088,0.476,0.4535,0.4399,0.442,0.4369,0.4381,0.4458,0.4351,0.4353,0.455,0.4532,0.434,0.36,0.3387,0.3213,0.2822,0.2525,0.2354,2.0265,2.012,1.9765,1.8873,1.7688,1.777,1.7724,1.7651,1.7578,1.7438,1.7245,1.7132,1.6945,1.6627,1.63,1.6314,1.6572,1.6572,1.6754,1.7095,1.708,1.7058,1.6959,1.6925,1.6784,1.6529,1.6402,1.6219,1.6,1.5834,1.5614,1.5415,1.4911,1.4096,1.312,1.2908,1.2927,1.3122,1.2647,1.2063,1.1372,1.1019,1.0826,1.0838,1.0521,1.0522,1.0861,1.0705,1.0685,1.0825,1.0805,1.0739,1.0659,1.0481,0.0,0.0,0.0,0.0,0.0,0.0,0.0,0.0,0.0,0.9332,0.9158,0.0,0.9463,0.0,0.8942,0.9012,0.9392,0.9333,0.0,0.0,0.982,1.0023,1.018,0.9876,0.9694,0.9716,0.9159,0.8722,0.8577,0.8401,0.8165,0.7798,0.733,0.7009,0.6979,0.6979,0.6979,0.6904,0.6616,0.6354,0.6242,0.5822,0.5531,0.5526,0.5382,0.5297,0.5301,0.5302,0.5234,0.5119,0.5065,0.5089,0.5113,0.5089,0.4963,0.4588,0.4151,0.3727,0.3307,0.3163,0.3077,2.1223,2.1146,2.1146,2.0589,1.9778,1.9439,1.9174,1.8994,1.8894,1.8757,1.8591,1.8372,1.8032,1.758,1.7327,1.7323,1.7523,1.7532,1.7581,1.7745,1.771,1.7666,1.7554,1.7554,1.7495,1.7392,1.7279,1.7176,1.7038,1.6881,1.6777,1.6629,1.6438,1.6009,1.5281,1.4533,1.4257,1.4402,1.3854,1.323,1.2659,1.2462,1.2308,1.2345,1.1997,1.188,1.2084,1.1931,1.1865,1.1973,1.212,1.215,1.2084,1.1815,1.1598,0.0,0.0,0.0,0.0,0.0,0.0,0.0,0.0,0.0,0.0,0.0,1.0231,0.0,0.9761,0.0,0.9973,0.9926,0.9945,1.0113,1.0316,1.0518,1.0662,1.0405,1.0185,1.0132,0.9724,0.9373,0.9276,0.9151,0.9018,0.8862,0.8463,0.8006,0.7573,0.7478,0.7446,0.7341,0.7112,0.6918,0.6857,0.6481,0.6209,0.6263,0.6132,0.605,0.6028,0.605,0.5991,0.5909,0.5828,0.5773,0.5778,0.5746,0.5637,0.5418,0.512,0.4653,0.4021,0.3827,0.3683,2.2101,2.1949,2.1959,2.1959,2.1883,2.1213,2.0658,2.0246,2.0317,2.0075,1.9693,1.9465,1.9097,1.8664,1.8664,1.8566,1.8405,1.8405,1.8303,1.8144,1.8144,1.8144,1.8144,1.8144,1.8144,1.8134,1.811,1.811,1.8076,1.7886,1.7808,1.7833,1.7681,1.7579,1.7535,1.6315,1.5613,1.5409,1.4922,1.445,1.4078,1.3926,1.3781,1.3759,1.3485,1.33,1.3271,1.3146,1.305,1.3047,1.3351,1.3541,1.3524,1.3173,1.301,0.0,1.2558,0.0,0.0,0.0,0.0,0.0,0.0,0.0,0.0,1.1065,1.102,1.099,1.0637,1.0478,1.0624,1.0507,1.0454,1.0557,1.071,1.0871,1.0964,1.0854,1.0702,1.0582,1.0464,1.0269,1.0072,0.9994,0.9925,0.9766,0.9632,0.9224,0.8352,0.808,0.7926,0.7726,0.7681,0.7597,0.7467,0.7186,0.6988,0.6967,0.6781,0.6679,0.6689,0.6667,0.6688,0.6691,0.662,0.6544,0.6544,0.6431,0.629,0.6159,0.6087,0.5755,0.4928,0.4567,0.4398,2.2804,2.2767,2.2777,2.2777,2.274,2.2628,2.2124,2.1425,2.1141,2.0766,2.0344,2.0287,1.9998,1.9576,1.9531,1.9335,1.8942,1.8931,1.8931,1.8898,1.8898,1.8908,1.8875,1.8865,1.8898,1.8875,1.8707,1.864,1.864,1.8452,1.8432,1.86,1.8543,1.8576,1.8667,0.0,0.0,0.0,1.6437,1.6132,1.5613,1.5542,1.5471,1.5305,1.5146,0.0,1.4737,1.4684,1.4577,1.4369,1.4638,0.0,0.0,0.0,0.0,0.0,0.0,0.0,0.0,0.0,0.0,0.0,1.387,1.302,1.1945,1.1744,1.1654,1.1573,1.1462,1.1419,1.1463,1.1437,1.1418,1.1444,1.1469,1.1528,1.1544,1.1519,1.1469,1.1444,1.1334,1.1234,1.1158,1.1023,1.0846,1.0643,1.0549,1.0377,0.9959,0.9242,0.8778,0.8718,0.8527,0.8335,0.8209,0.784,0.7564,0.7522,0.7224,0.7076,0.7135,0.7166,0.722,0.7292,0.73,0.7268,0.7295,0.7192,0.702,0.6918,0.681,0.6495,0.5719,0.5523,0.5418,2.3372,0.0,2.3409,2.3457,0.0,2.3556,2.3383,2.2953,2.2344,2.1906,2.1518,2.1246,2.0952,2.0591,2.0331,2.0061,1.9813,1.9857,1.9857,1.9857,1.9813,1.9813,1.9758,1.9824,1.9781,1.9758,1.9693,1.9693,1.9693,1.9584,1.9595,1.9704,1.9704,1.9737,1.9802,1.9802,1.9019,1.7446,1.7369,1.6997,1.6366,1.6266,1.62,1.609,0.0,0.0,0.0,0.0,0.0,0.0,0.0,0.0,0.0,0.0,0.0,1.5942,1.5574,1.5438,1.5556,1.5427,1.5318,1.5232,1.4706,1.3852,1.2662,1.2491,1.2393,1.2246,1.2197,1.2132,1.2101,1.211,1.2126,1.2175,1.2209,1.224,1.2329,1.2314,1.2298,1.223,1.2166,1.2076,1.2002,1.1918,1.1785,1.1669,1.156,1.1443,1.1208,1.032,0.9562,0.9406,0.9276,0.9096,0.8796,0.8521,0.8209,0.801,0.7762,0.7647,0.7542,0.7735,0.7898,0.7907,0.7847,0.7789,0.7783,0.7558,0.7377,0.7468,0.7463,0.7357,0.7063,0.6615,0.6127,2.3995,2.3838,2.4032,2.4105,2.4177,2.4322,2.4406,2.4334,0.0,0.0,0.0,2.2356,2.1957,2.1676,2.1146,2.0875,2.0796,2.0752,2.0784,2.0784,2.0784,2.072,2.0613,2.072,2.072,2.0613,2.072,2.0796,2.0784,2.0784,2.0784,2.0816,2.0828,2.0828,2.086,2.086,2.0155,1.8648,1.8276,1.7804,1.7188,1.6951,1.6858,1.6868,1.7066,1.7244,1.7339,1.7161,1.7071,1.7185,1.6999,1.6927,1.7006,1.689,1.6886,1.7115,1.6796,1.6621,1.6749,1.6681,1.6418,1.5857,1.5402,1.4679,1.3525,1.3314,1.3184,1.304,1.2909,1.2822,1.274,1.274,1.2764,1.2847,1.2895,1.2973,1.3098,1.3118,1.3045,1.2977,1.2924,1.2847,1.2715,1.2691,1.2691,1.2642,1.2501,1.2393,1.2197,1.1258,1.0372,1.0097,0.9951,0.9746,0.9368,0.8975,0.8748,0.8348,0.8217,0.8094,0.802,0.8228,0.8442,0.8412,0.8313,0.8257,0.8218,0.795,0.7749,0.8001,0.8022,0.8093,0.8255,0.7691,0.6977,2.4838,2.4791,2.4838,2.4945,2.5099,2.5135,2.517,2.5099,2.4358,2.4095,2.4196,2.3605,2.3202,2.2928,2.2381,2.187,2.1482,2.1471,2.1471,0.0,2.1459,2.1459,2.1428,2.1471,2.1471,2.1428,2.1459,2.1471,2.1459,2.1459,2.1565,2.169,2.1721,2.1796,2.1956,2.1968,2.1632,2.0936,1.9873,1.9217,1.8933,1.8474,1.821,1.821,1.824,1.8169,1.7977,1.7948,1.7834,1.7623,1.781,1.7902,1.7918,1.8143,1.8347,1.8493,1.8448,1.8481,1.8589,1.8195,1.7656,1.7132,1.6965,1.6169,1.4403,1.421,1.4106,1.3884,1.3813,1.3766,1.3655,1.3621,1.3573,1.3501,1.3573,1.3655,1.3716,1.3776,1.3776,1.3681,1.3655,1.3597,1.3478,1.3454,1.3406,1.33,1.3242,1.3146,1.2812,1.203,1.1326,1.0939,1.0574,1.0254,0.9883,0.9275,0.8873,0.8652,0.8321,0.8211,0.8364,0.8506,0.8625,0.8787,0.8785,0.8785,0.8785,0.8645,0.8524,0.8565,0.8533,0.848,0.8565,0.8441,0.8254,2.5581,2.5499,2.5616,2.5699,2.5791,2.5861,2.5896,2.5824,2.5312,2.4936,2.4725,2.3946,2.3586,2.3527,2.3035,2.2658,2.2402,2.2402,2.2402,2.2414,2.2414,2.2372,2.2334,2.2384,2.2384,2.2334,2.2384,2.2402,2.2433,2.2519,2.2567,2.2567,2.2537,2.261,2.2696,2.2684,2.2573,2.2302,2.0794,1.9838,1.9451,1.8856,1.8549,1.8561,1.881,1.8913,1.8873,1.8862,1.8899,1.8928,1.8785,1.8777,1.891,1.9054,1.9186,1.933,1.9344,1.937,1.9422,1.8943,1.8511,1.824,1.7958,1.741,1.6492,1.5741,1.5241,1.5042,1.4726,1.4444,1.4294,1.4281,1.4258,1.4201,1.4247,1.4305,1.4374,1.4374,1.4387,1.4374,1.4328,1.4258,1.4212,1.4212,1.4165,1.4059,1.4022,1.3871,1.3684,1.3294,1.2628,1.1698,1.1307,1.0848,1.0208,0.9755,0.9333,0.9056,0.8832,0.8729,0.8806,0.8914,0.9117,0.9189,0.9229,0.9238,0.9207,0.9011,0.8973,0.9102,0.9082,0.9062,0.9159,0.9174,0.8866,2.6358,2.6208,2.6346,2.6461,2.6508,2.6586,2.6591,2.6413,2.6001,2.5565,2.4933,2.4179,2.3941,2.4046,2.3558,2.3335,2.3335,2.3335,2.3348,2.3335,2.3305,2.3275,2.3198,2.3288,2.3275,2.3228,2.3305,2.3395,2.3424,2.3556,2.3543,2.3395,2.3365,2.3365,2.3335,2.3305,2.3305,2.3255,2.1823,2.0767,2.0229,1.9465,1.9087,1.9111,1.928,1.9479,1.9549,1.9603,1.9752,1.9969,1.9656,1.9578,1.9759,1.9811,1.9862,1.9978,1.9978,1.9978,1.9953,1.9585,1.9357,1.9357,1.8963,1.8722,1.8576,1.7578,1.6717,1.6314,1.5858,1.551,1.5371,1.5336,1.5244,1.5108,1.5096,1.5097,1.5062,1.4994,1.4971,1.504,1.496,1.4892,1.4892,1.4892,1.4858,1.48,1.4731,1.4605,1.4524,1.4401,1.3662,1.2647,1.2067,1.1516,1.0489,1.0192,0.9935,0.9524,0.9516,0.9457,0.9428,0.9582,0.9724,0.97,0.9679,0.97,0.9652,0.9485,0.9412,0.9564,0.9595,0.9653,0.9814,0.9743,0.9336,2.7082,2.7095,2.7129,2.7209,2.7356,2.739,2.709,2.659,2.6156,2.5669,2.5088,2.4671,2.4619,2.4723,2.4233,2.4015,2.4002,2.4015,2.4015,2.4002,2.4002,2.4002,2.3985,2.4015,2.406,2.4147,2.4176,2.4221,2.435,2.4366,2.4308,2.4205,2.4205,2.4118,2.4031,2.4002,2.4002,2.3989,2.3371,2.2721,2.2022,2.1047,2.0496,2.0509,2.002,1.9744,1.9808,1.9899,1.9964,2.0016,2.0195,2.0296,2.0346,2.0434,2.051,2.0535,2.0535,2.0535,2.051,2.0458,2.0431,2.0457,2.0365,2.0313,2.0276,1.9675,1.8763,1.7847,1.7508,1.7231,1.7098,1.7002,1.6741,1.6244,1.6232,1.6136,1.5699,1.5625,1.5669,1.5534,1.5534,1.5479,1.5479,1.5457,1.5412,1.5424,1.5379,1.5322,1.5265,1.4839,1.4293,1.3499,1.286,1.2089,1.1277,1.0785,1.0527,1.0302,1.0235,1.0225,1.0205,1.0195,1.0224,1.0281,1.0243,1.0233,1.0224,1.0098,1.0019,1.0076,1.0073,1.0029,1.0199,1.0203,0.9822,2.802,2.8006,2.802,2.8052,2.8151,2.8164,2.7784,2.717,2.675,2.625,2.5684,2.5289,2.5025,2.4837,2.4687,2.465,2.4635,2.4635,2.4622,2.4622,2.4622,2.4635,2.4664,2.4708,2.4765,2.485,2.4908,2.4992,2.5021,2.4978,2.4921,2.4936,2.478,2.4679,2.465,2.4622,2.4635,2.465,2.4395,2.4175,2.376,2.2472,2.1572,2.1276,2.1056,2.0797,2.0536,2.0572,2.0622,2.0709,2.0822,2.0896,2.0995,2.1044,2.1068,2.1068,2.1068,2.1068,2.1068,2.1068,2.1068,2.1093,2.1068,2.1068,2.1068,2.0817,2.0384,1.9796,1.8772,1.8059,1.7989,1.7881,1.7711,1.7441,1.7194,1.6934,1.6702,1.6382,1.6197,1.6141,1.6194,1.6238,1.6207,1.6141,1.6054,1.5976,1.5944,1.5935,1.5888,1.5367,1.4785,1.4201,1.3539,1.2673,1.1746,1.1356,1.1153,1.1086,1.1029,1.101,1.0992,1.0935,1.0897,1.0897,1.0859,1.084,1.0841,1.0812,1.0745,1.0725,1.0611,1.0556,1.0548,1.0498,1.0212,2.8748,2.8716,2.8748,2.8716,2.8748,2.8748,2.828,2.7544,2.7231,2.6717,2.6003,2.5758,2.5467,2.5174,2.5174,2.5202,2.5258,2.5258,2.523,2.523,2.5258,2.5258,2.5314,2.5397,2.5508,2.5536,2.566,2.5715,2.5673,2.5619,2.5564,2.555,2.5411,2.5286,2.5258,2.5258,2.523,2.5258,2.5258,2.523,2.5079,2.4013,2.3071,2.2497,2.2283,2.1961,2.1533,2.1518,2.1486,2.1423,2.1447,2.152,2.1616,2.1616,2.1616,2.1602,2.1616,2.1602,2.1616,2.1602,2.1616,2.1602,2.1626,2.1602,2.1602,2.1602,2.1592,2.1352,2.0196,1.9405,1.9072,1.8977,1.8831,1.8654,1.827,1.8027,1.7826,1.7295,1.6977,1.6986,1.6944,1.69,1.69,1.685,1.6744,1.6655,1.6595,1.6534,1.6387,1.5836,1.5139,1.4754,1.4082,1.3162,1.2141,1.1884,1.1836,1.1781,1.1744,1.1719,1.1748,1.1645,1.1597,1.1616,1.1534,1.1479,1.1468,1.146,1.1386,1.1348,1.1217,1.1086,1.1014,1.0907,1.0784,2.9067,2.9099,2.9099,2.9099,2.9067,2.9071,2.8422,2.7373,2.7411,2.6816,2.5883,2.5976,2.6056,2.6002,2.5811,2.5743,2.5839,2.5825,2.5866,2.5866,2.5852,2.5921,2.6029,2.6056,2.6177,2.6377,2.6431,2.6431,2.6416,2.6431,2.6338,2.6084,2.6029,2.5975,2.5866,2.5866,2.5852,2.5866,2.5866,2.5852,2.5839,2.5755,2.516,2.4324,2.3722,2.3208,2.2799,2.2776,2.2585,2.2001,2.2147,2.2189,2.2175,2.2175,2.2161,2.2161,2.2147,2.2161,2.2147,2.2161,2.2147,2.2161,2.2147,2.2147,2.2161,2.2147,2.2147,2.2147,2.1834,2.1369,2.0769,2.0505,2.0276,1.981,1.9669,1.9405,1.8973,1.8406,1.814,1.8047,1.7702,1.744,1.7475,1.7455,1.7434,1.7413,1.7372,1.731,1.7145,1.6205,1.5452,1.5092,1.4344,1.3331,1.2855,1.2579,1.2478,1.2443,1.2389,1.2347,1.2359,1.2359,1.233,1.2312,1.2174,1.2108,1.209,1.2018,1.1891,1.1818,1.1726,1.1605,1.1579,1.1505,1.1404,2.9741,2.9741,2.9741,2.9741,2.9685,2.929,2.8626,2.785,2.7513,2.6904,2.621,2.6285,2.6418,2.6541,2.6527,2.6447,2.6285,2.6285,2.6338,2.6392,2.6433,2.6484,2.6616,2.6736,2.6907,2.7078,2.7063,2.7037,2.6959,2.687,2.6765,2.6674,2.6539,2.6459,2.6418,2.6418,2.6418,2.6404,2.6418,2.6418,2.6418,2.6418,2.6277,2.605,2.5173,2.4524,2.4151,2.4171,2.4081,2.3851,2.3516,2.3272,2.3243,2.2885,2.264,2.2655,2.264,2.264,2.264,2.264,2.264,2.2655,2.264,2.264,2.2655,2.2655,2.264,2.264,2.2595,2.2342,2.1992,2.1589,2.1183,2.0858,2.0523,2.0251,1.9992,1.9575,1.9106,1.8708,1.8249,1.8002,1.7988,1.8008,1.8002,1.7969,1.7915,1.7915,1.7718,1.6748,1.5895,1.5676,1.4812,1.3894,1.3762,1.3323,1.3069,1.3035,1.2995,1.2943,1.2908,1.2873,1.2843,1.2843,1.2743,1.2673,1.2643,1.2608,1.2484,1.2443,1.2324,1.2216,1.2192,1.2189,1.2039,3.0158,3.0158,3.0233,3.012,2.9875,2.9459,2.8785,2.8053,2.7635,2.7144,2.6625,2.6671,2.6803,2.6922,2.7081,2.7052,2.6852,2.6841,2.6855,2.6919,2.6997,2.7111,2.7251,2.7448,2.7549,2.7615,2.7564,2.7437,2.7335,2.7196,2.7107,2.7055,2.6959,2.6933,2.6919,2.6971,2.6997,2.6997,2.6997,2.6982,2.6997,2.6997,2.7089,2.7122,2.6561,2.5904,2.5414,2.5385,2.5306,2.511,2.4699,2.4479,2.442,2.3833,2.3443,2.3428,2.3252,2.3135,2.3113,2.3113,2.3135,2.3113,2.312,2.3054,2.2849,2.279,2.2717,2.2571,2.2469,2.236,2.2155,2.1724,2.1504,2.157,2.1317,2.1139,2.1121,2.0512,1.9738,1.9043,1.8708,1.8567,1.8558,1.8553,1.8533,1.8484,1.8464,1.8425,1.8271,1.753,1.6621,1.6381,1.5557,1.4828,1.4468,1.4098,1.3702,1.3619,1.3518,1.3463,1.3425,1.3391,1.3357,1.3344,1.331,1.3224,1.3178,1.316,1.3126,1.3087,1.2983,1.2866,1.2881,1.2914,1.2824,3.0326,3.0387,3.0507,3.0249,2.9769,2.9595,2.8869,2.791,2.7827,2.7486,2.7044,2.713,2.7207,2.7233,2.7376,2.7463,2.7524,2.7463,2.7412,2.7437,2.7665,2.7825,2.7959,2.8073,2.8137,2.8137,2.7915,2.774,2.76,2.7488,2.7376,2.7258,2.7361,2.7386,2.7401,2.7499,2.756,2.756,2.7534,2.7575,2.76,2.7575,2.7625,2.7765,2.768,2.729,2.6495,2.644,2.6236,2.5848,2.5721,2.5685,2.5511,2.4964,2.4605,2.453,2.4051,2.3714,2.3721,2.3766,2.3841,2.3714,2.3676,2.3445,2.2996,2.2811,2.2557,2.2088,2.1848,2.1643,2.1515,2.1336,2.1434,2.2004,2.1884,2.1916,2.1908,2.1194,2.0109,1.9276,1.9084,1.9082,1.9101,1.9082,1.9064,1.9064,1.8988,1.8917,1.8859,1.8247,1.7634,1.7058,1.6296,1.5593,1.522,1.4858,1.4483,1.4179,1.4035,1.3937,1.3934,1.3901,1.3885,1.3855,1.3852,1.3785,1.3735,1.3706,1.3689,1.3652,1.3568,1.3497,1.3518,1.3572,1.3742,3.091,3.0984,3.1043,3.0747,3.0168,2.9739,2.9028,2.8228,2.7877,2.7601,2.7452,2.7564,2.7615,2.764,2.774,2.7865,2.8014,2.8063,2.8029,2.7989,2.8128,2.8284,2.8405,2.8438,2.8444,2.8308,2.8162,2.7989,2.789,2.7831,2.7806,2.7781,2.7781,2.7806,2.7831,2.7855,2.788,2.7865,2.788,2.788,2.788,2.7965,2.8024,2.8088,2.8162,2.8103,2.7929,2.7646,2.7433,2.724,2.6855,2.6448,2.6085,2.5834,2.5757,2.5817,2.5671,2.5511,2.5511,2.5503,2.5251,2.4893,2.4756,2.4435,2.388,2.3707,2.3422,2.2838,2.2651,2.2395,2.1849,2.1684,2.1588,2.1433,2.1434,2.1535,2.1569,2.0983,2.044,2.0121,1.9738,1.9523,1.9493,1.9508,1.9508,1.9512,1.9457,1.9439,1.935,1.8882,1.839,1.8037,1.7166,1.6386,1.6003,1.5636,1.5264,1.4855,1.4611,1.4436,1.4404,1.4404,1.4374,1.4374,1.4356,1.434,1.4292,1.4276,1.4262,1.423,1.4165,1.4141,1.4129,1.4262,1.4446,3.1322,3.1452,3.1596,3.1155,3.0395,2.9981,2.9286,2.85,2.8072,2.7915,2.79,2.794,2.7955,2.7965,2.8079,2.8201,2.8284,2.8525,2.8597,2.8534,2.8621,2.874,2.8834,2.8748,2.8677,2.8549,2.8308,2.821,2.8226,2.8128,2.8103,2.8128,2.8201,2.8226,2.8226,2.8275,2.8275,2.8314,2.8299,2.8299,2.8299,2.8372,2.8444,2.8486,2.8558,2.8629,2.8763,2.8525,2.8396,2.8277,2.7893,2.7511,2.7196,2.6979,2.6877,2.6898,2.6763,2.6629,2.6645,2.6567,2.6489,2.6037,2.5705,2.5248,2.4673,2.4393,2.3849,2.3258,2.301,2.2682,2.2002,2.1789,2.1531,2.1027,2.1272,2.1307,2.1188,2.0932,2.0636,2.0442,2.0131,1.9967,1.9922,1.9922,1.9922,1.9922,1.9922,1.9922,1.9846,1.9554,1.925,1.8901,1.8296,1.7557,1.6833,1.6398,1.6025,1.5595,1.5195,1.4996,1.4872,1.4872,1.4842,1.4842,1.4827,1.4873,1.4842,1.4859,1.4845,1.4799,1.4768,1.4749,1.4754,1.4944,1.5172,3.161,3.1752,3.2033,3.1408,3.0359,3.0304,2.9591,2.8574,2.842,2.842,2.8381,2.8284,2.825,2.8259,2.8387,2.842,2.8493,2.8834,2.9052,2.9075,2.9098,2.9167,2.919,2.899,2.8873,2.8803,2.8462,2.8381,2.8565,2.8372,2.8299,2.8436,2.8517,2.8597,2.8573,2.8708,2.8755,2.8747,2.8794,2.8779,2.8779,2.8818,2.8834,2.8904,2.8928,2.899,2.9075,2.9091,2.8998,2.8842,2.8708,2.8654,2.8654,2.8269,2.7953,2.8005,2.751,2.7417,2.7306,2.747,2.7359,2.7169,2.6656,2.5812,2.5278,2.4756,2.4125,2.3333,2.3117,2.2731,2.211,2.1774,2.1475,2.0989,2.1298,2.1416,2.1152,2.1103,2.0883,2.0487,2.0321,2.0321,2.0321,2.0339,2.0306,2.0306,2.0306,2.0306,2.0306,2.0121,1.9983,1.9612,1.9179,1.867,1.7961,1.75,1.7148,1.6908,1.6383,1.5965,1.5489,1.5342,1.5443,1.5443,1.54,1.5417,1.5447,1.5476,1.5433,1.5374,1.5344,1.5329,1.5412,1.5536,1.5743,3.2092,3.2185,3.1901,3.1393,3.0725,3.0261,2.9616,2.8952,2.8818,2.8771,2.8732,2.8684,2.8628,2.8636,2.8676,2.8716,2.8818,2.9006,2.9229,2.9405,2.9502,2.9434,2.9305,2.9106,2.899,2.8897,2.8716,2.866,2.8732,2.866,2.8676,2.87,2.8771,2.8755,2.8755,2.8842,2.885,2.8889,2.8998,2.9021,2.9045,2.9137,2.9167,2.9175,2.9282,2.9366,2.9389,2.948,2.9366,2.9045,2.9021,2.9084,2.9144,2.8969,2.8955,2.908,2.9066,2.902,2.9038,2.9021,2.8828,2.8431,2.8077,2.7545,2.6357,2.6066,2.5341,2.4452,2.401,2.3701,2.3027,2.2449,2.1856,2.1263,2.1251,2.1156,2.0986,2.0878,2.0817,2.0677,2.0662,2.0678,2.0678,2.0662,2.0662,2.0678,2.0678,2.0646,2.0662,2.0663,2.049,2.0333,1.9987,1.961,1.9138,1.8666,1.8338,1.8232,1.7787,1.7224,1.6517,1.5832,1.607,1.6248,1.6129,1.6099,1.6144,1.6174,1.6083,1.5945,1.5826,1.5754,1.5832,1.5948,1.6117,3.2535,3.2652,3.2128,3.1652,3.111,3.0433,2.9824,2.9332,2.919,2.9121,2.9075,2.8951,2.8881,2.8834,2.8834,2.8889,2.9006,2.9183,2.9405,2.9563,2.972,2.9614,2.9396,2.9252,2.9121,2.8967,2.8858,2.8889,2.8975,2.8951,2.899,2.9084,2.9099,2.9099,2.9107,2.9137,2.919,2.9236,2.9305,2.9366,2.9403,2.947,2.9538,2.9598,2.9681,2.9748,2.9858,2.9968,2.9814,2.9493,2.9387,2.9425,2.9493,2.956,2.9687,2.9902,2.9946,3.0,3.0087,3.0092,2.9912,2.9541,2.9312,2.8707,2.7925,2.7404,2.6419,2.5862,2.5383,2.4827,2.4092,2.3177,2.2443,2.2034,2.1518,2.1183,2.1039,2.1038,2.1006,2.1006,2.1006,2.1006,2.1022,2.1022,2.1022,2.1006,2.1006,2.1006,2.1006,2.1006,2.0991,2.0831,2.0703,2.0351,2.0015,1.9582,1.9229,1.9123,1.8985,1.8457,1.78,1.689,1.7,1.7213,1.6969,1.6817,1.6861,1.6814,1.6582,1.644,1.6286,1.6166,1.6192,1.6182,1.6398,3.2969,3.3097,3.2574,3.2001,3.1406,3.075,3.006,2.9627,2.9525,2.9464,2.935,2.9213,2.9098,2.8967,2.9013,2.9052,2.916,2.9405,2.9586,2.972,2.9808,2.9764,2.9525,2.9434,2.9282,2.9144,2.8944,2.906,2.9206,2.9183,2.9275,2.9366,2.945,2.9496,2.9457,2.948,2.9592,2.9681,2.9726,2.9754,2.9804,2.9832,2.9913,2.9995,3.0038,3.0167,3.0316,3.0401,3.0279,2.9962,2.9881,2.9859,2.9897,3.0,3.0103,3.0231,3.0354,3.0422,3.0526,3.0531,3.0551,3.0385,2.9995,2.9613,2.9247,2.842,2.7638,2.7123,2.6724,2.5993,2.5062,2.3916,2.3351,2.3069,2.2489,2.2005,2.1609,2.142,2.134,2.1356,2.1356,2.134,2.134,2.134,2.1356,2.1356,2.1356,2.1356,2.1356,2.1356,2.1356,2.1307,2.1193,2.1095,2.0786,2.0475,2.015,1.9941,1.9899,1.9573,1.9209,1.8621,1.8407,1.8269,1.7974,1.7741,1.7616,1.7471,1.7157,1.6776,1.6526,1.645,1.6425,1.6377,1.6482,3.3346,3.3469,3.2391,3.1935,3.1753,3.0642,3.0098,3.0033,2.981,2.9722,2.9655,2.9486,2.9389,2.9366,2.935,2.9389,2.9434,2.9608,2.972,2.9836,2.9874,2.9808,2.9659,2.9614,2.9509,2.938,2.9344,2.935,2.9387,2.9323,2.9434,2.9486,2.9554,2.9563,2.9659,2.9732,2.9804,2.993,3.0033,3.0098,3.0146,3.0215,3.0279,3.0316,3.038,3.0468,3.0593,3.0679,3.072,3.0695,3.0531,3.0389,3.0347,3.0363,3.0447,3.0551,3.063,3.0712,3.0855,3.0895,3.0952,3.0982,3.085,3.0583,2.9993,2.9692,2.8866,2.8124,2.7568,2.6894,2.5763,2.5258,2.4701,2.4229,2.3926,2.3558,2.2983,2.2205,2.179,2.1693,2.1693,2.1708,2.1691,2.1693,2.1693,2.1693,2.1693,2.1693,2.1693,2.1709,2.1693,2.1678,2.1643,2.1559,2.146,2.1228,2.1046,2.0831,2.0772,2.0697,2.0332,1.9944,1.9585,1.9258,1.8931,1.8756,1.8642,1.7996,1.766,1.7223,1.6817,1.673,1.6675,1.6604,1.6567,3.3797,3.3855,3.2619,3.2136,3.2007,3.0734,3.0124,3.0167,3.0044,2.9957,2.987,2.9694,2.9643,2.9643,2.9614,2.9614,2.9726,2.9792,2.9874,2.9902,2.9924,2.9902,2.988,2.9793,2.9685,2.9153,2.905,2.8966,2.8801,2.9075,2.9237,2.9378,2.962,2.9864,2.9924,2.9957,3.006,3.0189,3.0295,3.038,3.0443,3.0584,3.0651,3.0671,3.0733,3.0814,3.0978,3.1098,3.1179,3.1235,3.1157,3.0998,3.0838,3.0834,3.0875,3.0958,3.0978,3.1055,3.1173,3.1249,3.1252,3.1327,3.1349,3.1183,3.0812,3.0575,3.01,2.9263,2.8528,2.7604,2.6495,2.5947,2.5622,2.5331,2.4921,2.4562,2.4091,2.3194,2.2367,2.2168,2.2034,2.2034,2.2034,2.2017,2.2017,2.2034,2.2034,2.2034,2.2051,2.2036,2.2051,2.2034,2.2034,2.2017,2.2017,2.1934,2.1915,2.1766,2.1702,2.1609,2.141,2.1017,2.0592,2.03,2.004,1.9896,1.9668,1.8963,1.821,1.7765,1.742,1.7152,1.6978,1.6924,1.6869,3.4185,3.4121,3.2971,3.2432,3.2103,3.0909,3.0338,3.0316,3.0274,3.0231,3.0103,2.9962,2.9913,2.9892,2.9836,2.988,2.9989,3.0033,3.0011,2.9989,3.0033,3.0017,3.0055,3.0011,2.9675,2.863,2.8726,2.8521,2.8572,2.8623,2.9186,2.9361,2.9899,3.0172,3.0231,3.0274,3.0338,3.0485,3.0547,3.0609,3.0708,3.0851,3.0932,3.1015,3.1095,3.1173,3.1312,3.1447,3.1579,3.1654,3.1764,3.1634,3.1443,3.1308,3.131,3.1389,3.137,3.1428,3.1502,3.1557,3.1559,3.1593,3.1653,3.1691,3.1556,3.1284,3.0906,3.0249,2.9418,2.8205,2.7481,2.6874,2.6491,2.6249,2.5747,2.5415,2.508,2.4379,2.373,2.277,2.27,2.27,2.2482,2.2332,2.2349,2.2349,2.2349,2.2366,2.2366,2.2366,2.2349,2.2349,2.2346,2.2332,2.2332,2.2332,2.2332,2.2332,2.2335,2.2287,2.2212,2.1922,2.1532,2.1409,2.1226,2.0965,2.0428,1.9628,1.8941,1.8402,1.7787,1.7318,1.7203,1.7236,1.7166,3.4242,3.3822,3.3116,3.253,3.1988,3.112,3.077,3.077,3.063,3.0609,3.0547,3.038,3.0295,3.0253,3.0167,3.0162,3.0189,3.0189,3.0184,3.0162,3.0167,3.0167,3.0227,3.0236,2.9854,2.9292,2.9103,2.916,2.9312,2.9377,2.9411,2.9903,3.0234,3.0401,3.0485,3.0547,3.0667,3.0753,3.0814,3.0855,3.0912,3.0992,3.1114,3.1254,3.1389,3.1485,3.1579,3.1711,3.1857,3.1858,3.1966,3.2001,3.1911,3.18,3.1744,3.1707,3.169,3.1727,3.1802,3.1839,3.1875,3.1983,3.2037,3.209,3.2074,3.1987,3.1637,3.0918,2.9885,2.8796,2.8638,2.789,2.7504,2.7382,2.7189,2.6874,2.6419,2.5995,2.5292,2.4116,2.375,2.3395,2.3075,2.277,2.2619,2.2605,2.2605,2.2592,2.2579,2.2592,2.2605,2.2619,2.2649,2.2649,2.2632,2.2632,2.2619,2.2632,2.2619,2.2632,2.2571,2.2602,2.2453,2.2184,2.1915,2.1576,2.0964,2.024,1.9561,1.8939,1.8195,1.741,1.7417,1.7458,1.7406,3.3499,3.3283,3.2679,3.2285,3.1893,3.121,3.0912,3.0892,3.0831,3.0794,3.0753,3.063,3.0605,3.0605,3.0522,3.048,3.0443,3.038,3.0359,3.0359,3.0359,3.0401,3.048,3.0506,3.0385,3.0061,2.9739,2.938,2.9356,2.9466,2.9645,3.0004,3.0393,3.0671,3.0712,3.0794,3.0912,3.0955,3.1055,3.1098,3.1117,3.1193,3.1349,3.154,3.1653,3.1746,3.1875,3.2055,3.2161,3.2179,3.2266,3.2335,3.2318,3.2266,3.2144,3.2001,3.1947,3.1983,3.2037,3.2055,3.2091,3.2197,3.2284,3.237,3.2404,3.2401,3.2115,3.1442,3.1001,3.0099,2.9682,2.8855,2.8535,2.8438,2.8158,2.772,2.7469,2.7349,2.6525,2.54,2.4632,2.4103,2.3676,2.3337,2.298,2.2863,2.2868,2.2825,2.2812,2.2812,2.2842,2.2868,2.2868,2.2893,2.2881,2.2881,2.2906,2.2906,2.2906,2.2889,2.2902,2.2906,2.285,2.2703,2.2424,2.216,2.1624,2.0983,2.0226,1.9406,1.8542,1.785,1.7731,1.7658,1.763,3.2735,3.2684,3.2206,3.1955,3.1737,3.1221,3.0989,3.0972,3.0992,3.0995,3.0955,3.0858,3.0895,3.0915,3.0851,3.077,3.0736,3.063,3.0589,3.0589,3.0589,3.0651,3.0749,3.0851,3.0841,3.0764,3.0409,2.9719,2.9485,2.9555,2.9831,3.0252,3.0727,3.0955,3.0978,3.1075,3.1075,3.1154,3.1252,3.1315,3.1389,3.1483,3.1632,3.1801,3.1856,3.1982,3.2126,3.2301,3.2405,3.2456,3.254,3.264,3.2657,3.2655,3.2539,3.2301,3.2232,3.2232,3.2266,3.2318,3.2282,3.2104,3.2258,3.2287,3.2122,3.1989,3.1999,3.1589,3.1321,3.0846,3.0033,2.9541,2.9162,2.887,2.8411,2.8077,2.8069,2.7945,2.7721,2.6663,2.557,2.4957,2.4654,2.3987,2.3651,2.3393,2.335,2.3057,2.3028,2.3033,2.3045,2.307,2.3095,2.3132,2.3132,2.3119,2.3144,2.318,2.3168,2.3139,2.3168,2.318,2.3132,2.3077,2.3003,2.2707,2.2189,2.1575,2.0668,1.9762,1.8829,1.8247,1.8044,1.7954,1.7954,3.2572,3.2093,3.2097,3.1796,3.1317,3.1165,3.1151,3.1171,3.1196,3.1257,3.1235,3.1218,3.1218,3.1179,3.1055,3.0975,3.0955,3.0895,3.0855,3.0855,3.0834,3.0855,3.0875,3.0875,3.1015,3.1114,3.1033,3.0917,3.0451,3.0076,3.0247,3.0763,3.0996,3.1193,3.1254,3.1349,3.144,3.146,3.1479,3.1519,3.1579,3.1707,3.1801,3.1912,3.2037,3.2214,3.2319,3.2474,3.2523,3.2607,3.2724,3.2773,3.2789,3.2854,3.2852,3.2753,3.2655,3.2538,3.2573,3.2623,3.2494,3.2135,3.1963,3.1541,3.1336,3.1216,3.1207,3.0955,3.0937,3.0693,3.0091,2.9649,2.921,2.8842,2.8497,2.8349,2.8345,2.8259,2.8067,2.7902,2.68,2.6223,2.5803,2.502,2.4345,2.4067,2.3789,2.3459,2.3253,2.3241,2.3229,2.3265,2.3313,2.3348,2.3342,2.3348,2.336,2.3436,2.3407,2.3383,2.3418,2.343,2.3441,2.3395,2.3336,2.3242,2.2828,2.2095,2.1062,2.0127,1.9227,1.869,1.8284,1.8249,1.8266,3.1437,3.1258,3.1381,3.1298,3.1109,3.1075,3.1131,3.121,3.1274,3.1312,3.1332,3.137,3.1406,3.1387,3.1308,3.1232,3.1176,3.112,3.1137,3.1047,3.1027,3.1041,3.1117,3.11,3.1196,3.1232,3.1327,3.1276,3.1114,3.0992,3.0995,3.1184,3.1344,3.1404,3.1485,3.1596,3.1671,3.1727,3.1818,3.1838,3.1893,3.1947,3.2001,3.2055,3.2249,3.2353,3.2456,3.2626,3.269,3.2771,3.2886,3.2983,3.3062,3.3106,3.3119,3.3165,3.3104,3.2977,3.2868,3.2884,3.2715,3.2489,3.2119,3.1606,3.1034,3.082,3.0852,3.0872,3.0854,3.0588,3.0168,2.9862,2.953,2.9116,2.8612,2.8486,2.8432,2.8424,2.8313,2.8213,2.807,2.7453,2.6721,2.5755,2.4992,2.4557,2.4118,2.3632,2.3483,2.3448,2.3459,2.3471,2.351,2.3555,2.3567,2.3555,2.3555,2.3589,2.3589,2.3589,2.3663,2.3685,2.3667,2.3671,2.3631,2.3493,2.3354,2.2434,2.1235,2.0424,1.9654,1.9273,1.8927,1.8651,1.8624,3.0651,3.077,3.0855,3.0952,3.1035,3.1035,3.1112,3.119,3.1274,3.1332,3.1389,3.1483,3.1576,3.1557,3.1485,3.1325,3.1083,3.1062,3.0908,3.0838,3.0783,3.0762,3.0832,3.0972,3.1128,3.1351,3.1519,3.1557,3.1614,3.1598,3.1564,3.1593,3.1578,3.167,3.1727,3.1819,3.1911,3.1966,3.2055,3.2126,3.2179,3.2197,3.2249,3.2318,3.2405,3.2473,3.2591,3.2724,3.2836,3.2948,3.3057,3.3183,3.3289,3.3334,3.3378,3.3422,3.339,3.3331,3.3211,3.3147,3.3105,3.2733,3.2083,3.1079,3.0776,3.0698,3.0448,3.0166,3.0496,3.0419,3.0237,2.9737,2.9548,2.9165,2.8773,2.8624,2.851,2.8484,2.8489,2.843,2.8371,2.8407,2.7589,2.6477,2.5703,2.5123,2.4532,2.3876,2.3679,2.3618,2.3629,2.3641,2.3649,2.3703,2.3725,2.3736,2.3736,2.3765,2.3765,2.3797,2.3839,2.3871,2.3873,2.3876,2.3868,2.384,2.3759,2.2579,2.1478,2.1201,2.0816,2.0089,1.964,1.9362,1.9334,3.0855,3.0892,3.0892,3.1012,3.1188,3.1171,3.119,3.1193,3.1274,3.137,3.1519,3.167,3.1744,3.171,3.1498,3.1151,3.0601,3.051,3.0115,2.9671,2.9398,2.9856,3.0162,3.0488,3.0781,3.1348,3.1497,3.1645,3.1875,3.1929,3.1893,3.1818,3.1838,3.1947,3.2037,3.209,3.2144,3.2179,3.2214,3.2318,3.2404,3.2456,3.2489,3.2539,3.2589,3.2657,3.2756,3.287,3.2979,3.3104,3.3241,3.3378,3.3481,3.3506,3.3549,3.3577,3.3573,3.353,3.3488,3.3361,3.3049,3.2237,3.1387,3.0631,3.0272,2.9447,2.9071,2.9165,2.9652,2.9585,2.9383,2.922,2.9261,2.9013,2.8711,2.8657,2.8562,2.8562,2.8562,2.8574,2.8587,2.8587,2.8522,2.7429,2.6403,2.5797,2.471,2.4031,2.3833,2.3754,2.3765,2.3775,2.38,2.3824,2.3847,2.3876,2.3894,2.3922,2.3933,2.3984,2.4034,2.4064,2.4036,2.4085,2.4095,2.4133,2.4087,2.3241,2.2617,2.2424,2.1943,2.1016,2.0717,2.0653,2.0726,3.1131,3.1137,3.1112,3.1092,3.1055,3.1092,3.1154,3.1254,3.1368,3.1521,3.167,3.1763,3.18,3.1679,3.1212,3.0864,3.0467,3.0004,2.9625,2.9453,2.9401,2.9486,2.9725,2.9863,3.0155,3.0773,3.111,3.1512,3.1877,3.1986,3.2179,3.2143,3.2073,3.2143,3.2249,3.2353,3.2404,3.2438,3.242,3.2488,3.2539,3.2658,3.2691,3.2706,3.2836,3.2868,3.295,3.306,3.3183,3.3289,3.3408,3.3524,3.3605,3.3629,3.3671,3.373,3.3712,3.3712,3.3684,3.3578,3.3194,3.2575,3.1861,3.1179,3.0317,2.9685,2.9186,2.9069,2.8927,2.8915,2.8848,2.8871,2.8889,2.8672,2.86,2.86,2.8612,2.8612,2.8625,2.8637,2.8662,2.8657,2.8591,2.8427,2.7404,2.6418,2.5263,2.4272,2.4037,2.3884,2.3904,2.3943,2.3955,2.3968,2.4008,2.4046,2.4056,2.4094,2.4103,2.4152,2.4182,2.4163,2.4154,2.4247,2.4312,2.4303,2.4211,2.3989,2.3603,2.3144,2.251,2.1721,2.1666,2.1896,2.1961,3.1327,3.1351,3.1327,3.1193,3.1098,3.1075,3.1137,3.1295,3.1387,3.1595,3.18,3.1818,3.1856,3.1667,3.1131,3.0542,3.0127,2.9558,2.9076,2.8784,2.8647,2.8888,2.9025,2.9214,2.9524,3.0092,3.0474,3.0907,3.1585,3.1812,3.2091,3.2266,3.2336,3.2371,3.2439,3.259,3.2672,3.2705,3.2721,3.277,3.282,3.2902,3.2967,3.2965,3.3044,3.3075,3.314,3.3232,3.3349,3.3437,3.3553,3.3601,3.3684,3.3739,3.3753,3.3793,3.3807,3.3807,3.378,3.3666,3.3415,3.299,3.2546,3.1806,3.0998,3.0285,2.9548,2.9125,2.884,2.8605,2.8605,2.8677,2.8726,2.86,2.8637,2.865,2.8662,2.8675,2.8675,2.8687,2.8694,2.8731,2.8585,2.8444,2.7593,2.6457,2.5124,2.4322,2.4105,2.4016,2.4037,2.4085,2.4114,2.4143,2.419,2.4209,2.4238,2.4229,2.4257,2.4275,2.4293,2.4284,2.4311,2.4401,2.4455,2.4482,2.4425,2.4304,2.4028,2.3671,2.3169,2.2768,2.2963,2.3178,2.3014,3.15,3.1481,3.1498,3.1406,3.1295,3.1213,3.1252,3.1334,3.1353,3.1523,3.1801,3.1874,3.1948,3.1846,3.122,3.0578,2.9954,2.914,2.8502,2.8159,2.828,2.8095,2.8335,2.8764,2.9125,2.9471,2.9813,3.0311,3.1096,3.1404,3.1821,3.2293,3.2451,3.2589,3.2588,3.2722,3.287,3.2981,3.2997,3.3091,3.3168,3.3232,3.3247,3.3247,3.3259,3.3289,3.3337,3.3378,3.3495,3.3591,3.3661,3.3712,3.3775,3.3793,3.3793,3.3775,3.3775,3.3775,3.3775,3.3775,3.3648,3.3433,3.2981,3.2379,3.1901,3.1029,3.001,2.9746,2.9158,2.8742,2.8634,2.858,2.8605,2.8625,2.8675,2.87,2.8712,2.8749,2.8761,2.8773,2.8798,2.8767,2.8624,2.8315,2.7559,2.6468,2.5027,2.4405,2.4343,2.4162,2.4191,2.4201,2.4247,2.4312,2.4358,2.4394,2.4402,2.4409,2.4417,2.4425,2.4461,2.4469,2.4522,2.4572,2.4599,2.4626,2.4666,2.4676,2.4428,2.4225,2.4359,2.4198,2.4396,2.4313,2.4009,3.191,3.191,3.1819,3.1747,3.1674,3.15,3.1443,3.1523,3.1598,3.171,3.1857,3.1894,3.1966,3.1829,3.1324,3.0733,3.0385,2.9742,2.9066,2.8945,2.8825,2.905,2.9121,2.8878,2.8997,2.9412,2.9559,2.962,3.0374,3.0938,3.1457,3.1928,3.2608,3.28,3.285,3.2963,3.3152,3.3201,3.3247,3.3289,3.3349,3.3408,3.3437,3.3437,3.3462,3.3491,3.3509,3.3563,3.3629,3.3712,3.3766,3.3793,3.3815,3.3834,3.378,3.3753,3.3739,3.3712,3.3684,3.3661,3.3615,3.3463,3.3308,3.2811,3.2222,3.1822,3.1133,3.0459,2.9755,2.9394,2.9336,2.8815,2.8672,2.8675,2.8694,2.8718,2.8743,2.8834,2.887,2.8893,2.8917,2.901,2.8924,2.8691,2.8028,2.7393,2.6165,2.538,2.5169,2.4607,2.4367,2.4348,2.4384,2.4454,2.4534,2.4774,2.4816,2.4791,2.4695,2.4602,2.4637,2.4634,2.4642,2.4665,2.4726,2.4787,2.4795,2.4827,2.487,2.4858,2.483,2.4782,2.4718,2.4692,2.4647,3.2179,3.2144,3.2073,3.202,3.1966,3.1726,3.1634,3.171,3.182,3.1947,3.2002,3.2002,3.209,3.1934,3.1428,3.0975,3.0888,3.019,2.9791,2.9791,2.9774,2.9671,2.9479,2.9195,2.9036,2.9243,2.902,2.8971,2.9728,3.0645,3.1479,3.2208,3.2757,3.3034,3.3152,3.3229,3.3367,3.3408,3.3477,3.3516,3.3573,3.3615,3.3643,3.3643,3.3671,3.3698,3.3712,3.3753,3.3793,3.3815,3.3829,3.3834,3.3834,3.3793,3.3739,3.3684,3.3657,3.3615,3.3591,3.3577,3.352,3.3419,3.3466,3.3183,3.2557,3.2155,3.1722,3.1117,3.0466,3.0012,2.9683,2.9106,2.8949,2.8958,2.8779,2.8803,2.881,2.887,2.8975,2.8998,2.9067,2.9167,2.9217,2.8989,2.8621,2.8029,2.7417,2.6757,2.6089,2.5532,2.5104,2.5149,2.5259,2.5524,2.5519,2.5402,2.5375,2.5193,2.5115,2.5013,2.4772,2.4787,2.4779,2.4779,2.4834,2.4896,2.4919,2.4966,2.4999,2.5032,2.5038,2.5012,2.4986,2.4973,2.496,3.2335,3.2318,3.2318,3.2266,3.2179,3.1965,3.1893,3.1912,3.202,3.2143,3.2214,3.2197,3.2267,3.2248,3.1615,3.1336,3.1216,3.0516,3.0325,3.0188,3.0395,3.024,2.9941,2.9479,2.9351,2.8886,2.8553,2.8552,2.9169,3.0246,3.1421,3.2614,3.3139,3.3319,3.3378,3.3437,3.3538,3.3619,3.3698,3.3734,3.3802,3.386,3.386,3.386,3.3873,3.3868,3.3868,3.3868,3.3881,3.3895,3.3881,3.382,3.3753,3.3698,3.3643,3.3619,3.3605,3.353,3.3356,3.3306,3.3332,3.3241,3.3412,3.3291,3.3024,3.255,3.2218,3.1814,3.1242,3.051,2.99,2.9674,2.9475,2.9259,2.8948,2.8901,2.887,2.8929,2.9044,2.9123,2.9211,2.9286,2.9341,2.9206,2.9107,2.8941,2.8456,2.8101,2.7447,2.6803,2.6474,2.6483,2.663,2.687,2.6733,2.6338,2.6223,2.6159,2.5769,2.5606,2.5286,2.506,2.5079,2.5105,2.5018,2.5012,2.5044,2.5082,2.5112,2.5136,2.5185,2.513,2.5094,2.5094,2.5082,3.3034,3.2522,3.2522,3.2506,3.2489,3.2404,3.2266,3.2073,3.209,3.2179,3.2354,3.2336,3.2422,3.2505,3.2293,3.217,3.2048,3.196,3.1871,3.1715,3.1488,3.1697,3.1325,3.0529,3.0084,2.9458,2.8926,2.8354,2.8792,2.9855,3.1574,3.3036,3.336,3.3481,3.3563,3.3601,3.3684,3.3766,3.386,3.3908,3.3941,3.3985,3.3972,3.3985,3.3985,3.3985,3.3972,3.3934,3.3934,3.3947,3.3815,3.3739,3.3775,3.3684,3.3605,3.3534,3.3437,3.3252,3.2863,3.3182,3.3273,3.295,3.3189,3.3401,3.3214,3.2979,3.2736,3.24,3.2014,3.135,3.0894,3.0624,3.0188,2.9745,2.9522,2.9496,2.946,2.9415,2.9513,2.944,2.9498,2.9471,2.9506,2.9493,2.9429,2.9514,2.9429,2.9099,2.8723,2.8029,2.771,2.7718,2.7669,2.7823,2.7568,2.7188,2.7164,2.7082,2.6678,2.6337,2.6142,2.5907,2.5628,2.5551,2.5652,2.5422,2.5153,2.5315,2.5751,2.5368,2.5316,2.5248,2.5217,2.5275,2.5327,3.3498,3.2838,3.2802,3.277,3.2721,3.2706,3.2523,3.2318,3.2301,3.2388,3.2473,3.249,3.2523,3.2589,3.2554,3.2536,3.2518,3.2431,3.2413,3.2396,3.2605,3.2534,3.2125,3.1497,3.0764,3.0113,2.9387,2.8684,2.8923,3.0056,3.1729,3.3277,3.3481,3.3605,3.3698,3.3775,3.3855,3.3921,3.3972,3.4023,3.4049,3.4074,3.4086,3.4074,3.4092,3.4061,3.4036,3.3985,3.3972,3.3934,3.378,3.373,3.3698,3.3577,3.3243,3.3117,3.2936,3.2514,3.212,3.2211,3.2384,3.2557,3.2858,3.3152,3.3343,3.3258,3.3181,3.3046,3.2679,3.229,3.1959,3.1589,3.0946,3.0333,3.029,3.0243,3.0155,3.0075,2.9971,2.9843,2.9774,2.9717,2.9696,2.9729,2.9701,2.9691,2.9707,2.9636,2.9382,2.9028,2.8801,2.8781,2.8663,2.8628,2.8339,2.8153,2.8089,2.794,2.7491,2.7192,2.7013,2.6871,2.6692,2.6542,2.6431,2.6269,2.6184,2.6334,2.6561,2.6201,2.6106,2.6386,2.6202,2.5644,2.5716,3.399,3.3337,3.3281,3.3259,3.3005,3.2996,3.2844,3.2639,3.2639,3.2639,3.264,3.2606,3.264,3.2672,3.2672,3.2655,3.2672,3.2672,3.2688,3.2621,3.2688,3.2737,3.2604,3.2063,3.1216,3.0589,3.0082,2.9629,2.9494,3.0527,3.2087,3.3465,3.3633,3.3739,3.3834,3.3908,3.3972,3.4036,3.4036,3.4061,3.4148,3.4204,3.4216,3.4204,3.4173,3.4161,3.4111,3.4061,3.3998,3.3887,3.3766,3.3689,3.3563,3.3462,3.3049,3.2645,3.2514,3.1901,3.15,3.1454,3.18,3.2069,3.2402,3.2963,3.3304,3.3426,3.3422,3.3382,3.303,3.282,3.2524,3.2358,3.1898,3.1365,3.1125,3.0946,3.0744,3.0717,3.0733,3.0616,3.0605,3.0525,3.0358,3.0421,3.0199,3.0,2.9815,2.9864,2.9851,2.9658,2.959,2.9569,2.9431,2.9308,2.9372,2.9184,2.9031,2.8785,2.8377,2.8095,2.7977,2.7871,2.7783,2.7467,2.7131,2.7459,2.7532,2.7446,2.7359,2.7374,2.7412,2.7763,2.741,2.6639,2.6428,3.5635,3.4949,3.4931,3.4575,3.4006,3.3954,3.3516,3.2934,3.2961,3.2882,3.2755,3.2739,3.2787,3.282,3.2802,3.282,3.2802,3.2786,3.285,3.2884,3.2884,3.2898,3.2885,3.2373,3.1577,3.0977,3.068,3.0794,3.1134,3.1833,3.252,3.3584,3.3793,3.3829,3.3934,3.4011,3.4036,3.4111,3.408,3.4111,3.4204,3.4216,3.4216,3.4216,3.4197,3.4161,3.4099,3.4036,3.3947,3.3834,3.3698,3.3587,3.3509,3.3495,3.3092,3.2547,3.2288,3.1599,3.0963,3.0837,3.1234,3.173,3.2201,3.2947,3.3401,3.3492,3.3534,3.3491,3.3412,3.3238,3.3114,3.3002,3.2839,3.2395,3.1974,3.1678,3.1399,3.1462,3.152,3.148,3.1462,3.134,3.1158,3.0954,3.0734,3.0422,3.0038,2.9924,3.0037,2.9961,2.9908,2.9893,2.9928,2.9908,3.0028,2.9994,2.9723,2.973,2.9493,2.9214,2.8926,2.8713,2.8487,2.8063,2.7837,2.8266,2.84,2.8008,2.7978,2.83,2.8453,2.8686,2.8567,2.7919,2.7725,3.631,3.5674,3.562,3.5353,3.4907,3.4549,3.4069,3.3575,3.325,3.3057,3.2948,3.2932,3.2963,3.2979,3.2963,3.2948,3.2932,3.2948,3.2948,3.2979,3.3075,3.3088,3.2931,3.2754,3.2238,3.1653,3.1238,3.145,3.2404,3.2559,3.2886,3.3739,3.3895,3.3934,3.4036,3.4049,3.4074,3.4148,3.413,3.4161,3.4216,3.4216,3.4216,3.4216,3.4173,3.4136,3.4061,3.3985,3.39,3.378,3.3657,3.3601,3.3549,3.3549,3.3176,3.2561,3.2004,3.1391,3.0601,3.0332,3.0748,3.128,3.1677,3.2311,3.3506,3.3629,3.3629,3.3605,3.3549,3.3411,3.3411,3.332,3.3265,3.297,3.2875,3.2734,3.2684,3.2748,3.2532,3.2188,3.2124,3.2012,3.1815,3.1559,3.1371,3.1337,3.0854,3.0427,3.0435,3.016,3.014,3.013,3.0118,3.0168,3.0196,3.0228,3.0215,3.029,3.0358,3.0114,2.9718,2.9448,2.9143,2.8988,2.8997,2.9304,2.9279,2.8942,2.9113,2.9552,2.9547,2.9523,2.9343,2.924,2.9249,3.6662,3.613,3.613,3.6023,3.574,3.502,3.4526,3.4175,3.3492,3.3132,3.3135,3.3135,3.3135,3.3088,3.3057,3.3044,3.3028,3.3011,3.3011,3.3073,3.3119,3.3211,3.3319,3.3288,3.2867,3.2388,3.19,3.2224,3.2891,3.2996,3.3305,3.3887,3.4023,3.4067,3.4117,3.4142,3.4155,3.4173,3.4185,3.4197,3.4216,3.4216,3.4216,3.4173,3.4148,3.4068,3.4011,3.3934,3.386,3.3766,3.3689,3.3643,3.3615,3.3615,3.3163,3.2619,3.1827,3.1102,3.0296,2.9617,3.0216,3.0766,3.1102,3.1918,3.3131,3.3625,3.3625,3.3684,3.3647,3.3633,3.3633,3.3629,3.3592,3.3574,3.357,3.3565,3.3643,3.37,3.3331,3.2921,3.2827,3.2706,3.2568,3.2305,3.2137,3.2087,3.1751,3.1417,3.1016,3.0491,3.0183,3.018,3.0188,3.0241,3.0317,3.0354,3.0402,3.0436,3.0444,3.0535,3.0477,3.0094,2.9999,3.0272,3.0338,3.0215,3.0288,3.0125,3.0411,3.0581,3.0338,3.0157,3.0369,3.0361,3.0753,3.7884,3.7739,3.7721,3.7359,3.6689,3.5894,3.5144,3.4395,3.368,3.3304,3.3289,3.3304,3.3256,3.3119,3.3104,3.3088,3.3122,3.3104,3.3168,3.3247,3.3289,3.3378,3.3466,3.352,3.3524,3.3181,3.279,3.2959,3.3362,3.3591,3.3795,3.4074,3.4086,3.413,3.4179,3.4204,3.4185,3.4228,3.4209,3.4209,3.4209,3.4209,3.4216,3.4216,3.4204,3.4148,3.4086,3.4005,3.3947,3.386,3.3766,3.3721,3.3739,3.3703,3.329,3.2651,3.1868,3.1048,3.027,2.948,2.9903,3.0454,3.0919,3.1633,3.2645,3.3401,3.3488,3.3748,3.3739,3.3753,3.3753,3.3807,3.3784,3.377,3.377,3.3765,3.3831,3.3878,3.3758,3.3685,3.3691,3.367,3.3697,3.3381,3.302,3.2708,3.1864,3.152,3.1134,3.0685,3.0211,3.0233,3.0228,3.0311,3.0373,3.0425,3.0458,3.049,3.0545,3.0583,3.061,3.0608,3.0629,3.0653,3.0692,3.059,3.072,3.0986,3.1025,3.1056,3.0809,3.0742,3.1108,3.1371,3.1624]}]]